[[{"header":{"parameterUnit":"m.s-1","parameterCategory":1,"la1":31.0,"la2":29.5877,"lo1":-88.7671,"lo2":-86.6584,"dy":0.0162,"dx":0.0185,"nx":115,"ny":88,"refTime":"2024-02-17T06:00:00:Z","depth":0,"parameterNumber":2,"parameterNumberName":"U-component_of_WINDS"},"data":[0.0,0.0,0.0,0.0,0.0,0.0,0.0,0.0,0.0,0.0,0.0,0.0,0.0,0.0,0.0,0.0,0.0,0.0,0.0,0.0,0.0,0.0,0.0,0.0,0.0,0.0,0.0,0.0,0.0,0.0,0.0,0.0,0.0,0.0,0.0,0.0,0.0,0.0,0.0,0.0,0.0,0.0,0.0,0.0,0.0,0.0,0.0,0.0,0.0,0.0,0.0,0.0,0.0,0.0,0.0,0.0,0.0,0.0,0.0,0.0,0.0,0.0,0.0,0.0,0.0,0.0,0.0,0.0,0.0,0.0,0.0,0.0,0.0,0.0,0.0,0.0,0.0,0.0,0.0,0.0,0.0,0.0,0.0,0.0,0.0,0.0,0.0,0.0,0.0,0.0,0.0,0.0,0.0,0.0,0.0,0.0,0.0,0.0,0.0,0.0,0.0,0.0,0.0,0.0,0.0,0.0,0.0,0.0,0.0,0.0,0.0,0.0,0.0,0.0,0.0,0.0,0.0,0.0,0.0,0.0,0.0,0.0,0.0,0.0,0.0,0.0,0.0,0.0,0.0,0.0,0.0,0.0,0.0,0.0,0.0,0.0,0.0,0.0,0.0,0.0,0.0,0.0,0.0,0.0,0.0,0.0,0.0,0.0,0.0,0.0,0.0,0.0,0.0,0.0,0.0,0.0,0.0,0.0,0.0,0.0,0.0,0.0,0.0,0.0,0.0,0.0,0.0,0.0,0.0,0.0,0.0,0.0,0.0,0.0,0.0,0.0,0.0,0.0,0.0,0.0,0.0,0.0,0.0,0.0,0.0,0.0,0.0,0.0,0.0,0.0,0.0,0.0,0.0,0.0,0.0,0.0,0.0,0.0,0.0,0.0,0.0,0.0,0.0,0.0,0.0,0.0,0.0,0.0,0.0,0.0,0.0,0.0,0.0,0.0,0.0,0.0,0.0,0.0,0.0,0.0,0.0,0.0,0.0,0.0,0.0,0.0,0.0,0.0,0.0,0.0,0.0,0.0,0.0,0.0,0.0,0.0,0.0,0.0,0.0,0.0,0.0,0.0,0.0,0.0,0.0,0.0,0.0,0.0,0.0,0.0,0.0,0.0,0.0,0.0,0.0,0.0,0.0,0.0,0.0,0.0,0.0,0.0,0.0,0.0,0.0,0.0,0.0,0.0,0.0,0.0,0.0,0.0,0.0,0.0,0.0,0.0,0.0,0.0,0.0,0.0,0.0,0.0,0.0,0.0,0.0,0.0,0.0,0.0,0.0,0.0,0.0,0.0,0.0,0.0,0.0,0.0,0.0,0.0,0.0,0.0,0.0,0.0,0.0,0.0,0.0,0.0,0.0,0.0,0.0,0.0,0.0,0.0,0.0,0.0,0.0,0.0,0.0,0.0,0.0,0.0,0.0,0.0,0.0,0.0,0.0,0.0,0.0,0.0,0.0,0.0,0.0,0.0,0.0,0.0,0.0,0.0,0.0,0.0,0.0,0.0,0.0,0.0,0.0,0.0,0.0,0.0,0.0,0.0,0.0,0.0,0.0,0.0,0.0,0.0,0.0,0.0,0.0,0.0,0.0,0.0,0.0,0.0,0.0,0.0,0.0,0.0,0.0,0.0,0.0,0.0,0.0,0.0,0.0,0.0,0.0,0.0,0.0,0.0,0.0,0.0,0.0,0.0,0.0,0.0,0.0,0.0,0.0,0.0,0.0,0.0,0.0,0.0,0.0,0.0,0.0,0.0,0.0,0.0,0.0,0.0,0.0,0.0,0.0,0.0,0.0,0.0,0.0,0.0,0.0,0.0,0.0,0.0,0.0,0.0,0.0,0.0,0.0,0.0,0.0,0.0,0.0,0.0,0.0,0.0,0.0,0.0,0.0,0.0,0.0,0.0,0.0,0.0,0.0,0.0,0.0,0.0,0.0,0.0,0.0,0.0,0.0,0.0,0.0,0.0,0.0,0.0,0.0,0.0,0.0,0.0,0.0,0.0,0.0,0.0,0.0,0.0,0.0,0.0,0.0,0.0,0.0,0.0,0.0,0.0,0.0,0.0,0.0,0.0,0.0,0.0,0.0,0.0,0.0,0.0,0.0,0.0,0.0,0.0,0.0,0.0,0.0,0.0,0.0,0.0,0.0,0.0,0.0,0.0,0.0,0.0,0.0,0.0,0.0,0.0,0.0,0.0,0.0,0.0,0.0,0.0,0.0,0.0,0.0,0.0,0.0,0.0,0.0,0.0,0.0,0.0,0.0,0.0,0.0,0.0,0.0,0.0,0.0,0.0,0.0,0.0,0.0,0.0,0.0,0.0,0.0,0.0,0.0,0.0,0.0,0.0,0.0,0.0,0.0,0.0,0.0,0.0,0.0,0.0,0.0,0.0,0.0,0.0,0.0,0.0,0.0,0.0,0.0,0.0,0.0,0.0,0.0,0.0,0.0,0.0,0.0,0.0,0.0,0.0,0.0,0.0,0.0,0.0,0.0,0.0,0.0,0.0,0.0,0.0,0.0,0.0,0.0,0.0,0.0,0.0,0.0,0.0,0.0,0.0,0.0,0.0,0.0,0.0,0.0,0.0,0.0,0.0,0.0,0.0,0.0,0.0,0.0,0.0,0.0,0.0,0.0,0.0,0.0,0.0,0.0,0.0,0.0,0.0,0.0,0.0,0.0,0.0,0.0,0.0,0.0,0.0,0.0,0.0,0.0,0.0,0.0,0.0,0.0,0.0,0.0,0.0,0.0,0.0,0.0,0.0,0.0,0.0,0.0,0.0,0.0,0.0,0.0,0.0,0.0,0.0,0.0,0.0,0.0,0.0,0.0,0.0,0.0,0.0,0.0,0.0,0.0,0.0,0.0,0.0,0.0,0.0,0.0,0.0,0.0,0.0,0.0,0.0,0.0,0.0,0.0,0.0,0.0,0.0,0.0,0.0,0.0,0.0,0.0,0.0,0.0,0.0,0.0,0.0,0.0,0.0,0.0,0.0,0.0,0.0,0.0,0.0,0.0,0.0,0.0,0.0,0.0,0.0,0.0,0.0,0.0,0.0,0.0,0.0,0.0,0.0,0.0,0.0,0.0,0.0,0.0,0.0,0.0,0.0,0.0,0.0,0.0,0.0,0.0,0.0,0.0,0.0,0.0,0.0,0.0,0.0,0.0,0.0,0.0,0.0,0.0,0.0,0.0,0.0,0.0,0.0,0.0,0.0,0.0,0.0,0.0,0.0,0.0,0.0,0.0,0.0,0.0,0.0,0.0,0.0,0.0,0.0,0.0,0.0,0.0,0.0,0.0,0.0,0.0,0.0,0.0,0.0,0.0,0.0,0.0,0.0,0.0,0.0,0.0,0.0,0.0,0.0,0.0,0.0,0.0,0.0,0.0,0.0,0.0,0.0,0.0,0.0,0.0,0.0,0.0,0.0,0.0,0.0,0.0,0.0,0.0,0.0,0.0,0.0,0.0,0.0,0.0,0.0,0.0,0.0,0.0,0.0,0.0,0.0,0.0,0.0,0.0,0.0,0.0,0.0,0.0,0.0,0.0,0.0,0.0,0.0,0.0,0.0,0.0,0.0,0.0,0.0,0.0,0.0,0.0,0.0,0.0,0.0,0.0,0.0,0.0,0.0,0.0,0.0,0.0,0.0,0.0,0.0,0.0,0.0,0.0,0.0,0.0,0.0,0.0,0.0,0.0,0.0,0.0,0.0,0.0,0.0,0.0,0.0,0.0,0.0,0.0,0.0,0.0,0.0,0.0,0.0,0.0,0.0,0.0,0.0,0.0,0.0,0.0,0.0,0.0,0.0,0.0,0.0,0.0,0.0,0.0,0.0,0.0,0.0,0.0,0.0,0.0,0.0,0.0,0.0,0.0,0.0,0.0,0.0,0.0,0.0,0.0,0.0,0.0,0.0,0.0,0.0,0.0,0.0,0.0,0.0,0.0,0.0,0.0,0.0,0.0,0.0,0.0,0.0,0.0,0.0,0.0,0.0,0.0,0.0,0.0,0.0,0.0,0.0,0.0,0.0,0.0,0.0,0.0,0.0,0.0,0.0,0.0,0.0,0.0,0.0,0.0,0.0,0.0,0.0,0.0,0.0,0.0,0.0,0.0,0.0,0.0,0.0,0.0,0.0,0.0,0.0,0.0,0.0,0.0,0.0,0.0,0.0,0.0,0.0,0.0,0.0,0.0,0.0,0.0,0.0,0.0,0.0,0.0,0.0,0.0,0.0,0.0,0.0,0.0,0.0,0.0,0.0,0.0,0.0,0.0,0.0,-6.4444,0.0,0.0,0.0,0.0,0.0,0.0,0.0,0.0,0.0,0.0,0.0,0.0,0.0,0.0,0.0,0.0,0.0,0.0,0.0,0.0,0.0,0.0,0.0,0.0,0.0,0.0,0.0,0.0,0.0,0.0,0.0,0.0,0.0,0.0,0.0,0.0,0.0,0.0,0.0,0.0,0.0,0.0,0.0,0.0,0.0,0.0,0.0,0.0,0.0,0.0,0.0,0.0,0.0,0.0,0.0,0.0,0.0,0.0,0.0,0.0,0.0,0.0,0.0,0.0,0.0,0.0,0.0,0.0,0.0,0.0,0.0,0.0,0.0,0.0,0.0,0.0,0.0,0.0,0.0,0.0,0.0,0.0,0.0,0.0,0.0,0.0,0.0,0.0,0.0,0.0,0.0,0.0,0.0,0.0,0.0,0.0,0.0,0.0,0.0,0.0,0.0,0.0,0.0,0.0,0.0,0.0,0.0,0.0,0.0,0.0,-6.6068,-6.6779,-6.5764,-6.5189,-6.5155,0.0,0.0,0.0,0.0,0.0,0.0,0.0,0.0,0.0,0.0,0.0,0.0,0.0,0.0,0.0,0.0,0.0,0.0,0.0,0.0,0.0,0.0,0.0,0.0,0.0,0.0,0.0,0.0,0.0,0.0,0.0,0.0,0.0,0.0,0.0,0.0,0.0,0.0,0.0,0.0,0.0,0.0,0.0,0.0,0.0,0.0,0.0,0.0,0.0,0.0,0.0,0.0,0.0,0.0,0.0,0.0,0.0,0.0,0.0,0.0,0.0,0.0,0.0,0.0,0.0,0.0,0.0,0.0,0.0,0.0,0.0,0.0,0.0,0.0,0.0,0.0,0.0,0.0,0.0,0.0,0.0,0.0,0.0,0.0,0.0,0.0,0.0,0.0,0.0,0.0,0.0,0.0,0.0,0.0,0.0,0.0,0.0,0.0,0.0,0.0,0.0,0.0,0.0,0.0,0.0,0.0,0.0,0.0,0.0,0.0,0.0,0.0,-6.6068,-6.5527,-6.5189,0.0,0.0,0.0,0.0,0.0,0.0,0.0,0.0,0.0,0.0,0.0,0.0,0.0,0.0,0.0,0.0,0.0,0.0,0.0,0.0,0.0,0.0,0.0,0.0,0.0,0.0,0.0,0.0,0.0,0.0,0.0,0.0,0.0,0.0,0.0,0.0,0.0,0.0,0.0,0.0,0.0,0.0,0.0,0.0,0.0,0.0,0.0,0.0,0.0,0.0,0.0,0.0,0.0,0.0,0.0,0.0,0.0,0.0,0.0,0.0,0.0,0.0,0.0,0.0,0.0,0.0,0.0,0.0,0.0,0.0,0.0,0.0,0.0,0.0,0.0,0.0,0.0,0.0,0.0,0.0,0.0,0.0,0.0,0.0,0.0,0.0,0.0,0.0,0.0,0.0,0.0,0.0,0.0,0.0,0.0,0.0,0.0,0.0,0.0,0.0,0.0,0.0,0.0,0.0,0.0,0.0,0.0,0.0,0.0,0.0,-6.6068,-6.6779,-6.6068,0.0,-6.3835,0.0,0.0,0.0,0.0,0.0,0.0,0.0,0.0,0.0,0.0,0.0,0.0,0.0,0.0,0.0,0.0,0.0,0.0,0.0,0.0,0.0,0.0,0.0,0.0,0.0,0.0,0.0,0.0,0.0,0.0,0.0,0.0,0.0,0.0,0.0,0.0,0.0,0.0,0.0,0.0,0.0,0.0,0.0,0.0,0.0,0.0,0.0,0.0,0.0,0.0,0.0,0.0,0.0,0.0,0.0,0.0,0.0,0.0,0.0,0.0,0.0,0.0,0.0,0.0,0.0,0.0,0.0,0.0,0.0,0.0,0.0,0.0,0.0,0.0,0.0,0.0,0.0,0.0,0.0,0.0,0.0,0.0,0.0,0.0,0.0,0.0,0.0,0.0,0.0,0.0,0.0,0.0,0.0,0.0,0.0,0.0,0.0,0.0,0.0,0.0,0.0,0.0,0.0,0.0,0.0,0.0,0.0,0.0,0.0,0.0,-6.6034,-6.6812,-6.6102,-6.5222,0.0,0.0,0.0,0.0,0.0,0.0,0.0,0.0,0.0,0.0,0.0,0.0,0.0,0.0,0.0,0.0,0.0,0.0,0.0,0.0,0.0,0.0,0.0,0.0,0.0,0.0,0.0,0.0,0.0,0.0,0.0,0.0,0.0,0.0,0.0,0.0,0.0,0.0,0.0,0.0,0.0,0.0,0.0,0.0,0.0,0.0,0.0,0.0,0.0,0.0,0.0,0.0,0.0,0.0,0.0,0.0,0.0,0.0,0.0,0.0,0.0,0.0,0.0,0.0,0.0,0.0,0.0,0.0,0.0,0.0,0.0,0.0,0.0,0.0,0.0,0.0,0.0,0.0,0.0,0.0,0.0,0.0,0.0,0.0,0.0,0.0,0.0,0.0,0.0,0.0,0.0,0.0,0.0,0.0,0.0,0.0,0.0,0.0,0.0,0.0,0.0,0.0,0.0,0.0,0.0,0.0,0.0,0.0,0.0,0.0,-6.617,-6.6271,-6.6745,-6.6068,-6.5358,-6.4613,0.0,0.0,0.0,0.0,0.0,0.0,0.0,0.0,0.0,0.0,0.0,0.0,0.0,0.0,0.0,0.0,0.0,0.0,0.0,0.0,0.0,0.0,0.0,0.0,0.0,0.0,0.0,0.0,0.0,0.0,0.0,0.0,0.0,0.0,0.0,0.0,0.0,0.0,0.0,0.0,0.0,0.0,0.0,0.0,0.0,0.0,0.0,0.0,0.0,0.0,0.0,0.0,0.0,0.0,0.0,0.0,0.0,0.0,0.0,0.0,0.0,0.0,0.0,0.0,0.0,0.0,0.0,0.0,0.0,0.0,0.0,0.0,0.0,0.0,0.0,0.0,0.0,0.0,0.0,0.0,0.0,0.0,0.0,0.0,0.0,0.0,0.0,0.0,0.0,0.0,0.0,0.0,0.0,0.0,0.0,0.0,0.0,0.0,0.0,0.0,0.0,0.0,0.0,0.0,0.0,0.0,0.0,0.0,-6.5764,-6.6373,-6.6745,-6.6745,-6.6068,-6.5358,0.0,0.0,0.0,0.0,0.0,0.0,0.0,0.0,0.0,0.0,0.0,0.0,0.0,0.0,0.0,0.0,0.0,0.0,0.0,0.0,0.0,0.0,0.0,0.0,0.0,0.0,0.0,0.0,0.0,0.0,0.0,0.0,0.0,0.0,0.0,0.0,0.0,0.0,0.0,0.0,0.0,0.0,0.0,0.0,0.0,0.0,0.0,0.0,0.0,0.0,0.0,0.0,0.0,0.0,0.0,0.0,0.0,0.0,0.0,0.0,0.0,0.0,0.0,0.0,0.0,0.0,0.0,0.0,0.0,0.0,0.0,0.0,0.0,0.0,0.0,0.0,0.0,0.0,0.0,0.0,0.0,0.0,0.0,0.0,0.0,0.0,0.0,0.0,0.0,0.0,0.0,0.0,0.0,0.0,0.0,0.0,0.0,0.0,0.0,0.0,0.0,0.0,0.0,0.0,0.0,0.0,0.0,0.0,0.0,-6.5019,-6.5256,-6.5392,-6.5392,-6.4681,-6.3937,0.0,0.0,0.0,0.0,0.0,0.0,0.0,0.0,0.0,0.0,0.0,0.0,0.0,0.0,0.0,0.0,0.0,0.0,0.0,0.0,0.0,0.0,0.0,0.0,0.0,0.0,0.0,0.0,0.0,0.0,0.0,0.0,0.0,0.0,0.0,0.0,0.0,0.0,0.0,0.0,0.0,0.0,0.0,0.0,0.0,0.0,0.0,0.0,0.0,0.0,0.0,0.0,0.0,0.0,0.0,0.0,0.0,0.0,0.0,0.0,0.0,0.0,0.0,0.0,0.0,0.0,0.0,0.0,0.0,0.0,0.0,0.0,0.0,0.0,0.0,0.0,0.0,0.0,0.0,0.0,0.0,0.0,0.0,0.0,0.0,0.0,0.0,0.0,0.0,0.0,0.0,0.0,0.0,0.0,0.0,0.0,0.0,0.0,0.0,0.0,0.0,0.0,0.0,0.0,0.0,0.0,0.0,0.0,0.0,-6.4613,0.0,-6.4377,-6.458,-6.3903,-6.3159,0.0,0.0,0.0,0.0,0.0,0.0,0.0,0.0,0.0,0.0,0.0,0.0,0.0,0.0,0.0,0.0,0.0,0.0,0.0,0.0,0.0,0.0,0.0,0.0,0.0,0.0,0.0,0.0,0.0,0.0,0.0,0.0,0.0,0.0,0.0,0.0,0.0,0.0,0.0,0.0,0.0,0.0,0.0,0.0,0.0,0.0,0.0,0.0,0.0,0.0,0.0,0.0,0.0,0.0,0.0,0.0,0.0,0.0,0.0,0.0,0.0,0.0,0.0,0.0,0.0,0.0,0.0,0.0,0.0,0.0,0.0,0.0,0.0,0.0,0.0,0.0,0.0,0.0,0.0,0.0,0.0,0.0,0.0,0.0,0.0,0.0,0.0,0.0,0.0,0.0,0.0,0.0,0.0,0.0,0.0,0.0,0.0,0.0,0.0,0.0,0.0,0.0,0.0,0.0,0.0,0.0,0.0,0.0,-6.4546,-6.4546,-6.3869,-6.3802,-6.4512,-6.3835,-6.3125,0.0,0.0,0.0,0.0,0.0,0.0,0.0,0.0,0.0,0.0,0.0,0.0,0.0,0.0,0.0,0.0,0.0,0.0,0.0,0.0,0.0,0.0,0.0,0.0,0.0,0.0,0.0,0.0,0.0,0.0,0.0,0.0,0.0,0.0,0.0,0.0,0.0,0.0,0.0,0.0,0.0,0.0,0.0,0.0,0.0,0.0,0.0,0.0,0.0,0.0,0.0,0.0,0.0,0.0,0.0,0.0,0.0,0.0,0.0,0.0,0.0,0.0,0.0,0.0,0.0,0.0,0.0,0.0,0.0,0.0,0.0,0.0,0.0,0.0,0.0,0.0,0.0,0.0,0.0,0.0,0.0,0.0,0.0,0.0,0.0,0.0,0.0,0.0,0.0,0.0,0.0,0.0,0.0,0.0,0.0,0.0,0.0,0.0,0.0,0.0,0.0,0.0,0.0,0.0,0.0,0.0,0.0,0.0,0.0,-6.3057,-6.2854,-6.2854,-6.3057,-6.2854,-6.2381,0.0,0.0,0.0,0.0,0.0,0.0,0.0,0.0,0.0,0.0,0.0,0.0,0.0,0.0,0.0,0.0,0.0,0.0,0.0,0.0,0.0,0.0,0.0,0.0,0.0,0.0,0.0,0.0,0.0,0.0,0.0,0.0,0.0,0.0,0.0,0.0,0.0,0.0,0.0,0.0,0.0,0.0,0.0,0.0,0.0,0.0,0.0,0.0,0.0,0.0,0.0,0.0,0.0,0.0,0.0,0.0,0.0,0.0,0.0,0.0,0.0,0.0,0.0,0.0,0.0,0.0,0.0,0.0,0.0,0.0,0.0,0.0,0.0,0.0,0.0,0.0,0.0,0.0,0.0,0.0,0.0,0.0,0.0,0.0,0.0,0.0,0.0,0.0,0.0,0.0,0.0,0.0,0.0,0.0,0.0,0.0,0.0,0.0,0.0,0.0,0.0,0.0,0.0,0.0,0.0,0.0,0.0,0.0,0.0,-6.2787,-6.2516,-6.2415,-6.2415,-6.2415,-6.2042,-6.1366,0.0,0.0,0.0,0.0,0.0,0.0,0.0,0.0,0.0,0.0,0.0,0.0,0.0,0.0,0.0,0.0,0.0,0.0,0.0,0.0,0.0,0.0,0.0,0.0,0.0,0.0,0.0,0.0,0.0,0.0,0.0,0.0,0.0,0.0,0.0,0.0,0.0,0.0,0.0,0.0,0.0,0.0,0.0,0.0,0.0,0.0,0.0,0.0,0.0,0.0,0.0,0.0,0.0,0.0,0.0,0.0,0.0,0.0,0.0,0.0,0.0,0.0,0.0,0.0,0.0,0.0,0.0,0.0,0.0,0.0,0.0,0.0,0.0,0.0,0.0,0.0,0.0,0.0,0.0,0.0,0.0,0.0,0.0,0.0,0.0,0.0,0.0,0.0,0.0,0.0,0.0,0.0,0.0,0.0,0.0,0.0,0.0,0.0,0.0,0.0,0.0,0.0,0.0,0.0,0.0,0.0,0.0,0.0,-6.3497,-6.2854,-6.2516,-6.2482,-6.2482,-6.211,0.0,0.0,0.0,0.0,0.0,0.0,0.0,0.0,0.0,0.0,0.0,0.0,0.0,0.0,0.0,0.0,0.0,0.0,0.0,0.0,0.0,0.0,0.0,0.0,0.0,0.0,0.0,0.0,0.0,0.0,0.0,0.0,0.0,0.0,0.0,0.0,0.0,0.0,0.0,0.0,0.0,0.0,0.0,0.0,0.0,0.0,0.0,0.0,0.0,0.0,0.0,0.0,0.0,0.0,0.0,0.0,0.0,0.0,0.0,0.0,0.0,0.0,0.0,0.0,0.0,0.0,0.0,0.0,0.0,0.0,0.0,0.0,0.0,0.0,0.0,0.0,0.0,0.0,0.0,0.0,0.0,0.0,0.0,0.0,0.0,0.0,0.0,0.0,0.0,0.0,0.0,0.0,0.0,0.0,0.0,0.0,0.0,0.0,0.0,0.0,0.0,0.0,0.0,0.0,0.0,0.0,0.0,0.0,0.0,-6.3531,-6.3869,-6.3768,-6.326,-6.3226,-6.2854,0.0,0.0,0.0,0.0,0.0,0.0,0.0,0.0,0.0,0.0,0.0,0.0,0.0,0.0,0.0,0.0,0.0,0.0,0.0,0.0,0.0,0.0,0.0,0.0,0.0,0.0,0.0,0.0,0.0,0.0,0.0,0.0,0.0,0.0,0.0,0.0,0.0,0.0,0.0,0.0,0.0,0.0,0.0,0.0,0.0,0.0,0.0,0.0,0.0,0.0,0.0,0.0,0.0,0.0,0.0,0.0,0.0,0.0,0.0,0.0,0.0,0.0,0.0,0.0,0.0,0.0,0.0,0.0,0.0,0.0,0.0,0.0,0.0,0.0,0.0,0.0,0.0,0.0,0.0,0.0,0.0,0.0,0.0,0.0,0.0,0.0,0.0,0.0,0.0,0.0,0.0,0.0,0.0,0.0,0.0,0.0,0.0,0.0,0.0,0.0,0.0,0.0,0.0,0.0,0.0,0.0,0.0,0.0,-6.3666,-6.3971,-6.4681,-6.485,-6.4444,-6.414,-6.3632,0.0,0.0,0.0,0.0,0.0,0.0,0.0,0.0,0.0,0.0,0.0,0.0,0.0,0.0,0.0,0.0,0.0,0.0,0.0,0.0,0.0,0.0,0.0,0.0,0.0,0.0,0.0,0.0,0.0,0.0,0.0,0.0,0.0,0.0,0.0,0.0,0.0,0.0,0.0,0.0,0.0,0.0,0.0,0.0,0.0,0.0,0.0,0.0,0.0,0.0,0.0,0.0,0.0,0.0,0.0,0.0,0.0,0.0,0.0,0.0,0.0,0.0,0.0,0.0,0.0,0.0,0.0,0.0,0.0,0.0,0.0,0.0,0.0,0.0,0.0,0.0,0.0,0.0,0.0,0.0,0.0,0.0,0.0,0.0,0.0,0.0,0.0,0.0,0.0,0.0,0.0,0.0,0.0,0.0,0.0,0.0,0.0,0.0,0.0,0.0,0.0,0.0,0.0,0.0,0.0,0.0,0.0,0.0,-6.3971,-6.458,-6.5392,-6.5797,-6.5797,-6.5019,-6.4275,0.0,0.0,0.0,0.0,0.0,0.0,0.0,0.0,0.0,0.0,0.0,0.0,0.0,0.0,0.0,0.0,0.0,0.0,0.0,0.0,0.0,0.0,0.0,0.0,0.0,0.0,0.0,0.0,0.0,0.0,0.0,0.0,0.0,0.0,0.0,0.0,0.0,0.0,0.0,0.0,0.0,0.0,0.0,0.0,0.0,0.0,0.0,0.0,0.0,0.0,0.0,0.0,0.0,0.0,0.0,0.0,0.0,0.0,0.0,0.0,0.0,0.0,0.0,0.0,0.0,0.0,0.0,0.0,0.0,0.0,0.0,0.0,0.0,0.0,0.0,0.0,0.0,0.0,0.0,0.0,0.0,0.0,0.0,0.0,0.0,0.0,0.0,0.0,0.0,0.0,0.0,0.0,0.0,0.0,0.0,0.0,0.0,0.0,0.0,0.0,0.0,0.0,0.0,0.0,0.0,0.0,0.0,0.0,-6.4444,-6.4613,-6.5899,-6.6576,-6.6576,-6.529,-6.4275,0.0,0.0,0.0,0.0,0.0,0.0,0.0,0.0,0.0,0.0,0.0,0.0,0.0,0.0,0.0,0.0,0.0,0.0,0.0,0.0,0.0,0.0,0.0,0.0,0.0,0.0,0.0,0.0,0.0,0.0,0.0,0.0,0.0,0.0,0.0,0.0,0.0,0.0,0.0,0.0,0.0,0.0,0.0,0.0,0.0,0.0,0.0,0.0,-6.2415,0.0,0.0,0.0,0.0,0.0,0.0,0.0,0.0,0.0,0.0,0.0,0.0,0.0,0.0,0.0,0.0,0.0,0.0,0.0,0.0,0.0,0.0,0.0,0.0,0.0,0.0,0.0,0.0,0.0,0.0,0.0,0.0,0.0,0.0,0.0,0.0,0.0,0.0,0.0,0.0,0.0,0.0,0.0,0.0,0.0,0.0,0.0,0.0,0.0,0.0,0.0,0.0,0.0,0.0,0.0,0.0,0.0,0.0,0.0,-6.4241,-6.4613,-6.5696,-6.644,-6.6745,-6.5392,-6.441,0.0,0.0,0.0,0.0,0.0,0.0,0.0,0.0,0.0,0.0,0.0,0.0,0.0,0.0,0.0,0.0,0.0,0.0,0.0,0.0,0.0,0.0,0.0,0.0,0.0,0.0,0.0,0.0,0.0,0.0,0.0,0.0,0.0,0.0,0.0,0.0,0.0,0.0,0.0,0.0,0.0,0.0,0.0,0.0,0.0,0.0,0.0,0.0,0.0,0.0,0.0,0.0,0.0,0.0,0.0,0.0,0.0,0.0,0.0,0.0,0.0,0.0,0.0,0.0,0.0,0.0,0.0,0.0,0.0,0.0,0.0,0.0,0.0,0.0,0.0,0.0,0.0,0.0,0.0,0.0,0.0,0.0,0.0,0.0,0.0,0.0,0.0,0.0,0.0,0.0,0.0,0.0,0.0,0.0,0.0,0.0,0.0,0.0,0.0,0.0,0.0,0.0,0.0,0.0,0.0,0.0,0.0,-6.2313,-6.3768,-6.458,-6.5324,-6.6034,-6.6745,-6.5392,-6.4613,-6.458,0.0,0.0,0.0,0.0,0.0,0.0,0.0,0.0,0.0,0.0,0.0,0.0,0.0,0.0,0.0,0.0,0.0,0.0,0.0,0.0,0.0,0.0,0.0,0.0,0.0,0.0,0.0,0.0,0.0,0.0,0.0,0.0,0.0,0.0,0.0,0.0,0.0,0.0,-6.2651,-6.2651,0.0,0.0,0.0,0.0,0.0,0.0,0.0,0.0,-6.2415,0.0,0.0,0.0,0.0,0.0,0.0,0.0,0.0,0.0,0.0,0.0,0.0,0.0,0.0,0.0,0.0,0.0,0.0,0.0,0.0,0.0,0.0,0.0,0.0,0.0,0.0,0.0,0.0,0.0,0.0,0.0,0.0,0.0,0.0,0.0,0.0,0.0,0.0,0.0,0.0,0.0,0.0,0.0,0.0,0.0,0.0,0.0,0.0,0.0,0.0,0.0,0.0,0.0,0.0,0.0,0.0,-6.1095,-6.2076,-6.3226,-6.458,-6.5324,-6.6034,-6.6745,-6.5392,-6.4613,-6.4546,0.0,0.0,0.0,0.0,0.0,0.0,0.0,0.0,0.0,0.0,0.0,0.0,0.0,0.0,0.0,0.0,0.0,0.0,0.0,0.0,0.0,0.0,0.0,0.0,0.0,0.0,0.0,0.0,0.0,0.0,0.0,0.0,0.0,0.0,0.0,0.0,0.0,0.0,0.0,-6.3869,-6.4072,0.0,0.0,0.0,0.0,0.0,0.0,0.0,0.0,-6.2415,0.0,0.0,0.0,0.0,0.0,0.0,0.0,0.0,0.0,0.0,0.0,0.0,0.0,0.0,0.0,0.0,0.0,0.0,0.0,0.0,0.0,0.0,0.0,0.0,0.0,0.0,0.0,0.0,0.0,0.0,0.0,0.0,0.0,0.0,0.0,0.0,0.0,0.0,0.0,0.0,0.0,0.0,0.0,0.0,0.0,0.0,0.0,0.0,0.0,0.0,0.0,0.0,0.0,0.0,0.0,-6.0689,-6.1806,-6.2753,-6.3429,-6.4174,-6.4715,-6.5053,-6.4038,-6.3463,0.0,0.0,0.0,0.0,0.0,0.0,0.0,0.0,0.0,0.0,0.0,0.0,0.0,0.0,0.0,0.0,0.0,0.0,0.0,0.0,0.0,0.0,0.0,0.0,0.0,0.0,0.0,0.0,0.0,0.0,0.0,0.0,0.0,0.0,0.0,0.0,0.0,0.0,0.0,0.0,-6.4038,-6.4038,-6.4072,0.0,0.0,0.0,0.0,0.0,0.0,-6.1839,-6.167,0.0,0.0,0.0,0.0,0.0,0.0,0.0,0.0,0.0,0.0,0.0,0.0,0.0,0.0,0.0,0.0,0.0,0.0,0.0,0.0,0.0,0.0,0.0,0.0,0.0,0.0,0.0,0.0,0.0,0.0,0.0,0.0,0.0,0.0,0.0,0.0,0.0,0.0,0.0,0.0,0.0,0.0,0.0,0.0,0.0,0.0,0.0,0.0,0.0,0.0,0.0,0.0,0.0,0.0,0.0,-5.9911,-6.1095,-6.1941,-6.2381,-6.2956,-6.3429,-6.37,-6.3024,-6.255,0.0,0.0,0.0,0.0,0.0,0.0,0.0,0.0,0.0,0.0,0.0,0.0,0.0,0.0,0.0,0.0,0.0,0.0,0.0,0.0,0.0,0.0,0.0,0.0,0.0,0.0,0.0,0.0,0.0,0.0,0.0,0.0,0.0,0.0,0.0,0.0,0.0,0.0,0.0,0.0,0.0,-6.3903,-6.4309,-6.3869,0.0,0.0,0.0,0.0,-6.1603,-6.1535,0.0,0.0,0.0,0.0,0.0,0.0,0.0,0.0,0.0,0.0,0.0,0.0,0.0,0.0,0.0,0.0,0.0,0.0,0.0,0.0,0.0,0.0,0.0,0.0,0.0,0.0,0.0,0.0,0.0,0.0,0.0,0.0,0.0,0.0,0.0,0.0,0.0,0.0,0.0,0.0,0.0,0.0,0.0,0.0,0.0,0.0,0.0,0.0,0.0,0.0,0.0,0.0,0.0,0.0,0.0,0.0,-5.9099,-5.9302,-6.0385,-6.2279,-6.2482,-6.3125,-6.441,-6.3768,-6.3057,0.0,0.0,0.0,0.0,0.0,0.0,0.0,0.0,0.0,0.0,0.0,0.0,0.0,0.0,0.0,0.0,0.0,0.0,0.0,0.0,0.0,0.0,0.0,0.0,0.0,0.0,0.0,0.0,0.0,0.0,0.0,0.0,0.0,0.0,0.0,0.0,0.0,0.0,0.0,0.0,0.0,-6.4275,-6.3734,-6.3565,-6.326,0.0,0.0,-6.2381,-6.2279,-6.2279,0.0,0.0,0.0,0.0,0.0,0.0,0.0,0.0,0.0,0.0,0.0,0.0,0.0,0.0,0.0,0.0,0.0,0.0,0.0,0.0,0.0,0.0,0.0,0.0,0.0,0.0,0.0,0.0,0.0,0.0,0.0,0.0,0.0,0.0,0.0,0.0,0.0,0.0,0.0,0.0,0.0,0.0,0.0,0.0,0.0,0.0,0.0,0.0,0.0,0.0,0.0,0.0,0.0,0.0,0.0,-5.8693,-5.9032,-5.9438,-6.0114,-6.1061,-6.1535,-6.2076,-6.2719,-6.1975,-6.1434,0.0,0.0,0.0,0.0,0.0,0.0,0.0,0.0,0.0,0.0,0.0,0.0,0.0,0.0,0.0,0.0,0.0,0.0,0.0,0.0,0.0,0.0,0.0,0.0,0.0,0.0,0.0,0.0,0.0,0.0,0.0,0.0,0.0,0.0,0.0,0.0,0.0,0.0,0.0,0.0,0.0,0.0,-6.3525,-6.3491,0.0,0.0,0.0,-6.2753,-6.1907,0.0,0.0,0.0,0.0,0.0,0.0,0.0,0.0,0.0,0.0,0.0,0.0,0.0,0.0,0.0,0.0,0.0,0.0,0.0,0.0,0.0,0.0,0.0,0.0,0.0,0.0,0.0,0.0,0.0,0.0,0.0,0.0,0.0,0.0,0.0,0.0,0.0,0.0,0.0,0.0,0.0,0.0,0.0,0.0,0.0,0.0,0.0,0.0,0.0,0.0,0.0,0.0,0.0,0.0,0.0,0.0,0.0,-5.8727,-5.9268,-5.9641,-5.9844,-6.0622,-6.0994,-6.0994,-6.0622,0.0,0.0,0.0,0.0,0.0,0.0,0.0,0.0,0.0,0.0,0.0,0.0,0.0,0.0,0.0,0.0,0.0,0.0,0.0,0.0,0.0,0.0,0.0,0.0,0.0,0.0,0.0,-5.1409,0.0,0.0,0.0,0.0,0.0,0.0,0.0,0.0,0.0,0.0,0.0,0.0,0.0,0.0,-6.3491,-6.3491,-6.3491,-6.3328,0.0,0.0,-6.2854,-6.1738,-6.1569,-6.1129,0.0,0.0,0.0,0.0,0.0,0.0,0.0,0.0,0.0,0.0,0.0,0.0,0.0,0.0,0.0,0.0,0.0,0.0,0.0,0.0,0.0,0.0,0.0,0.0,0.0,0.0,0.0,0.0,0.0,0.0,0.0,0.0,0.0,0.0,0.0,0.0,0.0,0.0,0.0,0.0,0.0,0.0,0.0,0.0,0.0,0.0,0.0,0.0,0.0,0.0,0.0,0.0,0.0,0.0,0.0,-5.7983,-5.8017,-5.8389,-5.9066,-5.9776,-6.0182,-6.0182,-6.0858,-6.052,0.0,0.0,0.0,0.0,0.0,0.0,0.0,0.0,0.0,0.0,0.0,0.0,0.0,0.0,0.0,0.0,0.0,0.0,0.0,0.0,0.0,0.0,0.0,0.0,0.0,0.0,0.0,0.0,0.0,0.0,0.0,0.0,0.0,0.0,0.0,0.0,0.0,0.0,0.0,0.0,0.0,-6.3491,-6.3491,-6.3491,-6.3457,0.0,0.0,-6.2415,-6.2313,-6.2313,-6.2042,-6.1264,0.0,0.0,0.0,0.0,0.0,0.0,0.0,0.0,0.0,0.0,0.0,0.0,0.0,0.0,0.0,0.0,0.0,0.0,0.0,0.0,0.0,0.0,0.0,0.0,0.0,0.0,0.0,0.0,0.0,0.0,0.0,0.0,0.0,0.0,0.0,0.0,0.0,0.0,0.0,0.0,0.0,0.0,0.0,0.0,0.0,0.0,0.0,0.0,0.0,0.0,0.0,0.0,0.0,-5.7881,-5.7881,-5.7881,-5.8254,-5.8961,-5.9302,-5.9641,-6.008,-5.9979,-5.9607,0.0,0.0,0.0,0.0,0.0,0.0,0.0,0.0,0.0,0.0,0.0,0.0,0.0,0.0,0.0,0.0,0.0,0.0,0.0,0.0,0.0,0.0,0.0,0.0,0.0,0.0,0.0,0.0,-5.2067,-5.2352,-5.3711,0.0,0.0,0.0,0.0,0.0,0.0,0.0,0.0,0.0,0.0,-6.3491,-6.3491,-6.3491,0.0,0.0,-6.326,-6.2922,-6.2448,-6.2415,-6.2144,-6.1434,-6.0622,0.0,0.0,0.0,0.0,0.0,0.0,0.0,0.0,0.0,0.0,0.0,0.0,0.0,0.0,0.0,0.0,0.0,0.0,0.0,0.0,0.0,0.0,0.0,0.0,0.0,0.0,0.0,0.0,0.0,0.0,0.0,0.0,0.0,0.0,0.0,0.0,0.0,0.0,0.0,0.0,0.0,0.0,0.0,0.0,0.0,0.0,0.0,0.0,0.0,0.0,0.0,0.0,-5.7881,-5.7881,-5.7881,-5.8152,-5.866,-5.8896,-5.9133,-5.9404,-5.9167,-5.8896,0.0,0.0,0.0,0.0,0.0,0.0,0.0,0.0,0.0,0.0,0.0,0.0,0.0,0.0,0.0,0.0,0.0,0.0,0.0,0.0,0.0,0.0,0.0,0.0,0.0,0.0,0.0,0.0,-5.2489,-5.3039,-5.4656,0.0,0.0,0.0,0.0,0.0,0.0,0.0,0.0,0.0,0.0,-6.3491,-6.3491,-6.3491,-6.3491,-6.3491,-6.3328,-6.2922,-6.2178,-6.2245,-6.2144,-6.14,0.0,0.0,0.0,0.0,0.0,0.0,0.0,0.0,0.0,0.0,0.0,0.0,0.0,0.0,0.0,0.0,0.0,0.0,0.0,0.0,0.0,0.0,0.0,0.0,0.0,0.0,0.0,0.0,0.0,0.0,-5.9028,0.0,0.0,0.0,0.0,0.0,0.0,0.0,0.0,0.0,0.0,0.0,0.0,0.0,0.0,0.0,0.0,0.0,0.0,0.0,0.0,0.0,0.0,-5.7881,-5.7881,-5.7881,-5.7881,-5.7949,-5.8626,-5.866,-5.8017,-5.8626,-5.866,-5.7949,0.0,0.0,0.0,0.0,0.0,0.0,0.0,0.0,0.0,0.0,0.0,0.0,0.0,0.0,0.0,0.0,0.0,0.0,0.0,0.0,0.0,0.0,0.0,0.0,0.0,0.0,-5.1289,-5.223,-5.3328,0.0,0.0,0.0,0.0,0.0,0.0,0.0,0.0,0.0,0.0,-6.255,-6.3491,-6.3491,-6.3491,-6.3491,-6.3491,-6.2888,-6.2178,-6.1467,-6.1941,-6.2144,0.0,0.0,0.0,0.0,0.0,0.0,0.0,0.0,0.0,0.0,0.0,0.0,0.0,0.0,0.0,0.0,0.0,0.0,0.0,0.0,0.0,0.0,0.0,0.0,0.0,0.0,0.0,-6.1298,-6.0148,0.0,0.0,0.0,0.0,0.0,0.0,0.0,0.0,0.0,0.0,0.0,-5.8321,-5.9302,0.0,0.0,0.0,0.0,0.0,0.0,0.0,0.0,0.0,0.0,0.0,0.0,-5.7881,-5.7881,-5.7881,-5.7881,-5.7881,-5.8152,-5.8152,-5.7881,-5.8152,-5.8152,-5.7881,0.0,0.0,0.0,0.0,0.0,0.0,0.0,0.0,0.0,0.0,0.0,0.0,0.0,0.0,0.0,0.0,0.0,0.0,0.0,0.0,0.0,0.0,0.0,0.0,0.0,-5.1708,0.0,0.0,0.0,0.0,0.0,0.0,0.0,0.0,0.0,0.0,0.0,-6.0994,-6.1264,-6.2584,-6.3491,-6.3491,-6.3491,-6.3491,0.0,0.0,0.0,0.0,0.0,0.0,0.0,0.0,0.0,0.0,0.0,0.0,0.0,0.0,-6.1298,-6.0283,-6.008,-6.008,-6.008,0.0,0.0,0.0,0.0,0.0,0.0,0.0,0.0,0.0,0.0,0.0,0.0,0.0,0.0,-6.1298,0.0,-6.008,0.0,0.0,0.0,0.0,0.0,0.0,0.0,0.0,-6.0588,-6.0216,-5.8355,-5.9505,-5.9302,0.0,-5.7881,-5.7881,0.0,0.0,0.0,0.0,0.0,0.0,0.0,0.0,-5.7881,-5.7881,-5.7881,-5.7881,-5.7881,-5.7881,-5.7881,-5.7881,-5.7881,-5.7881,-5.7881,-5.7881,-5.7881,0.0,0.0,0.0,0.0,0.0,0.0,0.0,0.0,0.0,0.0,0.0,0.0,0.0,0.0,0.0,0.0,0.0,0.0,0.0,0.0,0.0,0.0,0.0,-5.2274,0.0,0.0,0.0,0.0,0.0,0.0,0.0,0.0,0.0,-5.9776,-6.0689,-6.14,-6.167,-6.2516,-6.3125,-6.3125,0.0,0.0,0.0,0.0,0.0,0.0,0.0,-6.2618,-6.2076,-6.2212,-6.2415,-6.2415,-6.2415,-6.2415,-6.2415,0.0,0.0,-6.1061,-6.0892,-6.0892,-6.0892,-6.0892,-6.0892,-6.0892,-6.0926,-6.0892,0.0,0.0,0.0,0.0,0.0,0.0,0.0,0.0,-6.1366,-6.0892,0.0,-6.008,0.0,0.0,0.0,0.0,0.0,-5.8693,0.0,0.0,-6.0588,-6.0452,-5.9066,-5.9708,-5.9302,-5.7949,-5.7881,-5.7881,-5.7881,-5.7881,0.0,0.0,0.0,0.0,0.0,0.0,-5.7881,-5.7881,-5.7881,-5.7881,-5.7881,-5.7881,-5.7881,-5.7881,-5.7881,-5.7881,-5.7881,-5.7881,-5.7881,-5.7881,-5.7881,0.0,0.0,0.0,0.0,0.0,0.0,0.0,0.0,0.0,0.0,0.0,0.0,0.0,0.0,0.0,0.0,0.0,0.0,0.0,0.0,-5.2169,0.0,0.0,0.0,0.0,0.0,0.0,0.0,0.0,0.0,0.0,-6.1197,-6.1332,-6.1603,-6.2279,0.0,0.0,0.0,0.0,-6.2415,-6.2448,-6.3057,-6.3024,-6.1637,-6.2584,-6.3024,-6.1603,0.0,0.0,-6.2415,-6.2415,-6.2415,-6.2415,-6.2415,-6.2415,-6.2381,-6.2313,-6.2313,-6.2347,-6.2279,-6.2381,-6.2381,-6.2245,-6.2279,-6.3972,0.0,0.0,0.0,0.0,-6.2415,-6.2279,-6.2076,-6.2076,-6.1332,-6.008,-6.008,0.0,0.0,0.0,0.0,0.0,0.0,-5.9302,-5.981,-6.025,-5.9641,-5.8254,-5.8964,-5.8829,-5.7915,-5.7881,-5.7881,-5.7881,-5.7881,-5.7881,-5.7881,0.0,0.0,0.0,0.0,-5.7881,-5.7881,-5.7881,-5.7881,-5.7881,-5.7881,-5.7881,-5.7881,-5.7881,-5.7881,-5.7881,-5.7881,-5.7881,-5.7881,-5.7881,0.0,0.0,0.0,0.0,0.0,0.0,0.0,0.0,0.0,0.0,0.0,0.0,0.0,0.0,0.0,0.0,0.0,0.0,0.0,-5.1229,-5.1526,-5.1862,0.0,0.0,0.0,0.0,0.0,0.0,0.0,0.0,0.0,-6.1907,-6.2076,-6.2144,0.0,0.0,-6.2415,-6.2415,-6.2415,-6.2584,-6.3125,-6.3362,0.0,0.0,-6.3226,-6.3193,-6.2212,-6.2245,-6.2415,-6.2415,-6.2415,-6.2415,-6.2415,-6.2415,-6.2415,-6.2415,-6.2415,-6.2415,-6.2415,-6.2415,-6.2415,-6.2415,-6.2415,-6.2415,-6.3972,-6.242,-6.2779,-6.2702,-6.2381,-6.2415,-6.2415,-6.2415,-6.2415,-6.1873,-6.0994,-6.0994,-6.0351,-5.9235,-5.8896,0.0,0.0,0.0,-5.9268,-5.9674,-5.9674,-5.9032,-5.7983,-5.866,-5.8626,-5.7915,-5.7881,-5.7881,-5.7881,-5.7881,-5.7881,-5.7881,0.0,0.0,-5.7881,-5.7881,-5.7881,-5.7881,-5.7881,-5.7881,-5.7881,-5.7881,-5.7881,-5.7881,-5.7881,-5.7881,-5.7881,-5.7881,-5.7881,-5.7881,-5.7881,-5.7881,0.0,0.0,0.0,0.0,0.0,0.0,0.0,0.0,0.0,0.0,0.0,-5.1425,0.0,0.0,0.0,0.0,-5.1468,-5.1618,-5.1588,-5.2252,0.0,0.0,0.0,0.0,0.0,0.0,0.0,-5.9498,-6.0216,-6.0926,-6.1839,-6.2212,-6.2415,-6.2415,-6.2415,-6.2415,-6.2415,0.0,-6.255,-6.3024,-6.3328,-6.3396,-6.3125,-6.3328,-6.326,-6.2516,-6.2415,-6.2415,-6.2415,-6.2415,-6.2415,-6.2415,-6.2415,-6.2415,-6.2415,-6.2415,-6.2415,-6.2415,-6.2415,-6.2415,-6.2415,-6.2415,-6.2415,-6.3937,-6.2542,-6.3277,-6.3124,-6.242,-6.2415,-6.2415,-6.2415,-6.2415,-6.2347,-6.2313,-6.2313,-6.1907,-6.1163,-6.0452,0.0,-6.008,-5.9336,-5.8998,-5.8998,-5.8927,-5.8558,-5.7949,-5.8592,-5.8558,-5.7881,-5.7881,-5.7881,-5.7881,-5.7881,-5.7881,-5.7881,-5.7881,-5.7881,-5.7881,-5.7881,-5.7881,-5.7881,-5.7881,-5.7881,-5.7881,-5.7881,-5.7881,-5.7881,-5.7881,-5.7881,-5.7881,-5.7881,-5.7881,-5.7881,-5.7881,-5.7881,-5.7881,0.0,0.0,0.0,0.0,0.0,0.0,0.0,0.0,0.0,0.0,0.0,0.0,0.0,0.0,0.0,-5.1887,0.0,-5.2217,-5.3725,0.0,0.0,0.0,-5.7069,-5.727,-5.8274,-5.8987,-5.9062,0.0,0.0,-6.14,0.0,-6.2415,-6.2415,-6.2415,-6.2415,-6.2415,-6.2415,-6.2415,-6.255,-6.3091,-6.326,-6.2753,-6.3057,-6.3125,-6.2516,-6.2415,-6.2415,-6.2415,-6.2415,-6.2415,-6.2415,-6.2415,-6.2415,-6.2415,-6.2415,-6.2415,-6.2415,-6.2415,-6.2415,-6.2415,-6.2415,-6.2415,-6.3757,-6.3351,-6.2893,-6.2581,-6.2415,-6.2415,-6.2415,-6.2415,-6.2415,-6.2076,-6.1569,-6.1569,-6.1129,-6.0385,-6.0182,-6.008,-6.0047,-5.9336,-5.8998,-5.8964,-5.8423,-5.8051,-5.7915,-5.8084,-5.8051,-5.7881,-5.7881,-5.7881,-5.7881,-5.7881,-5.7881,-5.7881,-5.7881,-5.7881,-5.7881,-5.7881,-5.7881,-5.7881,-5.7881,-5.7881,-5.7881,-5.7881,-5.7881,-5.7881,-5.7881,-5.7881,-5.7881,-5.7881,-5.7881,-5.7881,-5.7881,-5.7881,-5.7881,-5.7374,0.0,0.0,0.0,0.0,0.0,0.0,0.0,0.0,0.0,-5.3343,-5.1896,0.0,-5.2368,0.0,-5.2576,-5.2755,-5.2247,-5.3074,0.0,0.0,-5.5604,-5.6196,-5.783,-5.8389,-5.8931,-5.9768,-6.0723,-6.1535,-6.2076,-6.2279,-6.2415,-6.2415,-6.2415,-6.2415,-6.2415,-6.2415,-6.2584,-6.3091,-6.3362,-6.3463,-6.3226,-6.2888,-6.2618,-6.2415,-6.2415,-6.2415,-6.2415,-6.2415,-6.2415,-6.2415,-6.2415,-6.2415,-6.2415,-6.2415,-6.2415,-6.2415,-6.2415,-6.2415,-6.2415,-6.2415,-6.2415,-6.4007,-6.361,-6.274,-6.2415,-6.2415,-6.2415,-6.2415,-6.2415,-6.2415,-6.2178,-6.1772,-6.1806,-6.1535,-6.1095,-6.0791,-6.0655,-6.0554,-5.9505,-5.8998,-5.8964,-5.822,-5.7881,-5.7881,-5.7881,-5.7881,-5.7881,-5.7881,-5.7881,-5.7881,-5.7881,-5.7881,-5.7881,-5.7881,-5.7881,-5.7881,-5.7881,-5.7881,-5.7881,-5.7881,-5.7881,-5.7881,-5.7881,-5.7881,-5.7881,-5.7881,-5.7881,-5.7881,-5.7881,-5.7881,-5.7881,-5.7881,-5.7881,-5.7881,-5.7509,-5.7055,0.0,0.0,0.0,0.0,0.0,0.0,0.0,0.0,0.0,0.0,0.0,-5.3445,0.0,-5.4068,-5.4529,-5.3905,-5.4958,-5.6093,-5.7132,-5.7077,-5.7496,-5.8708,-5.9385,-5.9968,-6.0545,-6.1298,-6.1941,-6.2347,-6.2415,-6.2415,-6.2415,-6.2415,-6.2415,-6.2415,-6.2415,-6.255,-6.2922,-6.3024,-6.3024,-6.3024,-6.2685,-6.2415,-6.2415,-6.2415,-6.2415,-6.2415,-6.2415,-6.2415,-6.2415,-6.2415,-6.2415,-6.2415,-6.2415,-6.2415,-6.2415,-6.2415,-6.2415,-6.2415,-6.2415,-6.2415,-6.4495,-6.361,-6.274,-6.2415,-6.2415,-6.2415,-6.2415,-6.2415,-6.2415,-6.2415,-6.2415,-6.2415,-6.2347,-6.2212,-6.1569,-6.1197,-6.0926,-5.9641,-5.8964,-5.8829,-5.8186,-5.7881,-5.7881,-5.7881,-5.7881,-5.7881,-5.7881,-5.7881,-5.7881,-5.7881,-5.7881,-5.7881,-5.7881,-5.7881,-5.7881,-5.7881,-5.7881,-5.7881,-5.7881,-5.7881,-5.7881,-5.7881,-5.7881,-5.7881,-5.7881,-5.7881,-5.7881,-5.7881,-5.7881,-5.7881,-5.7881,-5.7881,-5.7881,-5.7814,-5.7509,0.0,-5.7476,0.0,0.0,0.0,0.0,0.0,0.0,0.0,0.0,-5.5077,-5.4815,-5.43,-5.5942,-5.6785,-5.6279,-5.7811,-5.8857,-5.9004,-5.9402,-5.9672,-5.9778,-6.0751,-6.14,-6.1332,-6.1941,-6.2415,-6.2415,-6.2415,-6.2415,-6.2415,-6.2415,-6.2415,-6.2415,-6.2415,-6.2415,-6.2415,-6.2415,-6.2482,-6.2448,-6.2415,-6.2415,-6.2415,-6.2415,-6.2415,-6.2415,-6.2415,-6.2415,-6.2415,-6.2415,-6.2415,-6.2415,-6.2415,-6.2415,-6.2415,-6.2415,-6.2415,-6.2415,-6.2415,-6.2415,-6.446,-6.361,-6.2774,-6.2415,-6.2415,-6.2415,-6.2415,-6.2415,-6.2415,-6.2415,-6.2415,-6.2415,-6.2076,-6.1535,-6.1366,-6.0622,-5.9438,-5.9167,-5.8693,-5.8084,-5.7949,-5.7881,-5.7881,-5.7881,-5.7881,-5.7881,-5.7881,-5.7881,-5.7881,-5.7881,-5.7881,-5.7881,-5.7881,-5.7881,-5.7881,0.0,0.0,0.0,-5.7881,-5.7881,-5.7881,-5.7881,-5.7881,-5.7881,-5.7881,0.0,-5.7881,-5.7881,-5.7881,-5.7881,-5.7881,0.0,0.0,0.0,0.0,0.0,0.0,0.0,0.0,0.0,0.0,0.0,-5.7499,-5.6984,-5.6078,-5.6737,-5.6957,-5.6356,-5.7572,-5.8147,-5.7522,-5.823,-5.9214,-6.0128,-6.0328,-6.0523,-6.0936,-6.1689,-6.1975,-6.14,-6.1941,-6.2415,-6.2415,-6.2415,-6.2415,-6.2415,-6.2415,-6.2415,-6.2415,-6.2415,-6.2415,-6.2415,-6.2415,-6.2415,-6.2415,-6.2415,-6.2415,-6.2415,-6.2415,-6.2415,-6.2415,-6.2415,-6.2415,-6.2415,-6.2415,-6.2415,-6.2415,-6.2415,-6.2415,-6.2415,-6.2415,-6.2415,-6.2415,-6.2415,-6.2415,-6.4495,0.0,-6.274,-6.2415,0.0,-6.2415,-6.2415,-6.2415,-6.2415,-6.2415,-6.2415,-6.2415,-6.1975,-6.1298,-6.0892,-6.008,-5.8998,-5.8626,-5.8254,-5.7881,-5.7881,-5.7881,-5.7881,-5.7881,-5.7881,-5.7881,-5.7881,-5.7881,-5.7881,-5.7881,-5.7881,-5.7881,-5.7881,-5.7881,-5.7881,-5.7881,-5.7881,-5.7881,-5.7881,-5.7881,-5.7881,-5.7881,-5.7881,-5.7881,0.0,0.0,0.0,0.0,0.0,0.0,0.0,0.0,0.0,0.0,0.0,-5.7848,-5.7543,-5.7509,-5.7848,-5.7881,-5.7881,-5.7881,-5.8558,-5.8571,-5.7678,-5.8436,-5.8733,-5.8199,-5.9296,-5.9807,-5.9306,-6.0017,-6.0828,-6.1399,-6.148,-6.1589,-6.1824,-6.2144,-6.2245,-6.1941,-6.2178,-6.2415,-6.2415,-6.2415,-6.2415,-6.2415,-6.2415,-6.2415,-6.2415,-6.2415,-6.2415,-6.2415,-6.2415,-6.2415,-6.2415,-6.2415,-6.2415,-6.2415,-6.2415,-6.2415,-6.2415,-6.2415,-6.2415,-6.2415,-6.2415,-6.2415,-6.2415,-6.2415,-6.2415,-6.2415,-6.2415,-6.2415,-6.2415,-6.2415,-6.2415,-6.4253,-6.3425,-6.2697,-6.2415,-6.2415,-6.2415,-6.2415,-6.2415,0.0,0.0,0.0,-6.2245,-6.1772,-6.1061,-6.025,-5.9505,-5.8795,-5.8152,-5.7881,-5.7881,-5.7881,-5.7881,-5.7881,-5.7881,-5.7881,-5.7881,-5.7881,-5.7881,-5.7881,-5.7881,-5.7881,-5.7881,-5.7881,-5.7881,-5.7881,-5.7881,-5.7881,-5.7881,-5.7881,-5.7881,-5.7881,-5.7881,-5.7881,-5.7881,-5.7881,-5.7881,-5.7881,-5.7881,-5.7881,-5.7881,-5.7881,-5.7881,-5.7881,-5.7881,-5.7881,-5.7881,-5.7881,-5.7881,-5.7881,-5.7881,-5.7881,-5.7881,-5.9133,-5.9708,-5.9235,-6.0013,-6.0376,-6.0033,-6.0891,-6.1351,-6.097,-6.1797,-6.2415,-6.2415,-6.2415,-6.2381,-6.2381,-6.2415,-6.2381,-6.2415,-6.2381,-6.2302,-6.207,-6.2263,-6.2302,-6.215,-6.2223,-6.2415,-6.2415,-6.2415,-6.2415,-6.2415,-6.2415,-6.2415,-6.2415,-6.2415,-6.2415,-6.2415,-6.2415,-6.2415,-6.2415,-6.2415,-6.2415,-6.2415,-6.2415,-6.2415,-6.2415,-6.2415,-6.2415,-6.2415,-6.2415,-6.2415,-6.2415,-6.2415,-6.2415,-6.3388,-6.2581,-6.2459,-6.2415,-6.2415,-6.2415,-6.2415,-6.2415,-6.2381,-6.2381,-6.2347,-6.1738,-6.1028,-6.025,-5.9505,-5.8761,-5.8051,-5.7949,-5.7881,-5.7881,-5.7881,-5.7881,-5.7881,-5.7881,-5.7881,-5.7881,-5.7881,-5.7881,-5.7881,-5.7881,-5.7881,-5.7881,-5.7881,-5.7881,-5.7881,-5.7881,-5.7881,-5.7881,-5.7881,-5.7881,-5.7881,-5.7881,-5.7881,-5.7881,-5.7881,-5.7881,-5.7881,-5.7881,-5.7881,-5.7881,-5.7881,-5.7881,-5.7881,-5.7881,-5.7881,-5.7881,-5.7881,-5.7881,-5.7881,-5.7881,-5.7881,-5.7915,-5.8693,-5.937,-5.9945,-6.1231,-6.2071,-6.2015,-6.2133,-6.2206,-6.215,-6.2302,-6.2381,-6.2341,-6.2381,-6.2381,-6.2308,-6.2313,-6.2279,-6.2279,-6.2415,-6.1923,-6.1183,-6.173,-6.1963,-6.1324,-6.1803,-6.2415,-6.2415,-6.2415,-6.2415,-6.2415,-6.2415,-6.2415,-6.2415,-6.2415,-6.2415,-6.2415,-6.2415,-6.2415,-6.2415,-6.2415,-6.2415,-6.2415,-6.2415,-6.2415,-6.2415,-6.2415,-6.2415,-6.2415,-6.2415,-6.2415,-6.2415,-6.2415,-6.2415,-6.3165,-6.242,-6.2415,-6.2415,-6.2415,-6.2415,-6.2415,-6.2347,-6.1975,-6.2042,-6.2313,-6.1637,-6.0858,-6.008,-5.9336,-5.8592,-5.7881,-5.7881,-5.7881,-5.7881,-5.7881,-5.7881,-5.7881,-5.7881,-5.7881,-5.7881,-5.7881,-5.7881,-5.7881,-5.7881,-5.7881,-5.7881,-5.7881,-5.7881,-5.7881,-5.7881,-5.7881,-5.7881,-5.7881,-5.7881,-5.7881,-5.7881,-5.7881,-5.7881,-5.7881,-5.7881,-5.7881,-5.7881,-5.7881,-5.7881,-5.7881,-5.7881,-5.7881,-5.7881,-5.7712,-5.734,-5.7306,-5.7306,-5.7306,-5.7645,-5.7881,-5.7915,-5.8592,-5.9133,-5.9471,-6.0926,-6.1941,-6.2347,-6.2415,-6.2415,-6.2415,-6.2415,-6.215,-6.148,-6.1654,-6.1537,-6.0966,-6.106,-6.1163,-6.1163,-6.1163,-6.0936,-6.0397,-6.1155,-6.1655,-6.1107,-6.1807,-6.2381,-6.2415,-6.2415,-6.2415,-6.2415,-6.2415,-6.2415,-6.2415,-6.2415,-6.2415,-6.2415,-6.2415,-6.2415,-6.2415,-6.2415,-6.2415,-6.2415,-6.2415,-6.2415,-6.2415,-6.2415,-6.2415,-6.2415,-6.2415,-6.2415,-6.2415,-6.2415,-6.2415,-6.3011,-6.2415,-6.2415,-6.2415,-6.2415,-6.2415,-6.2313,-6.211,-6.1535,-6.1535,-6.1738,-6.1095,-6.0452,-5.981,-5.9099,-5.8457,-5.7915,-5.7881,-5.7881,-5.7881,-5.8051,-5.8152,-5.8186,-5.8287,-5.8321,-5.8152,-5.8152,-5.8051,-5.7915,-5.7881,-5.7881,-5.7881,-5.7881,-5.7881,-5.7881,-5.7881,-5.7881,-5.7881,-5.7881,-5.7881,-5.7881,-5.7881,-5.7881,-5.7881,-5.7881,-5.7881,-5.7881,-5.7881,-5.7881,-5.7881,-5.7881,-5.7814,-5.7645,-5.7645,-5.7306,-5.6664,-5.6562,-5.6523,-5.6441,-5.669,-5.7018,-5.7147,-5.7682,-5.8084,-5.8318,-5.9321,-6.0634,-6.1621,-6.1306,-6.1107,-6.1266,-6.1147,-6.0776,-5.9891,-6.0074,-5.9823,-5.9087,-5.9145,-5.936,-5.936,-5.9393,-5.9237,-5.9225,-6.0102,-6.106,-6.1553,-6.2042,-6.2381,-6.2415,-6.2415,-6.2415,-6.2415,-6.2415,-6.2415,-6.2415,-6.2415,-6.2415,-6.2415,-6.2415,-6.2415,-6.2415,-6.2415,-6.2415,-6.2415,-6.2415,-6.2415,-6.2415,-6.2415,-6.2415,-6.2415,-6.2415,-6.2415,-6.2415,-6.2415,-6.2415,-6.2498,-6.2381,-6.2415,-6.2415,-6.2381,-6.2381,-6.2009,-6.1434,-6.1298,-6.0892,-6.0317,-5.9539,-5.9201,-5.9032,-5.8355,-5.7983,-5.7881,-5.7881,-5.7915,-5.7983,-5.8592,-5.8896,-5.8964,-5.9539,-5.9539,-5.8964,-5.8863,-5.8457,-5.7915,-5.7881,-5.7881,-5.7881,-5.7881,-5.7881,-5.7881,-5.7881,-5.7881,-5.7881,-5.7881,-5.7881,-5.7881,-5.7881,-5.7881,-5.7881,-5.7881,-5.7881,-5.7881,-5.7881,-5.7881,-5.7881,-5.7881,-5.7577,-5.7036,-5.6934,-5.6596,-5.5884,-5.5817,-5.5662,-5.5236,-5.4442,-5.4366,-5.4824,-5.5108,-5.5431,-5.6011,-5.6195,-5.7413,-5.9237,-5.8454,-5.8055,-5.865,-5.8106,-5.7581,-5.7431,-5.7409,-5.7152,-5.7109,-5.7045,-5.7098,-5.7098,-5.7191,-5.6755,-5.6451,-5.8349,-6.0491,-6.2032,-6.2279,-6.2415,-6.2415,-6.2415,-6.2415,-6.2415,-6.2415,-6.2415,-6.2415,-6.2415,-6.2415,-6.2415,-6.2415,-6.2415,-6.2415,-6.2415,-6.2415,-6.2415,-6.2415,-6.2415,-6.2415,-6.2415,-6.2415,-6.2415,-6.2415,-6.2415,-6.2415,-6.2415,-6.2415,-6.2415,-6.2415,-6.2415,-6.2415,-6.2347,-6.1941,-6.1569,-6.1264,-6.0317,-5.9742,-5.937,-5.8693,-5.8592,-5.8964,-5.822,-5.7881,-5.7915,-5.8355,-5.8558,-5.8626,-5.9302,-5.9674,-5.9674,-5.9471,-5.9268,-5.8964,-5.8592,-5.8186,-5.7949,-5.7881,-5.7881,-5.7881,-5.7881,-5.7881,-5.7881,-5.7881,-5.7881,-5.7881,-5.7881,-5.7881,-5.7881,-5.7881,-5.7881,-5.7881,-5.7881,-5.7881,-5.7881,-5.7881,-5.7881,-5.7881,-5.7881,-5.7746,-5.7476,-5.6824,-5.6121,-5.5384,-5.4364,-5.3738,-5.357,-5.3592,-5.3702,-5.399,-5.4365,-5.4717,-5.4973,-5.4442,-5.4911,-5.6409,-5.6783,-5.7013,-5.7352,-5.7055,-5.6538,-5.598,-5.597,-5.5889,-5.5147,-5.5334,-5.5495,-5.5495,-5.5495,-5.5814,-5.6634,-5.8847,-6.0958,-6.2172,-6.2415,-6.2415,-6.2415,-6.2415,-6.2415,-6.2415,-6.2415,-6.2415,-6.2415,-6.2415,-6.2415,-6.2415,-6.2415,-6.2415,-6.2415,-6.2415,-6.2415,-6.2415,-6.2415,-6.2415,-6.2415,-6.2415,-6.2415,-6.2415,-6.2415,-6.2415,-6.2415,-6.2415,-6.2415,-6.2415,-6.2415,-6.2415,-6.2279,-6.2042,-6.1535,-6.1061,-6.0554,-5.9471,-5.8896,-5.866,-5.8118,-5.8186,-5.8592,-5.8118,-5.7983,-5.8254,-5.8761,-5.9133,-5.937,-6.008,-6.0452,-6.0385,-6.0148,-5.9708,-5.9268,-5.8795,-5.8321,-5.7949,-5.7881,-5.7881,-5.7881,-5.7881,-5.7881,-5.7881,-5.7881,-5.7881,-5.7881,-5.7881,-5.7881,-5.7881,-5.7881,-5.7881,-5.7881,-5.7881,-5.7881,-5.7881,-5.7881,-5.7881,-5.7881,-5.7881,-5.7671,-5.714,-5.6326,-5.5423,-5.4346,-5.2925,-5.2127,-5.2286,-5.2544,-5.2755,-5.2975,-5.3404,-5.3656,-5.3526,-5.29,-5.2812,-5.3608,-5.4655,-5.5235,-5.5704,-5.5442,-5.4854,-5.4114,-5.4295,-5.4178,-5.3748,-5.3765,-5.3934,-5.4421,-5.404,-5.4475,-5.6575,-5.8977,-6.0991,-6.1629,-6.215,-6.2415,-6.2415,-6.2415,-6.2415,-6.2415,-6.2415,-6.2415,-6.2415,-6.2415,-6.2415,-6.2415,-6.2415,-6.2415,-6.2415,-6.2415,-6.2415,-6.2415,-6.2415,-6.2415,-6.2415,-6.2415,-6.2415,-6.2415,-6.2415,-6.2415,-6.2415,-6.2415,-6.2415,-6.2415,-6.2415,-6.2415,-6.2009,-6.1366,-6.1264,-6.0452,-5.9268,-5.9032,-5.8592,-5.8017,-5.7915,-5.7915,-5.7983,-5.7983,-5.8287,-5.8896,-5.9032,-5.9438,-6.008,-6.0892,-6.1264,-6.1298,-6.1907,-6.14,-6.0013,-5.9674,-5.9066,-5.7915,-5.7881,-5.7881,-5.7881,-5.7881,-5.7881,-5.7881,-5.7881,-5.7881,-5.7881,-5.7881,-5.7881,-5.7881,-5.7881,-5.7881,-5.7881,-5.7881,-5.7881,-5.7881,-5.7881,-5.7881,-5.7881,-5.7881,-5.714,-5.5577,-5.5249,-5.4378,-5.2661,-5.1476,-5.1165,-5.1593,-5.1027,-5.0743,-5.1269,-5.1574,-5.1479,-5.1681,-5.1542,-5.1526,-5.1433,-5.1832,-5.2261,-5.297,-5.2596,-5.1953,-5.172,-5.1583,-5.2017,-5.2815,-5.2155,-5.2485,-5.3644,-5.298,-5.3161,-5.5048,-5.7754,-5.9745,-6.0713,-6.1635,-6.2302,-6.2263,-6.2302,-6.2415,-6.2415,-6.2415,-6.2415,-6.2415,-6.2415,-6.2415,-6.2415,-6.2415,-6.2415,-6.2415,-6.2415,-6.2415,-6.2415,-6.2415,-6.2415,-6.2415,-6.2415,-6.2415,-6.2415,-6.2415,-6.2415,-6.2415,-6.2415,-6.2415,-6.2415,-6.2415,-6.2415,-6.1975,-6.1264,-6.0757,-5.9945,-5.8998,-5.849,-5.8152,-5.7915,-5.7881,-5.7881,-5.7915,-5.8389,-5.8761,-5.9032,-5.9505,-6.0114,-6.0892,-6.167,-6.2009,-6.1941,-6.1332,-6.0689,-6.0047,-5.9167,-5.8423,-5.7983,-5.7881,-5.7881,-5.7881,-5.7881,-5.7881,-5.7881,-5.7881,-5.7881,-5.7881,-5.7881,-5.7881,-5.7881,-5.7881,-5.7881,-5.7881,-5.7881,-5.7881,-5.7881,-5.7881,-5.7881,-5.7881,-5.7881,-5.76,-5.6854,-5.5568,-5.3818,-5.1805,-5.0847,-5.0532,-5.0698,-5.0441,-5.0285,-5.0524,-5.099,-5.1229,-5.1229,-5.1229,-5.1229,-5.1229,-5.1229,-5.1479,-5.1588,-5.1433,-5.1229,-5.1229,-5.1229,-5.1386,-5.1635,-5.1479,-5.1572,-5.2367,-5.2872,-5.4114,-5.5069,-5.7382,-5.9111,-5.9501,-6.0501,-6.1235,-6.1399,-6.1837,-6.2415,-6.2415,-6.2415,-6.2415,-6.2415,-6.2415,-6.2415,-6.2415,-6.2415,-6.2415,-6.2415,-6.2415,-6.2415,-6.2415,-6.2415,-6.2415,-6.2415,-6.2415,-6.2415,-6.2415,-6.2415,-6.2415,-6.2415,-6.2415,-6.2415,-6.2415,-6.2347,-6.2144,-6.1603,-6.0858,-6.008,-5.9336,-5.8626,-5.8118,-5.7881,-5.7881,-5.7881,-5.8017,-5.8287,-5.8795,-5.9336,-5.9776,-6.0283,-6.0926,-6.1637,-6.2178,-6.2415,-6.2178,-6.1095,-6.0486,-6.025,-5.8964,-5.8152,-5.7915,-5.7881,-5.7881,-5.7881,-5.7881,-5.7881,-5.7881,-5.7881,-5.7881,-5.7881,-5.7881,-5.7881,-5.7881,-5.7881,-5.7881,-5.7881,-5.7881,-5.7881,-5.7881,-5.7554,-5.7335,-5.7297,-5.7001,-5.6696,-5.6126,-5.4515,-5.2812,-5.1373,-5.081,-5.0495,-5.0495,-5.0495,-5.0524,-5.0524,-5.093,-5.1229,-5.1229,-5.1229,-5.1229,-5.1229,-5.1229,-5.1229,-5.1229,-5.1229,-5.1229,-5.1229,-5.1229,-5.1386,-5.1681,-5.1433,-5.1396,-5.1947,-5.3974,-5.5098,-5.524,-5.7661,-5.8876,-5.8902,-6.0118,-6.1152,-6.1317,-6.1797,-6.2415,-6.2415,-6.2415,-6.2415,-6.2415,-6.2415,-6.2415,-6.2415,-6.2415,-6.2415,-6.2415,-6.2415,-6.2415,-6.2415,-6.2415,-6.2415,-6.2415,-6.2415,-6.2415,-6.2415,-6.2415,-6.2415,-6.2415,-6.2415,-6.2415,-6.2381,-6.2245,-6.1603,-6.0892,-6.008,-5.9404,-5.8626,-5.8017,-5.7915,-5.7881,-5.7881,-5.7915,-5.8355,-5.8896,-5.9167,-5.9911,-6.0926,-6.1231,-6.1637,-6.2279,-6.2381,-6.2415,-6.2347,-6.1467,-6.0926,-6.0757,-5.9607,-5.8558,-5.7915,-5.7881,-5.7881,-5.7881,-5.7881,-5.7881,-5.7881,-5.7881,-5.7881,-5.7881,-5.7881,-5.7881,-5.7881,-5.7881,-5.7881,-5.7881,-5.7881,-5.7845,-5.7808,-5.6816,-5.6327,-5.6138,-5.5231,-5.4137,-5.329,-5.2215,-5.1339,-5.1323,-5.1199,-5.1199,-5.1169,-5.1139,-5.1109,-5.1109,-5.1199,-5.1229,-5.1229,-5.1229,-5.1229,-5.1229,-5.1229,-5.1229,-5.1229,-5.1229,-5.1229,-5.1229,-5.1229,-5.1588,-5.2169,-5.1789,-5.1468,-5.2322,-5.4466,-5.5698,-5.553,-5.7275,-5.9093,-5.9081,-6.0332,-6.1756,-6.1797,-6.211,-6.2381,-6.2415,-6.2415,-6.2415,-6.2415,-6.2415,-6.2415,-6.2415,-6.2415,-6.2415,-6.2415,-6.2415,-6.2415,-6.2415,-6.2415,-6.2415,-6.2415,-6.2415,-6.2415,-6.2415,-6.2415,-6.2415,-6.2415,-6.2415,-6.2415,-6.211,-6.1637,-6.14,-6.052,-5.9404,-5.9099,-5.8592,-5.7915,-5.7881,-5.7881,-5.7983,-5.8457,-5.8795,-5.9235,-6.008,-6.0858,-6.1332,-6.1772,-6.2178,-6.2381,-6.2415,-6.2381,-6.2144,-6.1095,-5.9945,-5.9032,-5.849,-5.8152,-5.7983,-5.7915,-5.7881,-5.7881,-5.7881,-5.7881,-5.7881,-5.7881,-5.7881,-5.7881,-5.7881,-5.7881,-5.7881,-5.7881,-5.7881,-5.7881,-5.7881,-5.7554,-5.6778,-5.6393,-5.6012,-5.5578,-5.4535,-5.3428,-5.2455,-5.2329,-5.2018,-5.1293,-5.1229,-5.1229,-5.1229,-5.1229,-5.1229,-5.1229,-5.1229,-5.1229,-5.1229,-5.1229,-5.1229,-5.1229,-5.1229,-5.1229,-5.1229,-5.1229,-5.1229,-5.1229,-5.1229,-5.1293,-5.1681,-5.1433,-5.1575,-5.2174,-5.3442,-5.4109,-5.4496,-5.6381,-5.7339,-5.79,-5.917,-6.0332,-6.1119,-6.203,-6.2381,-6.2415,-6.2415,-6.2415,-6.2415,-6.2415,-6.2415,-6.2415,-6.2415,-6.2415,-6.2415,-6.2415,-6.2415,-6.2415,-6.2415,-6.2415,-6.2415,-6.2415,-6.2415,-6.2415,-6.2415,-6.2415,-6.2415,-6.2415,-6.2415,-6.1975,-6.1298,-6.0994,-6.0148,-5.8998,-5.8727,-5.8355,-5.7915,-5.7881,-5.8051,-5.8355,-5.8795,-5.937,-5.9979,-6.0892,-6.1434,-6.1738,-6.2212,-6.2415,-6.2415,-6.2415,-6.2279,-6.1941,-6.1061,-5.9776,-5.8693,-5.8896,-5.8998,-5.8693,-5.8457,-5.8321,-5.8287,-5.8017,-5.7881,-5.7881,-5.7881,-5.7881,-5.7881,-5.7881,-5.7881,-5.7881,-5.7881,-5.7881,-5.7881,-5.7881,-5.7297,-5.6282,-5.5817,-5.5222,-5.4317,-5.3112,-5.1964,-5.1356,-5.1634,-5.1683,-5.1403,-5.1229,-5.1229,-5.1229,-5.1229,-5.1229,-5.1229,-5.1229,-5.1229,-5.1229,-5.1229,-5.1229,-5.1229,-5.1229,-5.1229,-5.1229,-5.1229,-5.1229,-5.1229,-5.1229,-5.1229,-5.1229,-5.1229,-5.1678,-5.2414,-5.3032,-5.3593,-5.4401,-5.5387,-5.6299,-5.7527,-5.8722,-5.987,-6.0995,-6.1917,-6.2223,-6.2415,-6.2415,-6.2415,-6.2415,-6.2415,-6.2415,-6.2415,-6.2415,-6.2415,-6.2415,-6.2415,-6.2415,-6.2415,-6.2415,-6.2415,-6.2415,-6.2415,-6.2415,-6.2415,-6.2415,-6.2415,-6.2415,-6.2415,-6.2454,-6.1975,-6.1231,-6.052,-5.9776,-5.8998,-5.8355,-5.8017,-5.7881,-5.7881,-5.822,-5.8761,-5.9066,-5.9844,-6.0926,-6.1298,-6.1772,-6.2279,-6.2347,-6.2415,-6.2415,-6.2347,-6.2076,-6.1434,-6.1231,-6.0385,-5.9438,-6.0317,-6.0588,-5.9844,-5.9336,-5.9066,-5.8998,-5.8389,-5.7983,-5.8051,-5.7949,-5.7881,-5.7881,-5.7808,-5.7701,-5.7808,-5.7591,-5.7628,-5.7665,-5.7517,-5.6925,-5.577,-5.4723,-5.3796,-5.2701,-5.1273,-5.0486,-5.0288,-5.0272,-5.0737,-5.1199,-5.1229,-5.1229,-5.1229,-5.1229,-5.1229,-5.1229,-5.1229,-5.1229,-5.1229,-5.1229,-5.1229,-5.1229,-5.1229,-5.1229,-5.1229,-5.1229,-5.1229,-5.1229,-5.1229,-5.1229,-5.1229,-5.1229,-5.1768,-5.2755,-5.3234,-5.3683,-5.49,-5.6005,-5.7039,-5.8223,-5.9258,-6.0128,-6.1439,-6.1877,-6.2223,-6.2341,-6.2415,-6.2415,-6.2415,-6.2415,-6.2415,-6.2415,-6.2415,-6.2415,-6.2415,-6.2415,-6.2415,-6.2415,-6.2415,-6.2415,-6.2415,-6.2415,-6.2415,-6.2415,-6.2415,-6.2415,-6.2415,-6.2415,-6.242,-6.1975,-6.1298,-6.1061,-6.0216,-5.9099,-5.8761,-5.8389,-5.7915,-5.7881,-5.8084,-5.8423,-5.9336,-6.0013,-6.052,-6.1637,-6.2245,-6.2347,-6.2415,-6.2415,-6.2415,-6.2415,-6.1975,-6.1434,-6.1298,-6.0825,-6.0013,-6.0351,-6.0283,-6.0114,-5.9945,-5.981,-5.981,-5.9099,-5.8693,-5.866,-5.8186,-5.7915,-5.7738,-5.7039,-5.7114,-5.7517,-5.6276,-5.5889,-5.6547,-5.5929,-5.5043,-5.3828,-5.2678,-5.1744,-5.0986,-5.0515,-5.0196,-5.0226,-5.0584,-5.096,-5.1169,-5.1229,-5.1229,-5.1229,-5.1229,-5.1229,-5.1229,-5.1229,-5.1229,-5.1229,-5.1229,-5.1229,-5.1229,-5.1229,-5.1229,-5.1229,-5.1229,-5.1229,-5.1229,-5.1229,-5.1229,-5.1229,-5.1259,-5.1738,-5.2905,-5.3174,-5.3892,-5.486,-5.5551,-5.628,-5.7323,-5.8039,-5.8959,-6.0628,-6.1317,-6.148,-6.2223,-6.2415,-6.2415,-6.2415,-6.2415,-6.2415,-6.2415,-6.2415,-6.2415,-6.2415,-6.2415,-6.2415,-6.2415,-6.2415,-6.2415,-6.2415,-6.2415,-6.2415,-6.2415,-6.2415,-6.2415,-6.2415,-6.2415,-6.2415,-6.1975,-6.1332,-6.1298,-6.0588,-5.9539,-5.9471,-5.9032,-5.8457,-5.8355,-5.8558,-5.8964,-5.9674,-6.0452,-6.1129,-6.2009,-6.2381,-6.2415,-6.2415,-6.2415,-6.2415,-6.2415,-6.1975,-6.1467,-6.1298,-6.1061,-6.0723,-6.0926,-6.1061,-6.1028,-6.0757,-6.0622,-6.0486,-5.9844,-5.9336,-5.8927,-5.8626,-5.8186,-5.7803,-5.6816,-5.6586,-5.6963,-5.553,-5.5043,-5.5337,-5.4879,-5.4084,-5.2945,-5.1819,-5.09,-5.0375,-5.0196,-5.0196,-5.0226,-5.0554,-5.093,-5.1169,-5.1229,-5.1229,-5.1229,-5.1229,-5.1229,-5.1229,-5.1229,-5.1229,-5.1229,-5.1229,-5.1229,-5.1229,-5.1229,-5.1229,-5.1229,-5.1229,-5.1229,-5.1229,-5.1229,-5.1229,-5.1229,-5.1498,-5.2097,-5.2905,-5.3473,-5.3982,-5.5059,-5.5179,-5.5819,-5.6686,-5.7134,-5.8555,-6.0085,-6.0374,-6.0912,-6.1756,-6.2341,-6.2415,-6.2415,-6.2415,-6.2415,-6.2415,-6.2415,-6.2415,-6.2415,-6.2415,-6.2415,-6.2415,-6.2415,-6.2415,-6.2415,-6.2415,-6.2415,-6.2415,-6.2415,-6.2415,-6.2415,-6.2415,-6.2415,-6.2009,-6.1434,-6.1434,-6.096,-6.0283,-6.0216,-5.9742,-5.9066,-5.893,-5.9268,-5.9742,-6.0013,-6.0791,-6.2245,-6.2212,-6.2415,-6.2415,-6.2415,-6.2415,-6.2415,-6.2347,-6.2042,-6.1603,-6.1569,-6.1501,-6.1467,-6.211,-6.2212,-6.2009,-6.1603,-6.1434,-6.1231,-6.0622,-5.9945,-5.9505,-5.9096,-5.8626,-5.7931,-5.6575,-5.6087,-5.6008,-5.4806,-5.4041,-5.4295,-5.4041,-5.3483,-5.262,-5.1697,-5.0913,-5.0315,-5.0285,-5.0375,-5.0345,-5.0345,-5.0584,-5.1109,-5.1229,-5.1229,-5.1229,-5.1229,-5.1229,-5.1229,-5.1229,-5.1229,-5.1229,-5.1229,-5.1229,-5.1229,-5.1229,-5.1229,-5.1229,-5.1229,-5.1229,-5.1229,-5.1229,-5.1229,-5.1319,-5.1798,-5.2456,-5.3114,-5.3773,-5.4461,-5.494,-5.528,-5.5551,-5.6085,-5.6493,-5.7386,-5.8857,-5.961,-6.0501,-6.1602,-6.207,-6.2415,-6.2415,-6.2415,-6.2415,-6.2415,-6.2415,-6.2415,-6.2415,-6.2415,-6.2415,-6.2415,-6.2415,-6.2415,-6.2415,-6.2415,-6.2415,-6.2415,-6.2415,-6.2415,-6.2415,-6.2415,-6.2415,-6.2279,-6.2144,-6.2144,-6.1738,-6.1129,-6.1028,-6.0283,-5.9099,-5.9032,-5.9268,-5.9404,-5.9877,-6.0689,-6.1637,-6.2144,-6.2415,-6.2415,-6.2415,-6.2415,-6.2415,-6.2415,-6.2347,-6.2144,-6.211,-6.2144,-6.2178,-6.2279,-6.2381,-6.2313,-6.2212,-6.2144,-6.2009,-6.14,-6.096,-6.0655,-5.9641,-5.8998,-5.8362,-5.6336,-5.5603,-5.5538,-5.3581,-5.262,-5.3121,-5.253,-5.1926,-5.1635,-5.1339,-5.1139,-5.105,-5.096,-5.0883,-5.0883,-5.096,-5.105,-5.1139,-5.1229,-5.1229,-5.1229,-5.1229,-5.1229,-5.1229,-5.1229,-5.1229,-5.1229,-5.1229,-5.1229,-5.1229,-5.1229,-5.1229,-5.1229,-5.1229,-5.1229,-5.1229,-5.1229,-5.1229,-5.1349,-5.1828,-5.2516,-5.3114,-5.3832,-5.4461,-5.5089,-5.5179,-5.5431,-5.5571,-5.5937,-5.6347,-5.748,-5.8767,-5.9957,-6.1201,-6.203,-6.2381,-6.2415,-6.2415,-6.2415,-6.2415,-6.2415,-6.2415,-6.2415,-6.2415,-6.2415,-6.2415,-6.2415,-6.2415,-6.2415,-6.2415,-6.2415,-6.2415,-6.2415,-6.2415,-6.2415,-6.2415,-6.242,-6.2415,-6.2415,-6.2415,-6.2178,-6.1839,-6.1772,-6.1163,-6.025,-6.0114,-6.008,-6.0148,-6.052,-6.1095,-6.1806,-6.2212,-6.2415,-6.2415,-6.2415,-6.2415,-6.2415,-6.2415,-6.2415,-6.2415,-6.2415,-6.2415,-6.2415,-6.2415,-6.2415,-6.2415,-6.2415,-6.2347,-6.2381,-6.1975,-6.1569,-6.1332,-6.0452,-5.9742,-5.877,-5.7074,-5.6082,-5.5683,-5.3569,-5.1819,-5.2063,-5.1526,-5.1229,-5.1229,-5.1229,-5.1229,-5.1229,-5.1229,-5.1229,-5.1229,-5.1229,-5.1229,-5.1229,-5.1229,-5.1229,-5.1229,-5.1229,-5.1229,-5.1229,-5.1229,-5.1229,-5.1229,-5.1229,-5.1229,-5.1229,-5.1229,-5.1229,-5.1229,-5.1229,-5.1229,-5.1229,-5.1229,-5.1349,-5.1678,-5.2247,-5.2755,-5.3294,-5.4072,-5.467,-5.5089,-5.5179,-5.5229,-5.5401,-5.5451,-5.5918,-5.7086,-5.836,-5.9478,-6.0628,-6.1756,-6.2341,-6.2415,-6.2415,-6.2415,-6.2415,-6.2415,-6.2415,-6.2415,-6.2415,-6.2415,-6.2415,-6.2415,-6.2415,-6.2415,-6.2415,-6.2415,-6.2415,-6.2415,-6.2415,-6.2415,-6.2415,-6.2415,-6.2415,-6.2415,-6.2415,-6.2415,-6.2415,-6.2381,-6.1907,-6.1298,-6.1298,-6.1129,-6.1298,-6.1298,-6.1603,-6.2245,-6.2347,-6.2415,-6.2415,-6.2415,-6.2415,-6.2415,-6.2415,-6.2415,-6.2415,-6.2415,-6.2415,-6.2415,-6.2415,-6.2415,-6.2415,-6.2415,-6.2415,-6.2381,-6.2381,-6.2076,-6.1603,-6.1264,-6.0468,-5.9108,-5.7694,-5.6401,-5.553,-5.3615,-5.2246,-5.1479,-5.1293,-5.1229,-5.1229,-5.1229,-5.1229,-5.1229,-5.1229,-5.1229,-5.1229,-5.1229,-5.1229,-5.1229,-5.1229,-5.1229,-5.1229,-5.1229,-5.1229,-5.1229,-5.1229,-5.1229,-5.1229,-5.1229,-5.1229,-5.1229,-5.1229,-5.1229,-5.1229,-5.1229,-5.1229,-5.1229,-5.1229,-5.1528,-5.2127,-5.2785,-5.3114,-5.3533,-5.4311,-5.4999,-5.5149,-5.5209,-5.5209,-5.5179,-5.5229,-5.5501,-5.6686,-5.7807,-5.8857,-5.987,-6.0953,-6.211,-6.2302,-6.2415,-6.2415,-6.2415,-6.2415,-6.2415,-6.2415,-6.2415,-6.2415,-6.2415,-6.2415,-6.2415,-6.2415,-6.2415,-6.2415,-6.2415,-6.2415,-6.2415,-6.2415,-6.2415,-6.2415,-6.2415,-6.2415,-6.2415,-6.2415,-6.2415,-6.2415,-6.2009,-6.14,-6.1366,-6.1298,-6.1332,-6.1332,-6.1772,-6.2245,-6.2415,-6.2415,-6.2415,-6.2415,-6.2415,-6.2415,-6.2415,-6.2415,-6.2415,-6.2415,-6.2415,-6.2415,-6.2415,-6.2415,-6.2415,-6.2415,-6.2415,-6.2415,-6.2302,-6.2133,-6.197,-6.1559,-6.0537,-5.9311,-5.7827,-5.6285,-5.4699,-5.3281,-5.2057,-5.1336,-5.1229,-5.1229,-5.1229,-5.1229,-5.1229,-5.1229,-5.1229,-5.1229,-5.1229,-5.1229,-5.1229,-5.1229,-5.1229,-5.1229,-5.1229,-5.1229,-5.1229,-5.1229,-5.1229,-5.1229,-5.1229,-5.1229,-5.1229,-5.1229,-5.1229,-5.1229,-5.1229,-5.1229,-5.1229,-5.1229,-5.1319,-5.1558,-5.2187,-5.2845,-5.3503,-5.4012,-5.47,-5.5209,-5.5209,-5.5209,-5.5209,-5.5209,-5.5179,-5.5229,-5.5769,-5.6896,-5.8039,-5.9036,-6.0075,-6.1235,-6.2223,-6.2341,-6.2415,-6.2415,-6.2415,-6.2415,-6.2415,-6.2415,-6.2415,-6.2415,-6.2415,-6.2415,-6.2415,-6.2415,-6.2415,-6.2415,-6.2415,-6.2415,-6.2415,-6.2415,-6.2415,-6.2415,-6.2415,-6.2415,-6.2415,-6.2415,-6.2415,-6.2212,-6.1907,-6.1873,-6.1873,-6.1873,-6.1873,-6.2042,-6.2347,-6.2415,-6.2415,-6.2415,-6.2415,-6.2415,-6.2415,-6.2415,-6.2415,-6.2415,-6.2415,-6.2415,-6.2415,-6.2415,-6.2415,-6.2415,-6.2415,-6.2341,-6.2263,-6.1837,-6.1756,-6.1843,-6.0738,-5.9985,-5.9039,-5.7936,-5.6396,-5.4757,-5.3314,-5.2184,-5.146,-5.1229,-5.1229,-5.1229,-5.1229,-5.1229,-5.1229,-5.1229,-5.1229,-5.1229,-5.1229,-5.1229,-5.1229,-5.1229,-5.1229,-5.1229,-5.1229,-5.1229,-5.1229,-5.1229,-5.1229,-5.1229,-5.1229,-5.1229,-5.1229,-5.1229,-5.1229,-5.1229,-5.1229,-5.1229,-5.1289,-5.1498,-5.2037,-5.2636,-5.3294,-5.3922,-5.4521,-5.494,-5.5209,-5.5209,-5.5209,-5.5209,-5.5209,-5.5209,-5.5209,-5.5209,-5.628,-5.7527,-5.887,-6.0075,-6.1358,-6.2263,-6.2302,-6.2415,-6.2415,-6.2415,-6.2415,-6.2415,-6.2415,-6.2415,-6.2415,-6.2415,-6.2415,-6.2415,-6.2415,-6.2415,-6.2415,-6.2415,-6.2415,-6.2415,-6.2415,-6.2415,-6.2415,-6.2415,-6.2415,-6.2415,-6.2415,-6.2415,-6.2381,-6.2415,-6.2381,-6.2347,-6.2415,-6.2381,-6.2347,-6.2415,-6.2415,-6.2415,-6.2415,-6.2415,-6.2415,-6.2415,-6.2415,-6.2415,-6.2415,-6.2415,-6.2415,-6.2415,-6.2415,-6.2415,-6.2302,-6.203,-6.1991,-6.1595,-6.0828,-6.0628,-6.092,-5.9805,-5.9188,-5.8613,-5.8137,-5.6848,-5.5304,-5.381,-5.2475,-5.155,-5.1409,-5.1409,-5.1229,-5.1229,-5.1229,-5.1229,-5.1229,-5.1229,-5.1229,-5.1229,-5.1229,-5.1229,-5.1229,-5.1229,-5.1229,-5.1229,-5.1229,-5.1229,-5.1229,-5.1229,-5.1229,-5.1229,-5.1229,-5.1229,-5.1229,-5.1229,-5.1259,-5.1379,-5.1439,-5.1588,-5.2037,-5.2636,-5.3264,-5.3832,-5.4311,-5.479,-5.5089,-5.5209,-5.5209,-5.5209,-5.5209,-5.5209,-5.5209,-5.5209,-5.533,-5.6183,-5.7418,-5.8992,-6.0332,-6.1676,-6.2341,-6.2341,-6.2415,-6.2415,-6.2415,-6.2415,-6.2415,-6.2415,-6.2415,-6.2415,-6.2415,-6.2415,-6.2415,-6.2415,-6.2415,-6.2415,-6.2415,-6.2415,-6.2415,-6.2415,-6.2415,-6.2415,-6.2415,-6.2415,-6.2415,-6.2415,-6.2415,-6.2415,-6.2415,-6.2415,-6.2415,-6.2415,-6.2415,-6.2415,-6.2415,-6.2415,-6.2415,-6.2415,-6.2415,-6.2415,-6.2415,-6.2415,-6.2415,-6.2415,-6.2415,-6.2415,-6.2415,-6.2415,-6.2415,-6.2223,-6.1439,-6.0912,-6.0703,-5.9784,-5.9214,-5.9566,-5.8722,-5.8328,-5.7464,-5.7136,-5.6149,-5.4582,-5.3627,-5.2815,-5.2312,-5.2007,-5.1798,-5.1379,-5.1289,-5.1229,-5.1229,-5.1229,-5.1229,-5.1229,-5.1229,-5.1229,-5.1229,-5.1229,-5.1229,-5.1229,-5.1229,-5.1229,-5.1229,-5.1229,-5.1229,-5.1229,-5.1229,-5.1229,-5.1229,-5.1229,-5.1289,-5.1409,-5.1738,-5.1977,-5.2306,-5.2665,-5.3294,-5.3892,-5.4221,-5.47,-5.491,-5.5179,-5.5209,-5.5209,-5.5209,-5.5209,-5.5209,-5.5209,-5.5209,-5.5601,-5.6524,-5.7668,-5.9302,-6.0628,-6.1991,-6.2415,-6.2415,-6.2415,-6.2415,-6.2415,-6.2415,-6.2415,-6.2415,-6.2415,-6.2415,-6.2415,-6.2415,-6.2415,-6.2415,-6.2415,-6.2415,-6.2415,-6.2415,-6.2415,-6.2415,-6.2415,-6.2415,-6.2415,-6.2415,-6.2415,-6.2415,-6.2415,-6.2415,-6.2415,-6.2415,-6.2415,-6.2415,-6.2415,-6.2415,-6.2415,-6.2415,-6.2415,-6.2415,-6.2415,-6.2415,-6.2415,-6.2415,-6.2415,-6.2415,-6.2415,-6.2415,-6.2415,-6.2415,-6.2415,-6.203,-6.1276,-6.0619,-6.0289,-5.8857,-5.8268,-5.8268,-5.7371,-5.7039,-5.658,-5.6028,-5.5024,-5.425,-5.3563,-5.3054,-5.2755,-5.2426,-5.2097,-5.1798,-5.1349,-5.1259,-5.1229,-5.1229,-5.1229,-5.1229,-5.1229,-5.1229,-5.1229,-5.1229,-5.1229,-5.1229,-5.1229,-5.1229,-5.1229,-5.1229,-5.1229,-5.1229,-5.1229,-5.1229,-5.1229,-5.1229,-5.1379,-5.1708,-5.2007,-5.2366,-5.2785,-5.3354,-5.3743,-5.4251,-5.464,-5.494,-5.5089,-5.5209,-5.5209,-5.5209,-5.5209,-5.5209,-5.5209,-5.5209,-5.5209,-5.5967,-5.7117,-5.836,-5.9816,-6.1111,-6.2302,-6.2415,-6.2415,-6.2415,-6.2415,-6.2415,-6.2415,-6.2415,-6.2415,-6.2415,-6.2415,-6.2415,-6.2415,-6.2415,-6.2415,-6.2415,-6.2415,-6.2415,-6.2415,-6.2415,-6.2415,-6.262,-6.2415,-6.2415,-6.2415,-6.2415,-6.2415,-6.2415,-6.2415,-6.2415,-6.2415,-6.2415,-6.2415,-6.2415,-6.2415,-6.2415,-6.2415,-6.2415,-6.2415,-6.2415,-6.2415,-6.2415,-6.2415,-6.2415,-6.2415,-6.2415,-6.2415,-6.2415,-6.2415,-6.2415,-6.1951,-6.0995,-6.0032,-6.0032,-5.7668,-5.7134,-5.7134,-5.6445,-5.5769,-5.625,-5.5307,-5.468,-5.4431,-5.4042,-5.3683,-5.3354,-5.2995,-5.2636,-5.2366,-5.1828,-5.1528,-5.1498,-5.1289,-5.1229,-5.1229,-5.1229,-5.1229,-5.1229,-5.1229,-5.1229,-5.1229,-5.1229,-5.1229,-5.1229,-5.1229,-5.1229,-5.1229,-5.1229,-5.1379,-5.1498,-5.1528,-5.1858,-5.2306,-5.2606,-5.3025,-5.3533,-5.4042,-5.4281,-5.4491,-5.482,-5.5059,-5.5119,-5.5209,-5.5209,-5.5209,-5.5209,-5.5209,-5.5209,-5.5209,-5.5209,-5.6115,-5.7276,-5.8405,-5.9697,-6.1276,-6.2302,-6.2341,-6.2341,-6.2381,-6.2415,-6.2415,-6.2415,-6.2415,-6.2415,-6.2415,-6.2415,-6.2415,-6.2415,-6.2415,-6.2415,-6.2415,-6.2415,-6.2415,-6.2415,-6.2415,-6.2415,-6.2931,-6.2415,-6.2415,-6.2415,-6.2415,-6.2415,-6.2415,-6.2415,-6.2415,-6.2415,-6.2415,-6.2415,-6.2415,-6.2415,-6.2415,-6.2415,-6.2415,-6.2415,-6.2415,-6.2415,-6.2415,-6.2415,-6.2415,-6.2415,-6.2415,-6.2415,-6.2415,-6.2381,-6.2381,-6.183,-6.0118,-5.9302,-5.8587,-5.6686,-5.5769,-5.5601,-5.5551,-5.528,-5.5601,-5.51,-5.508,-5.5029,-5.485,-5.464,-5.4221,-5.4042,-5.3773,-5.3144,-5.2486,-5.2037,-5.2007,-5.1618,-5.1259,-5.1259,-5.1229,-5.1229,-5.1229,-5.1229,-5.1229,-5.1229,-5.1229,-5.1229,-5.1229,-5.1289,-5.1379,-5.1409,-5.1319,-5.1528,-5.2067,-5.2127,-5.2456,-5.3054,-5.3623,-5.3803,-5.4192,-5.4551,-5.473,-5.488,-5.497,-5.5149,-5.5179,-5.5209,-5.5209,-5.5209,-5.5209,-5.5209,-5.5209,-5.5209,-5.5179,-5.5967,-5.707,-5.8039,-5.9346,-6.116,-6.211,-6.2263,-6.2302,-6.2381,-6.2415,-6.2415,-6.2415,-6.2415,-6.2415,-6.2415,-6.2415,-6.2415,-6.2415,-6.2415,-6.2415,-6.2415,-6.2415,-6.2415,-6.2415,-6.2415,-6.2415,-6.3165,-6.2415,-6.2415,-6.2415,-6.2415,-6.2415,-6.2415,-6.2415,-6.2415,-6.2415,-6.2415,-6.2415,-6.2415,-6.2415,-6.2415,-6.2415,-6.2415,-6.2415,-6.2415,-6.2415,-6.2415,-6.2415,-6.2415,-6.2415,-6.2415,-6.2415,-6.2341,-6.2341,-6.1877,-6.1036,-5.9434,-5.8451,-5.7371,-5.6017,-5.5451,-5.5229,-5.5209,-5.5209,-5.5209,-5.5209,-5.5209,-5.5209,-5.5209,-5.5089,-5.488,-5.4311,-5.4132,-5.3743,-5.3144,-5.2665,-5.2217,-5.1917,-5.1588,-5.1289,-5.1229,-5.1229,-5.1229,-5.1229,-5.1259,-5.1289,-5.1259,-5.1229,-5.1319,-5.1558,-5.1828,-5.1858,-5.2127,-5.2456,-5.2755,-5.2815,-5.3114,-5.3743,-5.4072,-5.4251,-5.47,-5.497,-5.5149,-5.5209,-5.5209,-5.5209,-5.5209,-5.5209,-5.5209,-5.5209,-5.5209,-5.5209,-5.5209,-5.5209,-5.533,-5.6017,-5.6783,-5.7714,-5.878,-6.0544,-6.1439,-6.1635,-6.1951,-6.2341,-6.2415,-6.2415,-6.2415,-6.2415,-6.2415,-6.2415,-6.2415,-6.2415,-6.2415,-6.2415,-6.2415,-6.2415,-6.2415,-6.2415,-6.2415,-6.2415,-6.2415,-6.3202,-6.2415,-6.2415,-6.2415,-6.2415,-6.2415,-6.2415,-6.2415,-6.2415,-6.2415,-6.2415,-6.2415,-6.2415,-6.2415,-6.2415,-6.2415,-6.2415,-6.2415,-6.2415,-6.2415,-6.2415,-6.2415,-6.2415,-6.2415,-6.2341,-6.2183,-6.203,-6.1756,-6.1235,-6.0043,-5.8857,-5.7946,-5.6943,-5.5869,-5.533,-5.5209,-5.5179,-5.5179,-5.5209,-5.5209,-5.5209,-5.5209,-5.5209,-5.5209,-5.5059,-5.4551,-5.4221,-5.3862,-5.3264,-5.2606,-5.2247,-5.1917,-5.1648,-5.1379,-5.1229,-5.1229,-5.1229,-5.1229,-5.1289,-5.1468,-5.1498,-5.1618,-5.1977,-5.2247,-5.2456,-5.2606,-5.2935,-5.3084,-5.3473,-5.3503,-5.3743,-5.4371,-5.461,-5.467,-5.5029,-5.5059,-5.5209,-5.5209,-5.5209,-5.5209,-5.5209,-5.5209,-5.5209,-5.5209,-5.5209,-5.5209,-5.5209,-5.5209,-5.528,-5.5551,-5.6427,-5.7339,-5.8464,-5.9827,-6.0459,-6.0828,-6.1676,-6.2381,-6.2415,-6.2415,-6.2415,-6.2415,-6.2415,-6.2415,-6.2415,-6.2415,-6.2415,-6.2415,-6.2415,-6.2415,-6.2415,-6.2415,-6.2415,-6.2415,-6.2459,-6.2893,-6.2415,-6.2415,-6.2415,-6.2415,-6.2415,-6.2415,-6.2415,-6.2415,-6.2415,-6.2415,-6.2415,-6.2415,-6.2415,-6.2415,-6.2415,-6.2415,-6.2415,-6.2415,-6.2415,-6.2415,-6.2415,-6.2415,-6.2341,-6.2189,-6.1676,-6.087,-6.0544,-6.0,-5.8812,-5.79,-5.715,-5.6577,-5.5629,-5.5059,-5.5149,-5.5149,-5.5149,-5.5179,-5.5119,-5.4999,-5.5059,-5.5029,-5.5029,-5.47,-5.4491,-5.4221,-5.3803,-5.3144,-5.2546,-5.2217,-5.1798,-5.1498,-5.1259,-5.1229,-5.1229,-5.1229,-5.1289,-5.1588,-5.2127,-5.2187,-5.2486,-5.2815,-5.2965,-5.3144,-5.3174,-5.3324,-5.3623,-5.4132,-5.4192,-5.4461,-5.488,-5.5119,-5.5119,-5.5149,-5.5179,-5.5209,-5.5209,-5.5209,-5.5209,-5.5209,-5.5209,-5.5209,-5.5209,-5.5209,-5.5209,-5.5209,-5.5209,-5.533,-5.5551,-5.6493,-5.7621,-5.86,-5.9827,-6.0417,-6.1036,-6.1797,-6.2341,-6.2381,-6.2415,-6.2415,-6.2415,-6.2415,-6.2415,-6.2415,-6.2415,-6.2415,-6.2415,-6.2415,-6.2415,-6.2415,-6.2415,-6.2415,-6.2415,-6.2498,-6.2851,-6.2415,-6.2415,-6.2415,-6.2415,-6.2415,-6.2415,-6.2415,-6.2415,-6.2415,-6.2415,-6.2415,-6.2415,-6.2415,-6.2415,-6.2415,-6.2415,-6.2415,-6.2415,-6.2415,-6.2415,-6.2415,-6.2415,-6.2263,-6.1676,-6.1036,-6.0459,-5.987,-5.878,-5.7574,-5.6991,-5.6396,-5.5758,-5.5079,-5.4601,-5.4401,-5.4251,-5.4012,-5.4341,-5.4192,-5.4042,-5.4461,-5.4521,-5.4341,-5.3982,-5.4042,-5.3922,-5.3533,-5.2815,-5.2486,-5.2157,-5.1738,-5.1588,-5.1319,-5.1229,-5.1229,-5.1379,-5.1558,-5.2426,-5.3174,-5.3533,-5.3384,-5.3473,-5.3623,-5.3832,-5.3862,-5.4311,-5.461,-5.473,-5.476,-5.497,-5.5149,-5.5179,-5.5179,-5.5179,-5.5209,-5.5209,-5.5209,-5.5209,-5.5209,-5.5209,-5.5209,-5.5209,-5.5209,-5.5209,-5.5209,-5.5209,-5.5209,-5.572,-5.6085,-5.7276,-5.8451,-5.9214,-6.0118,-6.067,-6.1242,-6.1877,-6.2302,-6.2381,-6.2415,-6.2415,-6.2415,-6.2415,-6.2415,-6.2415,-6.2415,-6.2415,-6.2415,-6.2415,-6.2415,-6.2415,-6.2415,-6.2415,-6.2415,-6.2415,-6.2498,-6.2415,-6.2415,-6.2415,-6.2415,-6.2415,-6.2415,-6.2415,-6.2415,-6.2415,-6.2415,-6.2415,-6.2415,-6.2415,-6.2415,-6.2415,-6.2415,-6.2415,-6.2415,-6.2415,-6.2415,-6.2415,-6.2415,-6.203,-6.1193,-6.0417,-5.9827,-5.8767,-5.7527,-5.6396,-5.6347,-5.5937,-5.524,-5.4311,-5.4132,-5.3952,-5.3773,-5.3593,-5.3922,-5.3803,-5.3503,-5.3773,-5.3803,-5.3653,-5.3414,-5.3324,-5.3264,-5.2905,-5.2606,-5.2336,-5.1977,-5.1798,-5.1678,-5.1349,-5.1229,-5.1349,-5.1648,-5.2486,-5.3264,-5.3922,-5.4431,-5.4251,-5.4072,-5.4371,-5.4521,-5.4581,-5.485,-5.4999,-5.5149,-5.5209,-5.5209,-5.5209,-5.5209,-5.5209,-5.5209,-5.5209,-5.5209,-5.5209,-5.5209,-5.5209,-5.5209,-5.5209,-5.5209,-5.5209,-5.5209,-5.5209,-5.5209,-5.5229,-5.5819,-5.6445,-5.7574,-5.8722,-5.9478,-6.0204,-6.0745,-6.1276,-6.1797,-6.215,-6.2341,-6.2415,-6.2415,-6.2415,-6.2415,-6.2415,-6.2415,-6.2415,-6.2415,-6.2415,-6.2415,-6.2415,-6.2415,-6.2415,-6.2415,-6.2415,-6.2415,-6.2415,-6.2415,-6.2415,-6.2415,-6.2415,-6.2415,-6.2415,-6.2415,-6.2415,-6.2415,-6.2415,-6.2415,-6.2415,-6.2415,-6.2415,-6.2415,-6.2415,-6.2415,-6.2415,-6.2415,-6.2415,-6.2415,-6.2415,-6.1951,-6.0995,-5.9957,-5.8767,-5.7652,-5.6445,-5.533,-5.5501,-5.5431,-5.478,-5.3832,-5.3713,-5.3683,-5.3473,-5.3503,-5.3773,-5.3234,-5.3084,-5.3294,-5.3204,-5.3025,-5.2815,-5.2636,-5.2426,-5.2097,-5.1768,-5.1498,-5.1319,-5.1289,-5.1259,-5.1229,-5.1259,-5.1648,-5.2396,-5.3533,-5.3952,-5.4401,-5.485,-5.4999,-5.482,-5.4999,-5.5149,-5.5149,-5.5119,-5.5179,-5.5209,-5.5209,-5.5209,-5.5209,-5.5209,-5.5209,-5.5209,-5.5209,-5.5209,-5.5209,-5.5209,-5.5209,-5.5209,-5.5209,-5.5209,-5.5209,-5.5209,-5.5209,-5.5209,-5.5209,-5.528,-5.6035,-5.7181,-5.8268,-5.9258,-5.9957,-6.0745,-6.1276,-6.1951,-6.211,-6.2415,-6.2415,-6.2415,-6.2415,-6.2415,-6.2415,-6.2415,-6.2415,-6.2415,-6.2415,-6.2415,-6.2415,-6.2415,-6.2415,-6.2415,-6.2415,-6.2415,-6.242,-6.2415,-6.2415,-6.2415,-6.2415,-6.2415,-6.2415,-6.2415,-6.2415,-6.2415,-6.2415,-6.2415,-6.2415,-6.2415,-6.2415,-6.2415,-6.2415,-6.2415,-6.2415,-6.2415,-6.2381,-6.2263,-6.2341,-6.1635,-6.0374,-5.9302,-5.8223,-5.6974,-5.567,-5.527,-5.5149,-5.4491,-5.3762,-5.3384,-5.3354,-5.3264,-5.2845,-5.3414,-5.3563,-5.2815,-5.2695,-5.2815,-5.2785,-5.2486,-5.2157,-5.2247,-5.2007,-5.1648,-5.1409,-5.1229,-5.1259,-5.1229,-5.1229,-5.1229,-5.1678,-5.2306,-5.3503,-5.4072,-5.4371,-5.482,-5.5089,-5.5209,-5.5209,-5.5209,-5.5209,-5.5179,-5.5209,-5.5209,-5.5209,-5.5209,-5.5209,-5.5209,-5.5209,-5.5209,-5.5209,-5.5209,-5.5209,-5.5209,-5.5209,-5.5209,-5.5209,-5.5209,-5.5209,-5.5209,-5.5209,-5.5209,-5.5209,-5.5229,-5.528,-5.5869,-5.7086,-5.8085,-5.9093,-6.0417,-6.1358,-6.1716,-6.2263,-6.2341,-6.2415,-6.2415,-6.2415,-6.2415,-6.2415,-6.2415,-6.2415,-6.2415,-6.2415,-6.2415,-6.2415,-6.2415,-6.2415,-6.2415,-6.2415,-6.2415,-6.2415,-6.2415,-6.2415,-6.2415,-6.2415,-6.2415,-6.2415,-6.2415,-6.2415,-6.2415,-6.2415,-6.2415,-6.2415,-6.2415,-6.2415,-6.2415,-6.2415,-6.2415,-6.2415,-6.2415,-6.2415,-6.2302,-6.1877,-6.1676,-6.087,-5.9402,-5.8268,-5.7371,-5.6414,-5.513,-5.488,-5.4461,-5.3862,-5.3743,-5.3204,-5.3204,-5.3204,-5.2965,-5.3264,-5.3384,-5.3114,-5.2576,-5.2546,-5.2606,-5.2127,-5.2037,-5.2276,-5.1917,-5.1648,-5.1468,-5.1349,-5.1558,-5.1588,-5.1768,-5.2007,-5.2665,-5.3114,-5.4132,-5.4491,-5.476,-5.5059,-5.5149,-5.5209,-5.5209,-5.5209,-5.5209,-5.5209,-5.5209,-5.5209,-5.5209,-5.5209,-5.5209,-5.5209,-5.5209,-5.5209,-5.5209,-5.5209,-5.5209,-5.5209,-5.5209,-5.5209,-5.5209,-5.5209,-5.5209,-5.5209,-5.5209,-5.5209,-5.5209,-5.5381,-5.5651,-5.6378,-5.7652,-5.8451,-5.9258,-6.0828,-6.2223,-6.2415,-6.2415,-6.2415,-6.2415,-6.2415,-6.2415,-6.2415,-6.2415,-6.2415,-6.2415,-6.2415,-6.2415,-6.2415,-6.2415,-6.2415,-6.2415,-6.2415,-6.2415,-6.2415,-6.2415,-6.2415,-6.2415,-6.2415,-6.2415,-6.2415,-6.2415,-6.2415,-6.2415,-6.2415,-6.2415,-6.2415,-6.2415,-6.2415,-6.2415,-6.2415,-6.2415,-6.2415,-6.2263,-6.2183,-6.1951,-6.211,-6.0912,-6.0459,-5.9784,-5.8282,-5.7527,-5.6704,-5.5876,-5.491,-5.4221,-5.3832,-5.3743,-5.4042,-5.3054,-5.2995,-5.3743,-5.3144,-5.3503,-5.4341,-5.3623,-5.2845,-5.2965,-5.2815,-5.2516,-5.2875,-5.2665,-5.2276,-5.2127,-5.1917,-5.1648,-5.2067,-5.2366,-5.2576,-5.3174,-5.3653,-5.4042,-5.4401,-5.482,-5.4999,-5.5149,-5.5179,-5.5209,-5.5209,-5.5209,-5.5209,-5.5209,-5.5209,-5.5209,-5.5209,-5.5209,-5.5209,-5.5209,-5.5209,-5.5209,-5.5209,-5.5209,-5.5209,-5.5209,-5.5209,-5.5209,-5.5209,-5.5209,-5.5209,-5.5209,-5.5209,-5.5209,-5.5209,-5.533,-5.57,-5.6427,-5.7621,-5.8722,-5.9434,-6.1036,-6.2341,-6.2415,-6.2415,-6.2415,-6.2415,-6.2415,-6.2415,-6.2415,-6.2415,-6.2415,-6.2415,-6.2415,-6.2415,-6.2415,-6.2415,-6.2415,-6.2415,-6.2415,-6.2415,-6.2415,-6.2415,-6.2415,-6.2415,-6.2415,-6.2415,-6.2415,-6.2415,-6.2415,-6.2415,-6.2415,-6.2415,-6.2415,-6.2415,-6.2415,-6.2415,-6.2415,-6.2415,-6.2381,-6.215,-6.1595,-6.1119,-6.0628,-5.9784,-5.9258,-5.8992,-5.7621,-5.6991,-5.6638,-5.5846,-5.482,-5.4281,-5.3683,-5.3204,-5.3414,-5.2875,-5.3264,-5.4132,-5.3563,-5.4102,-5.5029,-5.4371,-5.3683,-5.3803,-5.3384,-5.3054,-5.3174,-5.2965,-5.2935,-5.2875,-5.2815,-5.2755,-5.2965,-5.2935,-5.3294,-5.3922,-5.4132,-5.4461,-5.488,-5.5059,-5.5149,-5.5209,-5.5209,-5.5209,-5.5209,-5.5209,-5.5209,-5.5209,-5.5209,-5.5209,-5.5209,-5.5209,-5.5209,-5.5209,-5.5209,-5.5209,-5.5209,-5.5209,-5.5209,-5.5209,-5.5209,-5.5209,-5.5209,-5.5209,-5.5209,-5.5209,-5.5209,-5.5209,-5.5209,-5.5209,-5.5481,-5.5869,-5.6848,-5.8632,-5.961,-6.1235,-6.2263,-6.2341,-6.2415,-6.2415,-6.2415,-6.2415,-6.2415,-6.2415,-6.2415,-6.2415,-6.2415,-6.2415,-6.2415,-6.2415,-6.2415,-6.2415,-6.2415,-6.2415,-6.2415,-6.2415,-6.2415,-6.2415,-6.2415,-6.2415,-6.2415,-6.2415,-6.2415,-6.2415,-6.2415,-6.2415,-6.2415,-6.2415,-6.2415,-6.2415,-6.2415,-6.2415,-6.2415,-6.1951,-6.1676,-6.0953,-6.0332,-5.961,-5.8722,-5.8177,-5.748,-5.6848,-5.6329,-5.5888,-5.5269,-5.4551,-5.4371,-5.3384,-5.2845,-5.3354,-5.3324,-5.3294,-5.4042,-5.4281,-5.4551,-5.5119,-5.476,-5.464,-5.4551,-5.4042,-5.3862,-5.3892,-5.3832,-5.3713,-5.3503,-5.3443,-5.3414,-5.3683,-5.3922,-5.4192,-5.4581,-5.47,-5.485,-5.5059,-5.5179,-5.5209,-5.5209,-5.5209,-5.5209,-5.5209,-5.5209,-5.5209,-5.5209,-5.5209,-5.5209,-5.5209,-5.5209,-5.5209,-5.5209,-5.5209,-5.5209,-5.5209,-5.5209,-5.5209,-5.5209,-5.5209,-5.5209,-5.5209,-5.5209,-5.5209,-5.5209,-5.5209,-5.5209,-5.5209,-5.5209,-5.5209,-5.5601,-5.6232,-5.7946,-5.9478,-6.087,-6.1991,-6.2341,-6.2415,-6.2415,-6.2415,-6.2415,-6.2415,-6.2415,-6.2415,-6.2415,-6.2415,-6.2415,-6.2415,-6.2415,-6.2415,-6.2415,-6.2415,-6.2415,-6.2415,-6.2415,-6.2415,-6.2415,-6.2415,-6.2415,-6.2415,-6.2415,-6.2415,-6.2415,-6.2415,-6.2415,-6.2415,-6.2415,-6.2415,-6.2415,-6.2415,-6.2415,-6.2144,-6.1399,-6.0661,-5.9827,-5.9258,-5.8464,-5.7292,-5.6896,-5.6445,-5.5819,-5.5601,-5.519,-5.466,-5.47,-5.476,-5.3563,-5.3054,-5.3713,-5.3563,-5.3114,-5.3952,-5.4401,-5.47,-5.5059,-5.5059,-5.5119,-5.494,-5.467,-5.47,-5.473,-5.47,-5.4371,-5.4132,-5.3982,-5.3892,-5.4192,-5.473,-5.488,-5.4999,-5.5029,-5.5089,-5.5209,-5.5209,-5.5209,-5.5209,-5.5209,-5.5209,-5.5209,-5.5209,-5.5209,-5.5209,-5.5209,-5.5209,-5.5209,-5.5209,-5.5209,-5.5209,-5.5209,-5.5209,-5.5209,-5.5209,-5.5209,-5.5209,-5.5209,-5.5209,-5.5209,-5.5209,-5.5209,-5.5209,-5.5209,-5.5209,-5.5209,-5.5209,-5.5209,-5.5431,-5.6183,-5.7371,-5.8632,-5.986,-6.0912,-6.207,-6.2415,-6.2415,-6.2415,-6.2415,-6.2415,-6.2415,-6.2415,-6.2415,-6.2415,-6.2415,-6.2415,-6.2415,-6.2415,-6.2415,-6.2415,-6.2415,-6.2415,-6.2415,-6.2415,-6.2415,-6.2415,-6.2415,-6.2415,-6.2415,-6.2415,-6.2415,-6.2415,-6.2415,-6.2415,-6.2415,-6.2415,-6.2415,-6.2381,-6.2341,-6.1317,-6.0619,-6.0204,-5.8992,-5.7946,-5.7181,-5.628,-5.5769,-5.5551,-5.5451,-5.528,-5.497,-5.464,-5.4401,-5.467,-5.3713,-5.3384,-5.4132,-5.4132,-5.4132,-5.476,-5.4999,-5.4999,-5.5209,-5.5209,-5.5209,-5.5209,-5.5059,-5.5089,-5.5089,-5.5089,-5.4999,-5.494,-5.488,-5.491,-5.5029,-5.5089,-5.5179,-5.5209,-5.5209,-5.5209,-5.5209,-5.5209,-5.5209,-5.5209,-5.5209,-5.5209,-5.5209,-5.5209,-5.5209,-5.5209,-5.5209,-5.5209,-5.5209,-5.5209,-5.5209,-5.5209,-5.5209,-5.5209,-5.5209,-5.5209,-5.5209,-5.5209,-5.5209,-5.5209,-5.5209,-5.5209,-5.5209,-5.5209,-5.5209,-5.5209,-5.5209,-5.5209,-5.5179,-5.5229,-5.6017,-5.6879,-5.8039,-5.917,-6.0501,-6.1951,-6.2302,-6.2415,-6.2415,-6.2415,-6.2415,-6.2415,-6.2415,-6.2415,-6.2415,-6.2415,-6.2415,-6.2415,-6.2415,-6.2415,-6.2415,-6.2415,-6.2415,-6.2415,-6.2415,-6.2415]},{"header":{"parameterUnit":"m.s-1","parameterCategory":1,"la1":31.0,"la2":29.5877,"lo1":-88.7671,"lo2":-86.6584,"dy":0.0162,"dx":0.0185,"nx":115,"ny":88,"refTime":"2024-02-17T06:00:00:Z","depth":0,"parameterNumber":3,"parameterNumberName":"V-component_of_WINDS"},"data":[0.0,0.0,0.0,0.0,0.0,0.0,0.0,0.0,0.0,0.0,0.0,0.0,0.0,0.0,0.0,0.0,0.0,0.0,0.0,0.0,0.0,0.0,0.0,0.0,0.0,0.0,0.0,0.0,0.0,0.0,0.0,0.0,0.0,0.0,0.0,0.0,0.0,0.0,0.0,0.0,0.0,0.0,0.0,0.0,0.0,0.0,0.0,0.0,0.0,0.0,0.0,0.0,0.0,0.0,0.0,0.0,0.0,0.0,0.0,0.0,0.0,0.0,0.0,0.0,0.0,0.0,0.0,0.0,0.0,0.0,0.0,0.0,0.0,0.0,0.0,0.0,0.0,0.0,0.0,0.0,0.0,0.0,0.0,0.0,0.0,0.0,0.0,0.0,0.0,0.0,0.0,0.0,0.0,0.0,0.0,0.0,0.0,0.0,0.0,0.0,0.0,0.0,0.0,0.0,0.0,0.0,0.0,0.0,0.0,0.0,0.0,0.0,0.0,0.0,0.0,0.0,0.0,0.0,0.0,0.0,0.0,0.0,0.0,0.0,0.0,0.0,0.0,0.0,0.0,0.0,0.0,0.0,0.0,0.0,0.0,0.0,0.0,0.0,0.0,0.0,0.0,0.0,0.0,0.0,0.0,0.0,0.0,0.0,0.0,0.0,0.0,0.0,0.0,0.0,0.0,0.0,0.0,0.0,0.0,0.0,0.0,0.0,0.0,0.0,0.0,0.0,0.0,0.0,0.0,0.0,0.0,0.0,0.0,0.0,0.0,0.0,0.0,0.0,0.0,0.0,0.0,0.0,0.0,0.0,0.0,0.0,0.0,0.0,0.0,0.0,0.0,0.0,0.0,0.0,0.0,0.0,0.0,0.0,0.0,0.0,0.0,0.0,0.0,0.0,0.0,0.0,0.0,0.0,0.0,0.0,0.0,0.0,0.0,0.0,0.0,0.0,0.0,0.0,0.0,0.0,0.0,0.0,0.0,0.0,0.0,0.0,0.0,0.0,0.0,0.0,0.0,0.0,0.0,0.0,0.0,0.0,0.0,0.0,0.0,0.0,0.0,0.0,0.0,0.0,0.0,0.0,0.0,0.0,0.0,0.0,0.0,0.0,0.0,0.0,0.0,0.0,0.0,0.0,0.0,0.0,0.0,0.0,0.0,0.0,0.0,0.0,0.0,0.0,0.0,0.0,0.0,0.0,0.0,0.0,0.0,0.0,0.0,0.0,0.0,0.0,0.0,0.0,0.0,0.0,0.0,0.0,0.0,0.0,0.0,0.0,0.0,0.0,0.0,0.0,0.0,0.0,0.0,0.0,0.0,0.0,0.0,0.0,0.0,0.0,0.0,0.0,0.0,0.0,0.0,0.0,0.0,0.0,0.0,0.0,0.0,0.0,0.0,0.0,0.0,0.0,0.0,0.0,0.0,0.0,0.0,0.0,0.0,0.0,0.0,0.0,0.0,0.0,0.0,0.0,0.0,0.0,0.0,0.0,0.0,0.0,0.0,0.0,0.0,0.0,0.0,0.0,0.0,0.0,0.0,0.0,0.0,0.0,0.0,0.0,0.0,0.0,0.0,0.0,0.0,0.0,0.0,0.0,0.0,0.0,0.0,0.0,0.0,0.0,0.0,0.0,0.0,0.0,0.0,0.0,0.0,0.0,0.0,0.0,0.0,0.0,0.0,0.0,0.0,0.0,0.0,0.0,0.0,0.0,0.0,0.0,0.0,0.0,0.0,0.0,0.0,0.0,0.0,0.0,0.0,0.0,0.0,0.0,0.0,0.0,0.0,0.0,0.0,0.0,0.0,0.0,0.0,0.0,0.0,0.0,0.0,0.0,0.0,0.0,0.0,0.0,0.0,0.0,0.0,0.0,0.0,0.0,0.0,0.0,0.0,0.0,0.0,0.0,0.0,0.0,0.0,0.0,0.0,0.0,0.0,0.0,0.0,0.0,0.0,0.0,0.0,0.0,0.0,0.0,0.0,0.0,0.0,0.0,0.0,0.0,0.0,0.0,0.0,0.0,0.0,0.0,0.0,0.0,0.0,0.0,0.0,0.0,0.0,0.0,0.0,0.0,0.0,0.0,0.0,0.0,0.0,0.0,0.0,0.0,0.0,0.0,0.0,0.0,0.0,0.0,0.0,0.0,0.0,0.0,0.0,0.0,0.0,0.0,0.0,0.0,0.0,0.0,0.0,0.0,0.0,0.0,0.0,0.0,0.0,0.0,0.0,0.0,0.0,0.0,0.0,0.0,0.0,0.0,0.0,0.0,0.0,0.0,0.0,0.0,0.0,0.0,0.0,0.0,0.0,0.0,0.0,0.0,0.0,0.0,0.0,0.0,0.0,0.0,0.0,0.0,0.0,0.0,0.0,0.0,0.0,0.0,0.0,0.0,0.0,0.0,0.0,0.0,0.0,0.0,0.0,0.0,0.0,0.0,0.0,0.0,0.0,0.0,0.0,0.0,0.0,0.0,0.0,0.0,0.0,0.0,0.0,0.0,0.0,0.0,0.0,0.0,0.0,0.0,0.0,0.0,0.0,0.0,0.0,0.0,0.0,0.0,0.0,0.0,0.0,0.0,0.0,0.0,0.0,0.0,0.0,0.0,0.0,0.0,0.0,0.0,0.0,0.0,0.0,0.0,0.0,0.0,0.0,0.0,0.0,0.0,0.0,0.0,0.0,0.0,0.0,0.0,0.0,0.0,0.0,0.0,0.0,0.0,0.0,0.0,0.0,0.0,0.0,0.0,0.0,0.0,0.0,0.0,0.0,0.0,0.0,0.0,0.0,0.0,0.0,0.0,0.0,0.0,0.0,0.0,0.0,0.0,0.0,0.0,0.0,0.0,0.0,0.0,0.0,0.0,0.0,0.0,0.0,0.0,0.0,0.0,0.0,0.0,0.0,0.0,0.0,0.0,0.0,0.0,0.0,0.0,0.0,0.0,0.0,0.0,0.0,0.0,0.0,0.0,0.0,0.0,0.0,0.0,0.0,0.0,0.0,0.0,0.0,0.0,0.0,0.0,0.0,0.0,0.0,0.0,0.0,0.0,0.0,0.0,0.0,0.0,0.0,0.0,0.0,0.0,0.0,0.0,0.0,0.0,0.0,0.0,0.0,0.0,0.0,0.0,0.0,0.0,0.0,0.0,0.0,0.0,0.0,0.0,0.0,0.0,0.0,0.0,0.0,0.0,0.0,0.0,0.0,0.0,0.0,0.0,0.0,0.0,0.0,0.0,0.0,0.0,0.0,0.0,0.0,0.0,0.0,0.0,0.0,0.0,0.0,0.0,0.0,0.0,0.0,0.0,0.0,0.0,0.0,0.0,0.0,0.0,0.0,0.0,0.0,0.0,0.0,0.0,0.0,0.0,0.0,0.0,0.0,0.0,0.0,0.0,0.0,0.0,0.0,0.0,0.0,0.0,0.0,0.0,0.0,0.0,0.0,0.0,0.0,0.0,0.0,0.0,0.0,0.0,0.0,0.0,0.0,0.0,0.0,0.0,0.0,0.0,0.0,0.0,0.0,0.0,0.0,0.0,0.0,0.0,0.0,0.0,0.0,0.0,0.0,0.0,0.0,0.0,0.0,0.0,0.0,0.0,0.0,0.0,0.0,0.0,0.0,0.0,0.0,0.0,0.0,0.0,0.0,0.0,0.0,0.0,0.0,0.0,0.0,0.0,0.0,0.0,0.0,0.0,0.0,0.0,0.0,0.0,0.0,0.0,0.0,0.0,0.0,0.0,0.0,0.0,0.0,0.0,0.0,0.0,0.0,0.0,0.0,0.0,0.0,0.0,0.0,0.0,0.0,0.0,0.0,0.0,0.0,0.0,0.0,0.0,0.0,0.0,0.0,0.0,0.0,0.0,0.0,0.0,0.0,0.0,0.0,0.0,0.0,0.0,0.0,0.0,0.0,0.0,0.0,0.0,0.0,0.0,0.0,0.0,0.0,0.0,0.0,0.0,0.0,0.0,0.0,0.0,0.0,0.0,0.0,0.0,0.0,0.0,0.0,0.0,0.0,0.0,0.0,0.0,0.0,0.0,0.0,0.0,0.0,0.0,0.0,0.0,0.0,0.0,0.0,0.0,0.0,0.0,0.0,0.0,0.0,0.0,0.0,0.0,0.0,0.0,0.0,0.0,0.0,0.0,0.0,0.0,0.0,0.0,0.0,0.0,0.0,0.0,0.0,0.0,0.0,0.0,0.0,0.0,0.0,0.0,0.0,0.0,0.0,0.0,0.0,0.0,0.0,0.0,0.0,0.0,0.0,0.0,-3.7207,0.0,0.0,0.0,0.0,0.0,0.0,0.0,0.0,0.0,0.0,0.0,0.0,0.0,0.0,0.0,0.0,0.0,0.0,0.0,0.0,0.0,0.0,0.0,0.0,0.0,0.0,0.0,0.0,0.0,0.0,0.0,0.0,0.0,0.0,0.0,0.0,0.0,0.0,0.0,0.0,0.0,0.0,0.0,0.0,0.0,0.0,0.0,0.0,0.0,0.0,0.0,0.0,0.0,0.0,0.0,0.0,0.0,0.0,0.0,0.0,0.0,0.0,0.0,0.0,0.0,0.0,0.0,0.0,0.0,0.0,0.0,0.0,0.0,0.0,0.0,0.0,0.0,0.0,0.0,0.0,0.0,0.0,0.0,0.0,0.0,0.0,0.0,0.0,0.0,0.0,0.0,0.0,0.0,0.0,0.0,0.0,0.0,0.0,0.0,0.0,0.0,0.0,0.0,0.0,0.0,0.0,0.0,0.0,0.0,0.0,-3.8144,-3.8555,-3.7969,-3.7637,-3.7617,0.0,0.0,0.0,0.0,0.0,0.0,0.0,0.0,0.0,0.0,0.0,0.0,0.0,0.0,0.0,0.0,0.0,0.0,0.0,0.0,0.0,0.0,0.0,0.0,0.0,0.0,0.0,0.0,0.0,0.0,0.0,0.0,0.0,0.0,0.0,0.0,0.0,0.0,0.0,0.0,0.0,0.0,0.0,0.0,0.0,0.0,0.0,0.0,0.0,0.0,0.0,0.0,0.0,0.0,0.0,0.0,0.0,0.0,0.0,0.0,0.0,0.0,0.0,0.0,0.0,0.0,0.0,0.0,0.0,0.0,0.0,0.0,0.0,0.0,0.0,0.0,0.0,0.0,0.0,0.0,0.0,0.0,0.0,0.0,0.0,0.0,0.0,0.0,0.0,0.0,0.0,0.0,0.0,0.0,0.0,0.0,0.0,0.0,0.0,0.0,0.0,0.0,0.0,0.0,0.0,0.0,0.0,0.0,0.0,0.0,0.0,0.0,-3.8144,-3.7832,-3.7637,0.0,0.0,0.0,0.0,0.0,0.0,0.0,0.0,0.0,0.0,0.0,0.0,0.0,0.0,0.0,0.0,0.0,0.0,0.0,0.0,0.0,0.0,0.0,0.0,0.0,0.0,0.0,0.0,0.0,0.0,0.0,0.0,0.0,0.0,0.0,0.0,0.0,0.0,0.0,0.0,0.0,0.0,0.0,0.0,0.0,0.0,0.0,0.0,0.0,0.0,0.0,0.0,0.0,0.0,0.0,0.0,0.0,0.0,0.0,0.0,0.0,0.0,0.0,0.0,0.0,0.0,0.0,0.0,0.0,0.0,0.0,0.0,0.0,0.0,0.0,0.0,0.0,0.0,0.0,0.0,0.0,0.0,0.0,0.0,0.0,0.0,0.0,0.0,0.0,0.0,0.0,0.0,0.0,0.0,0.0,0.0,0.0,0.0,0.0,0.0,0.0,0.0,0.0,0.0,0.0,0.0,0.0,0.0,0.0,0.0,-3.8144,-3.8555,-3.8144,0.0,-3.6855,0.0,0.0,0.0,0.0,0.0,0.0,0.0,0.0,0.0,0.0,0.0,0.0,0.0,0.0,0.0,0.0,0.0,0.0,0.0,0.0,0.0,0.0,0.0,0.0,0.0,0.0,0.0,0.0,0.0,0.0,0.0,0.0,0.0,0.0,0.0,0.0,0.0,0.0,0.0,0.0,0.0,0.0,0.0,0.0,0.0,0.0,0.0,0.0,0.0,0.0,0.0,0.0,0.0,0.0,0.0,0.0,0.0,0.0,0.0,0.0,0.0,0.0,0.0,0.0,0.0,0.0,0.0,0.0,0.0,0.0,0.0,0.0,0.0,0.0,0.0,0.0,0.0,0.0,0.0,0.0,0.0,0.0,0.0,0.0,0.0,0.0,0.0,0.0,0.0,0.0,0.0,0.0,0.0,0.0,0.0,0.0,0.0,0.0,0.0,0.0,0.0,0.0,0.0,0.0,0.0,0.0,0.0,0.0,0.0,0.0,-3.8125,-3.8574,-3.8164,-3.7656,0.0,0.0,0.0,0.0,0.0,0.0,0.0,0.0,0.0,0.0,0.0,0.0,0.0,0.0,0.0,0.0,0.0,0.0,0.0,0.0,0.0,0.0,0.0,0.0,0.0,0.0,0.0,0.0,0.0,0.0,0.0,0.0,0.0,0.0,0.0,0.0,0.0,0.0,0.0,0.0,0.0,0.0,0.0,0.0,0.0,0.0,0.0,0.0,0.0,0.0,0.0,0.0,0.0,0.0,0.0,0.0,0.0,0.0,0.0,0.0,0.0,0.0,0.0,0.0,0.0,0.0,0.0,0.0,0.0,0.0,0.0,0.0,0.0,0.0,0.0,0.0,0.0,0.0,0.0,0.0,0.0,0.0,0.0,0.0,0.0,0.0,0.0,0.0,0.0,0.0,0.0,0.0,0.0,0.0,0.0,0.0,0.0,0.0,0.0,0.0,0.0,0.0,0.0,0.0,0.0,0.0,0.0,0.0,0.0,0.0,-3.8203,-3.8262,-3.8535,-3.8144,-3.7734,-3.7305,0.0,0.0,0.0,0.0,0.0,0.0,0.0,0.0,0.0,0.0,0.0,0.0,0.0,0.0,0.0,0.0,0.0,0.0,0.0,0.0,0.0,0.0,0.0,0.0,0.0,0.0,0.0,0.0,0.0,0.0,0.0,0.0,0.0,0.0,0.0,0.0,0.0,0.0,0.0,0.0,0.0,0.0,0.0,0.0,0.0,0.0,0.0,0.0,0.0,0.0,0.0,0.0,0.0,0.0,0.0,0.0,0.0,0.0,0.0,0.0,0.0,0.0,0.0,0.0,0.0,0.0,0.0,0.0,0.0,0.0,0.0,0.0,0.0,0.0,0.0,0.0,0.0,0.0,0.0,0.0,0.0,0.0,0.0,0.0,0.0,0.0,0.0,0.0,0.0,0.0,0.0,0.0,0.0,0.0,0.0,0.0,0.0,0.0,0.0,0.0,0.0,0.0,0.0,0.0,0.0,0.0,0.0,0.0,-3.7969,-3.832,-3.8535,-3.8535,-3.8144,-3.7734,0.0,0.0,0.0,0.0,0.0,0.0,0.0,0.0,0.0,0.0,0.0,0.0,0.0,0.0,0.0,0.0,0.0,0.0,0.0,0.0,0.0,0.0,0.0,0.0,0.0,0.0,0.0,0.0,0.0,0.0,0.0,0.0,0.0,0.0,0.0,0.0,0.0,0.0,0.0,0.0,0.0,0.0,0.0,0.0,0.0,0.0,0.0,0.0,0.0,0.0,0.0,0.0,0.0,0.0,0.0,0.0,0.0,0.0,0.0,0.0,0.0,0.0,0.0,0.0,0.0,0.0,0.0,0.0,0.0,0.0,0.0,0.0,0.0,0.0,0.0,0.0,0.0,0.0,0.0,0.0,0.0,0.0,0.0,0.0,0.0,0.0,0.0,0.0,0.0,0.0,0.0,0.0,0.0,0.0,0.0,0.0,0.0,0.0,0.0,0.0,0.0,0.0,0.0,0.0,0.0,0.0,0.0,0.0,0.0,-3.7539,-3.7676,-3.7754,-3.7754,-3.7344,-3.6914,0.0,0.0,0.0,0.0,0.0,0.0,0.0,0.0,0.0,0.0,0.0,0.0,0.0,0.0,0.0,0.0,0.0,0.0,0.0,0.0,0.0,0.0,0.0,0.0,0.0,0.0,0.0,0.0,0.0,0.0,0.0,0.0,0.0,0.0,0.0,0.0,0.0,0.0,0.0,0.0,0.0,0.0,0.0,0.0,0.0,0.0,0.0,0.0,0.0,0.0,0.0,0.0,0.0,0.0,0.0,0.0,0.0,0.0,0.0,0.0,0.0,0.0,0.0,0.0,0.0,0.0,0.0,0.0,0.0,0.0,0.0,0.0,0.0,0.0,0.0,0.0,0.0,0.0,0.0,0.0,0.0,0.0,0.0,0.0,0.0,0.0,0.0,0.0,0.0,0.0,0.0,0.0,0.0,0.0,0.0,0.0,0.0,0.0,0.0,0.0,0.0,0.0,0.0,0.0,0.0,0.0,0.0,0.0,0.0,-3.7305,0.0,-3.7168,-3.7285,-3.6894,-3.6465,0.0,0.0,0.0,0.0,0.0,0.0,0.0,0.0,0.0,0.0,0.0,0.0,0.0,0.0,0.0,0.0,0.0,0.0,0.0,0.0,0.0,0.0,0.0,0.0,0.0,0.0,0.0,0.0,0.0,0.0,0.0,0.0,0.0,0.0,0.0,0.0,0.0,0.0,0.0,0.0,0.0,0.0,0.0,0.0,0.0,0.0,0.0,0.0,0.0,0.0,0.0,0.0,0.0,0.0,0.0,0.0,0.0,0.0,0.0,0.0,0.0,0.0,0.0,0.0,0.0,0.0,0.0,0.0,0.0,0.0,0.0,0.0,0.0,0.0,0.0,0.0,0.0,0.0,0.0,0.0,0.0,0.0,0.0,0.0,0.0,0.0,0.0,0.0,0.0,0.0,0.0,0.0,0.0,0.0,0.0,0.0,0.0,0.0,0.0,0.0,0.0,0.0,0.0,0.0,0.0,0.0,0.0,0.0,-3.7266,-3.7266,-3.6875,-3.6836,-3.7246,-3.6855,-3.6445,0.0,0.0,0.0,0.0,0.0,0.0,0.0,0.0,0.0,0.0,0.0,0.0,0.0,0.0,0.0,0.0,0.0,0.0,0.0,0.0,0.0,0.0,0.0,0.0,0.0,0.0,0.0,0.0,0.0,0.0,0.0,0.0,0.0,0.0,0.0,0.0,0.0,0.0,0.0,0.0,0.0,0.0,0.0,0.0,0.0,0.0,0.0,0.0,0.0,0.0,0.0,0.0,0.0,0.0,0.0,0.0,0.0,0.0,0.0,0.0,0.0,0.0,0.0,0.0,0.0,0.0,0.0,0.0,0.0,0.0,0.0,0.0,0.0,0.0,0.0,0.0,0.0,0.0,0.0,0.0,0.0,0.0,0.0,0.0,0.0,0.0,0.0,0.0,0.0,0.0,0.0,0.0,0.0,0.0,0.0,0.0,0.0,0.0,0.0,0.0,0.0,0.0,0.0,0.0,0.0,0.0,0.0,0.0,0.0,-3.6406,-3.6289,-3.6289,-3.6406,-3.6289,-3.6016,0.0,0.0,0.0,0.0,0.0,0.0,0.0,0.0,0.0,0.0,0.0,0.0,0.0,0.0,0.0,0.0,0.0,0.0,0.0,0.0,0.0,0.0,0.0,0.0,0.0,0.0,0.0,0.0,0.0,0.0,0.0,0.0,0.0,0.0,0.0,0.0,0.0,0.0,0.0,0.0,0.0,0.0,0.0,0.0,0.0,0.0,0.0,0.0,0.0,0.0,0.0,0.0,0.0,0.0,0.0,0.0,0.0,0.0,0.0,0.0,0.0,0.0,0.0,0.0,0.0,0.0,0.0,0.0,0.0,0.0,0.0,0.0,0.0,0.0,0.0,0.0,0.0,0.0,0.0,0.0,0.0,0.0,0.0,0.0,0.0,0.0,0.0,0.0,0.0,0.0,0.0,0.0,0.0,0.0,0.0,0.0,0.0,0.0,0.0,0.0,0.0,0.0,0.0,0.0,0.0,0.0,0.0,0.0,0.0,-3.625,-3.6094,-3.6035,-3.6035,-3.6035,-3.582,-3.543,0.0,0.0,0.0,0.0,0.0,0.0,0.0,0.0,0.0,0.0,0.0,0.0,0.0,0.0,0.0,0.0,0.0,0.0,0.0,0.0,0.0,0.0,0.0,0.0,0.0,0.0,0.0,0.0,0.0,0.0,0.0,0.0,0.0,0.0,0.0,0.0,0.0,0.0,0.0,0.0,0.0,0.0,0.0,0.0,0.0,0.0,0.0,0.0,0.0,0.0,0.0,0.0,0.0,0.0,0.0,0.0,0.0,0.0,0.0,0.0,0.0,0.0,0.0,0.0,0.0,0.0,0.0,0.0,0.0,0.0,0.0,0.0,0.0,0.0,0.0,0.0,0.0,0.0,0.0,0.0,0.0,0.0,0.0,0.0,0.0,0.0,0.0,0.0,0.0,0.0,0.0,0.0,0.0,0.0,0.0,0.0,0.0,0.0,0.0,0.0,0.0,0.0,0.0,0.0,0.0,0.0,0.0,0.0,-3.666,-3.6289,-3.6094,-3.6074,-3.6074,-3.5859,0.0,0.0,0.0,0.0,0.0,0.0,0.0,0.0,0.0,0.0,0.0,0.0,0.0,0.0,0.0,0.0,0.0,0.0,0.0,0.0,0.0,0.0,0.0,0.0,0.0,0.0,0.0,0.0,0.0,0.0,0.0,0.0,0.0,0.0,0.0,0.0,0.0,0.0,0.0,0.0,0.0,0.0,0.0,0.0,0.0,0.0,0.0,0.0,0.0,0.0,0.0,0.0,0.0,0.0,0.0,0.0,0.0,0.0,0.0,0.0,0.0,0.0,0.0,0.0,0.0,0.0,0.0,0.0,0.0,0.0,0.0,0.0,0.0,0.0,0.0,0.0,0.0,0.0,0.0,0.0,0.0,0.0,0.0,0.0,0.0,0.0,0.0,0.0,0.0,0.0,0.0,0.0,0.0,0.0,0.0,0.0,0.0,0.0,0.0,0.0,0.0,0.0,0.0,0.0,0.0,0.0,0.0,0.0,0.0,-3.668,-3.6875,-3.6816,-3.6523,-3.6504,-3.6289,0.0,0.0,0.0,0.0,0.0,0.0,0.0,0.0,0.0,0.0,0.0,0.0,0.0,0.0,0.0,0.0,0.0,0.0,0.0,0.0,0.0,0.0,0.0,0.0,0.0,0.0,0.0,0.0,0.0,0.0,0.0,0.0,0.0,0.0,0.0,0.0,0.0,0.0,0.0,0.0,0.0,0.0,0.0,0.0,0.0,0.0,0.0,0.0,0.0,0.0,0.0,0.0,0.0,0.0,0.0,0.0,0.0,0.0,0.0,0.0,0.0,0.0,0.0,0.0,0.0,0.0,0.0,0.0,0.0,0.0,0.0,0.0,0.0,0.0,0.0,0.0,0.0,0.0,0.0,0.0,0.0,0.0,0.0,0.0,0.0,0.0,0.0,0.0,0.0,0.0,0.0,0.0,0.0,0.0,0.0,0.0,0.0,0.0,0.0,0.0,0.0,0.0,0.0,0.0,0.0,0.0,0.0,0.0,-3.6758,-3.6934,-3.7344,-3.7441,-3.7207,-3.7031,-3.6738,0.0,0.0,0.0,0.0,0.0,0.0,0.0,0.0,0.0,0.0,0.0,0.0,0.0,0.0,0.0,0.0,0.0,0.0,0.0,0.0,0.0,0.0,0.0,0.0,0.0,0.0,0.0,0.0,0.0,0.0,0.0,0.0,0.0,0.0,0.0,0.0,0.0,0.0,0.0,0.0,0.0,0.0,0.0,0.0,0.0,0.0,0.0,0.0,0.0,0.0,0.0,0.0,0.0,0.0,0.0,0.0,0.0,0.0,0.0,0.0,0.0,0.0,0.0,0.0,0.0,0.0,0.0,0.0,0.0,0.0,0.0,0.0,0.0,0.0,0.0,0.0,0.0,0.0,0.0,0.0,0.0,0.0,0.0,0.0,0.0,0.0,0.0,0.0,0.0,0.0,0.0,0.0,0.0,0.0,0.0,0.0,0.0,0.0,0.0,0.0,0.0,0.0,0.0,0.0,0.0,0.0,0.0,0.0,-3.6934,-3.7285,-3.7754,-3.7988,-3.7988,-3.7539,-3.7109,0.0,0.0,0.0,0.0,0.0,0.0,0.0,0.0,0.0,0.0,0.0,0.0,0.0,0.0,0.0,0.0,0.0,0.0,0.0,0.0,0.0,0.0,0.0,0.0,0.0,0.0,0.0,0.0,0.0,0.0,0.0,0.0,0.0,0.0,0.0,0.0,0.0,0.0,0.0,0.0,0.0,0.0,0.0,0.0,0.0,0.0,0.0,0.0,0.0,0.0,0.0,0.0,0.0,0.0,0.0,0.0,0.0,0.0,0.0,0.0,0.0,0.0,0.0,0.0,0.0,0.0,0.0,0.0,0.0,0.0,0.0,0.0,0.0,0.0,0.0,0.0,0.0,0.0,0.0,0.0,0.0,0.0,0.0,0.0,0.0,0.0,0.0,0.0,0.0,0.0,0.0,0.0,0.0,0.0,0.0,0.0,0.0,0.0,0.0,0.0,0.0,0.0,0.0,0.0,0.0,0.0,0.0,0.0,-3.7207,-3.7305,-3.8047,-3.8437,-3.8437,-3.7695,-3.7109,0.0,0.0,0.0,0.0,0.0,0.0,0.0,0.0,0.0,0.0,0.0,0.0,0.0,0.0,0.0,0.0,0.0,0.0,0.0,0.0,0.0,0.0,0.0,0.0,0.0,0.0,0.0,0.0,0.0,0.0,0.0,0.0,0.0,0.0,0.0,0.0,0.0,0.0,0.0,0.0,0.0,0.0,0.0,0.0,0.0,0.0,0.0,0.0,-3.6035,0.0,0.0,0.0,0.0,0.0,0.0,0.0,0.0,0.0,0.0,0.0,0.0,0.0,0.0,0.0,0.0,0.0,0.0,0.0,0.0,0.0,0.0,0.0,0.0,0.0,0.0,0.0,0.0,0.0,0.0,0.0,0.0,0.0,0.0,0.0,0.0,0.0,0.0,0.0,0.0,0.0,0.0,0.0,0.0,0.0,0.0,0.0,0.0,0.0,0.0,0.0,0.0,0.0,0.0,0.0,0.0,0.0,0.0,0.0,-3.709,-3.7305,-3.793,-3.8359,-3.8535,-3.7754,-3.7187,0.0,0.0,0.0,0.0,0.0,0.0,0.0,0.0,0.0,0.0,0.0,0.0,0.0,0.0,0.0,0.0,0.0,0.0,0.0,0.0,0.0,0.0,0.0,0.0,0.0,0.0,0.0,0.0,0.0,0.0,0.0,0.0,0.0,0.0,0.0,0.0,0.0,0.0,0.0,0.0,0.0,0.0,0.0,0.0,0.0,0.0,0.0,0.0,0.0,0.0,0.0,0.0,0.0,0.0,0.0,0.0,0.0,0.0,0.0,0.0,0.0,0.0,0.0,0.0,0.0,0.0,0.0,0.0,0.0,0.0,0.0,0.0,0.0,0.0,0.0,0.0,0.0,0.0,0.0,0.0,0.0,0.0,0.0,0.0,0.0,0.0,0.0,0.0,0.0,0.0,0.0,0.0,0.0,0.0,0.0,0.0,0.0,0.0,0.0,0.0,0.0,0.0,0.0,0.0,0.0,0.0,0.0,-3.5976,-3.6816,-3.7285,-3.7715,-3.8125,-3.8535,-3.7754,-3.7305,-3.7285,0.0,0.0,0.0,0.0,0.0,0.0,0.0,0.0,0.0,0.0,0.0,0.0,0.0,0.0,0.0,0.0,0.0,0.0,0.0,0.0,0.0,0.0,0.0,0.0,0.0,0.0,0.0,0.0,0.0,0.0,0.0,0.0,0.0,0.0,0.0,0.0,0.0,0.0,-3.6172,-3.6172,0.0,0.0,0.0,0.0,0.0,0.0,0.0,0.0,-3.6035,0.0,0.0,0.0,0.0,0.0,0.0,0.0,0.0,0.0,0.0,0.0,0.0,0.0,0.0,0.0,0.0,0.0,0.0,0.0,0.0,0.0,0.0,0.0,0.0,0.0,0.0,0.0,0.0,0.0,0.0,0.0,0.0,0.0,0.0,0.0,0.0,0.0,0.0,0.0,0.0,0.0,0.0,0.0,0.0,0.0,0.0,0.0,0.0,0.0,0.0,0.0,0.0,0.0,0.0,0.0,0.0,-3.5273,-3.584,-3.6504,-3.7285,-3.7715,-3.8125,-3.8535,-3.7754,-3.7305,-3.7266,0.0,0.0,0.0,0.0,0.0,0.0,0.0,0.0,0.0,0.0,0.0,0.0,0.0,0.0,0.0,0.0,0.0,0.0,0.0,0.0,0.0,0.0,0.0,0.0,0.0,0.0,0.0,0.0,0.0,0.0,0.0,0.0,0.0,0.0,0.0,0.0,0.0,0.0,0.0,-3.6875,-3.6992,0.0,0.0,0.0,0.0,0.0,0.0,0.0,0.0,-3.6035,0.0,0.0,0.0,0.0,0.0,0.0,0.0,0.0,0.0,0.0,0.0,0.0,0.0,0.0,0.0,0.0,0.0,0.0,0.0,0.0,0.0,0.0,0.0,0.0,0.0,0.0,0.0,0.0,0.0,0.0,0.0,0.0,0.0,0.0,0.0,0.0,0.0,0.0,0.0,0.0,0.0,0.0,0.0,0.0,0.0,0.0,0.0,0.0,0.0,0.0,0.0,0.0,0.0,0.0,0.0,-3.5039,-3.5684,-3.623,-3.6621,-3.7051,-3.7363,-3.7559,-3.6973,-3.6641,0.0,0.0,0.0,0.0,0.0,0.0,0.0,0.0,0.0,0.0,0.0,0.0,0.0,0.0,0.0,0.0,0.0,0.0,0.0,0.0,0.0,0.0,0.0,0.0,0.0,0.0,0.0,0.0,0.0,0.0,0.0,0.0,0.0,0.0,0.0,0.0,0.0,0.0,0.0,0.0,-3.6973,-3.6973,-3.6992,0.0,0.0,0.0,0.0,0.0,0.0,-3.5703,-3.5605,0.0,0.0,0.0,0.0,0.0,0.0,0.0,0.0,0.0,0.0,0.0,0.0,0.0,0.0,0.0,0.0,0.0,0.0,0.0,0.0,0.0,0.0,0.0,0.0,0.0,0.0,0.0,0.0,0.0,0.0,0.0,0.0,0.0,0.0,0.0,0.0,0.0,0.0,0.0,0.0,0.0,0.0,0.0,0.0,0.0,0.0,0.0,0.0,0.0,0.0,0.0,0.0,0.0,0.0,0.0,-3.459,-3.5273,-3.5762,-3.6016,-3.6348,-3.6621,-3.6777,-3.6387,-3.6113,0.0,0.0,0.0,0.0,0.0,0.0,0.0,0.0,0.0,0.0,0.0,0.0,0.0,0.0,0.0,0.0,0.0,0.0,0.0,0.0,0.0,0.0,0.0,0.0,0.0,0.0,0.0,0.0,0.0,0.0,0.0,0.0,0.0,0.0,0.0,0.0,0.0,0.0,0.0,0.0,0.0,-3.6894,-3.7129,-3.6875,0.0,0.0,0.0,0.0,-3.5566,-3.5527,0.0,0.0,0.0,0.0,0.0,0.0,0.0,0.0,0.0,0.0,0.0,0.0,0.0,0.0,0.0,0.0,0.0,0.0,0.0,0.0,0.0,0.0,0.0,0.0,0.0,0.0,0.0,0.0,0.0,0.0,0.0,0.0,0.0,0.0,0.0,0.0,0.0,0.0,0.0,0.0,0.0,0.0,0.0,0.0,0.0,0.0,0.0,0.0,0.0,0.0,0.0,0.0,0.0,0.0,0.0,0.0,-3.4121,-3.4238,-3.4863,-3.5957,-3.6074,-3.6445,-3.7187,-3.6816,-3.6406,0.0,0.0,0.0,0.0,0.0,0.0,0.0,0.0,0.0,0.0,0.0,0.0,0.0,0.0,0.0,0.0,0.0,0.0,0.0,0.0,0.0,0.0,0.0,0.0,0.0,0.0,0.0,0.0,0.0,0.0,0.0,0.0,0.0,0.0,0.0,0.0,0.0,0.0,0.0,0.0,0.0,-3.7109,-3.6797,-3.6699,-3.6523,0.0,0.0,-3.6016,-3.5957,-3.5957,0.0,0.0,0.0,0.0,0.0,0.0,0.0,0.0,0.0,0.0,0.0,0.0,0.0,0.0,0.0,0.0,0.0,0.0,0.0,0.0,0.0,0.0,0.0,0.0,0.0,0.0,0.0,0.0,0.0,0.0,0.0,0.0,0.0,0.0,0.0,0.0,0.0,0.0,0.0,0.0,0.0,0.0,0.0,0.0,0.0,0.0,0.0,0.0,0.0,0.0,0.0,0.0,0.0,0.0,0.0,-3.3887,-3.4082,-3.4316,-3.4707,-3.5254,-3.5527,-3.584,-3.6211,-3.5781,-3.5469,0.0,0.0,0.0,0.0,0.0,0.0,0.0,0.0,0.0,0.0,0.0,0.0,0.0,0.0,0.0,0.0,0.0,0.0,0.0,0.0,0.0,0.0,0.0,0.0,0.0,0.0,0.0,0.0,0.0,0.0,0.0,0.0,0.0,0.0,0.0,0.0,0.0,0.0,0.0,0.0,0.0,0.0,-3.6768,-3.6749,0.0,0.0,0.0,-3.623,-3.5742,0.0,0.0,0.0,0.0,0.0,0.0,0.0,0.0,0.0,0.0,0.0,0.0,0.0,0.0,0.0,0.0,0.0,0.0,0.0,0.0,0.0,0.0,0.0,0.0,0.0,0.0,0.0,0.0,0.0,0.0,0.0,0.0,0.0,0.0,0.0,0.0,0.0,0.0,0.0,0.0,0.0,0.0,0.0,0.0,0.0,0.0,0.0,0.0,0.0,0.0,0.0,0.0,0.0,0.0,0.0,0.0,0.0,-3.3906,-3.4219,-3.4434,-3.4551,-3.5,-3.5215,-3.5215,-3.5,0.0,0.0,0.0,0.0,0.0,0.0,0.0,0.0,0.0,0.0,0.0,0.0,0.0,0.0,0.0,0.0,0.0,0.0,0.0,0.0,0.0,0.0,0.0,0.0,0.0,0.0,0.0,-4.3137,0.0,0.0,0.0,0.0,0.0,0.0,0.0,0.0,0.0,0.0,0.0,0.0,0.0,0.0,-3.6749,-3.6749,-3.6749,-3.6562,0.0,0.0,-3.6289,-3.5644,-3.5547,-3.5293,0.0,0.0,0.0,0.0,0.0,0.0,0.0,0.0,0.0,0.0,0.0,0.0,0.0,0.0,0.0,0.0,0.0,0.0,0.0,0.0,0.0,0.0,0.0,0.0,0.0,0.0,0.0,0.0,0.0,0.0,0.0,0.0,0.0,0.0,0.0,0.0,0.0,0.0,0.0,0.0,0.0,0.0,0.0,0.0,0.0,0.0,0.0,0.0,0.0,0.0,0.0,0.0,0.0,0.0,0.0,-3.3476,-3.3496,-3.3711,-3.4101,-3.4512,-3.4746,-3.4746,-3.5137,-3.4941,0.0,0.0,0.0,0.0,0.0,0.0,0.0,0.0,0.0,0.0,0.0,0.0,0.0,0.0,0.0,0.0,0.0,0.0,0.0,0.0,0.0,0.0,0.0,0.0,0.0,0.0,0.0,0.0,0.0,0.0,0.0,0.0,0.0,0.0,0.0,0.0,0.0,0.0,0.0,0.0,0.0,-3.6749,-3.6749,-3.6749,-3.6729,0.0,0.0,-3.6035,-3.5976,-3.5976,-3.582,-3.5371,0.0,0.0,0.0,0.0,0.0,0.0,0.0,0.0,0.0,0.0,0.0,0.0,0.0,0.0,0.0,0.0,0.0,0.0,0.0,0.0,0.0,0.0,0.0,0.0,0.0,0.0,0.0,0.0,0.0,0.0,0.0,0.0,0.0,0.0,0.0,0.0,0.0,0.0,0.0,0.0,0.0,0.0,0.0,0.0,0.0,0.0,0.0,0.0,0.0,0.0,0.0,0.0,0.0,-3.3418,-3.3418,-3.3418,-3.3633,-3.4127,-3.4238,-3.4434,-3.4687,-3.4629,-3.4414,0.0,0.0,0.0,0.0,0.0,0.0,0.0,0.0,0.0,0.0,0.0,0.0,0.0,0.0,0.0,0.0,0.0,0.0,0.0,0.0,0.0,0.0,0.0,0.0,0.0,0.0,0.0,0.0,-4.3689,-4.3348,-4.2915,0.0,0.0,0.0,0.0,0.0,0.0,0.0,0.0,0.0,0.0,-3.6749,-3.6749,-3.6749,0.0,0.0,-3.6523,-3.6328,-3.6055,-3.6035,-3.5879,-3.5469,-3.5,0.0,0.0,0.0,0.0,0.0,0.0,0.0,0.0,0.0,0.0,0.0,0.0,0.0,0.0,0.0,0.0,0.0,0.0,0.0,0.0,0.0,0.0,0.0,0.0,0.0,0.0,0.0,0.0,0.0,0.0,0.0,0.0,0.0,0.0,0.0,0.0,0.0,0.0,0.0,0.0,0.0,0.0,0.0,0.0,0.0,0.0,0.0,0.0,0.0,0.0,0.0,0.0,-3.3418,-3.3418,-3.3418,-3.3574,-3.3867,-3.4004,-3.4141,-3.4297,-3.416,-3.4004,0.0,0.0,0.0,0.0,0.0,0.0,0.0,0.0,0.0,0.0,0.0,0.0,0.0,0.0,0.0,0.0,0.0,0.0,0.0,0.0,0.0,0.0,0.0,0.0,0.0,0.0,0.0,0.0,-4.3365,-4.2379,-4.1187,0.0,0.0,0.0,0.0,0.0,0.0,0.0,0.0,0.0,0.0,-3.6749,-3.6749,-3.6749,-3.6749,-3.6749,-3.6562,-3.6328,-3.5898,-3.5937,-3.5879,-3.5449,0.0,0.0,0.0,0.0,0.0,0.0,0.0,0.0,0.0,0.0,0.0,0.0,0.0,0.0,0.0,0.0,0.0,0.0,0.0,0.0,0.0,0.0,0.0,0.0,0.0,0.0,0.0,0.0,0.0,0.0,-3.4166,0.0,0.0,0.0,0.0,0.0,0.0,0.0,0.0,0.0,0.0,0.0,0.0,0.0,0.0,0.0,0.0,0.0,0.0,0.0,0.0,0.0,0.0,-3.3418,-3.3418,-3.3418,-3.3418,-3.3457,-3.3848,-3.3867,-3.3496,-3.3848,-3.3867,-3.3457,0.0,0.0,0.0,0.0,0.0,0.0,0.0,0.0,0.0,0.0,0.0,0.0,0.0,0.0,0.0,0.0,0.0,0.0,0.0,0.0,0.0,0.0,0.0,0.0,0.0,0.0,-4.3037,-4.1639,-4.0094,0.0,0.0,0.0,0.0,0.0,0.0,0.0,0.0,0.0,0.0,-3.6113,-3.6749,-3.6749,-3.6749,-3.6749,-3.6749,-3.6309,-3.5898,-3.5488,-3.5762,-3.5879,0.0,0.0,0.0,0.0,0.0,0.0,0.0,0.0,0.0,0.0,0.0,0.0,0.0,0.0,0.0,0.0,0.0,0.0,0.0,0.0,0.0,0.0,0.0,0.0,0.0,0.0,0.0,-3.5391,-3.4726,0.0,0.0,0.0,0.0,0.0,0.0,0.0,0.0,0.0,0.0,0.0,-3.3672,-3.4238,0.0,0.0,0.0,0.0,0.0,0.0,0.0,0.0,0.0,0.0,0.0,0.0,-3.3418,-3.3418,-3.3418,-3.3418,-3.3418,-3.3574,-3.3574,-3.3418,-3.3574,-3.3574,-3.3418,0.0,0.0,0.0,0.0,0.0,0.0,0.0,0.0,0.0,0.0,0.0,0.0,0.0,0.0,0.0,0.0,0.0,0.0,0.0,0.0,0.0,0.0,0.0,0.0,0.0,-4.3388,0.0,0.0,0.0,0.0,0.0,0.0,0.0,0.0,0.0,0.0,0.0,-3.5215,-3.5371,-3.6133,-3.6749,-3.6749,-3.6749,-3.6749,0.0,0.0,0.0,0.0,0.0,0.0,0.0,0.0,0.0,0.0,0.0,0.0,0.0,0.0,-3.5391,-3.4805,-3.4687,-3.4687,-3.4687,0.0,0.0,0.0,0.0,0.0,0.0,0.0,0.0,0.0,0.0,0.0,0.0,0.0,0.0,-3.5391,0.0,-3.4687,0.0,0.0,0.0,0.0,0.0,0.0,0.0,0.0,-3.498,-3.4766,-3.3691,-3.4355,-3.4238,0.0,-3.3418,-3.3418,0.0,0.0,0.0,0.0,0.0,0.0,0.0,0.0,-3.3418,-3.3418,-3.3418,-3.3418,-3.3418,-3.3418,-3.3418,-3.3418,-3.3418,-3.3418,-3.3418,-3.3418,-3.3418,0.0,0.0,0.0,0.0,0.0,0.0,0.0,0.0,0.0,0.0,0.0,0.0,0.0,0.0,0.0,0.0,0.0,0.0,0.0,0.0,0.0,0.0,0.0,-4.2519,0.0,0.0,0.0,0.0,0.0,0.0,0.0,0.0,0.0,-3.4512,-3.5039,-3.5449,-3.5605,-3.6094,-3.6445,-3.6445,0.0,0.0,0.0,0.0,0.0,0.0,0.0,-3.6152,-3.584,-3.5918,-3.6035,-3.6035,-3.6035,-3.6035,-3.6035,0.0,0.0,-3.5254,-3.5156,-3.5156,-3.5156,-3.5156,-3.5156,-3.5156,-3.5176,-3.5156,0.0,0.0,0.0,0.0,0.0,0.0,0.0,0.0,-3.543,-3.5156,0.0,-3.4687,0.0,0.0,0.0,0.0,0.0,-3.3887,0.0,0.0,-3.498,-3.4902,-3.4101,-3.4473,-3.4238,-3.3457,-3.3418,-3.3418,-3.3418,-3.3418,0.0,0.0,0.0,0.0,0.0,0.0,-3.3418,-3.3418,-3.3418,-3.3418,-3.3418,-3.3418,-3.3418,-3.3418,-3.3418,-3.3418,-3.3418,-3.3418,-3.3418,-3.3418,-3.3418,0.0,0.0,0.0,0.0,0.0,0.0,0.0,0.0,0.0,0.0,0.0,0.0,0.0,0.0,0.0,0.0,0.0,0.0,0.0,0.0,-4.159,0.0,0.0,0.0,0.0,0.0,0.0,0.0,0.0,0.0,0.0,-3.5332,-3.541,-3.5566,-3.5957,0.0,0.0,0.0,0.0,-3.6035,-3.6055,-3.6406,-3.6387,-3.5586,-3.6133,-3.6387,-3.5566,0.0,0.0,-3.6035,-3.6035,-3.6035,-3.6035,-3.6035,-3.6035,-3.6016,-3.5976,-3.5976,-3.5996,-3.5957,-3.6016,-3.6016,-3.5937,-3.5957,-3.2508,0.0,0.0,0.0,0.0,-3.6035,-3.5957,-3.584,-3.584,-3.541,-3.4687,-3.4687,0.0,0.0,0.0,0.0,0.0,0.0,-3.4238,-3.4531,-3.4785,-3.4434,-3.3633,-3.4043,-3.3965,-3.3437,-3.3418,-3.3418,-3.3418,-3.3418,-3.3418,-3.3418,0.0,0.0,0.0,0.0,-3.3418,-3.3418,-3.3418,-3.3418,-3.3418,-3.3418,-3.3418,-3.3418,-3.3418,-3.3418,-3.3418,-3.3418,-3.3418,-3.3418,-3.3418,0.0,0.0,0.0,0.0,0.0,0.0,0.0,0.0,0.0,0.0,0.0,0.0,0.0,0.0,0.0,0.0,0.0,0.0,0.0,-4.2986,-4.2569,-4.2468,0.0,0.0,0.0,0.0,0.0,0.0,0.0,0.0,0.0,-3.5742,-3.584,-3.5879,0.0,0.0,-3.6035,-3.6035,-3.6035,-3.6133,-3.6445,-3.6582,0.0,0.0,-3.6504,-3.6484,-3.5918,-3.5937,-3.6035,-3.6035,-3.6035,-3.6035,-3.6035,-3.6035,-3.6035,-3.6035,-3.6035,-3.6035,-3.6035,-3.6035,-3.6035,-3.6035,-3.6035,-3.6035,-3.2508,-3.5947,-3.5158,-3.5295,-3.6016,-3.6035,-3.6035,-3.6035,-3.6035,-3.5723,-3.5215,-3.5215,-3.4844,-3.4199,-3.4004,0.0,0.0,0.0,-3.4219,-3.4453,-3.4453,-3.4082,-3.3476,-3.3867,-3.3848,-3.3437,-3.3418,-3.3418,-3.3418,-3.3418,-3.3418,-3.3418,0.0,0.0,-3.3418,-3.3418,-3.3418,-3.3418,-3.3418,-3.3418,-3.3418,-3.3418,-3.3418,-3.3418,-3.3418,-3.3418,-3.3418,-3.3418,-3.3418,-3.3418,-3.3418,-3.3418,0.0,0.0,0.0,0.0,0.0,0.0,0.0,0.0,0.0,0.0,0.0,-4.1829,0.0,0.0,0.0,0.0,-4.3187,-4.3313,-4.3288,-4.2978,0.0,0.0,0.0,0.0,0.0,0.0,0.0,-3.4524,-3.4766,-3.5176,-3.5703,-3.5918,-3.6035,-3.6035,-3.6035,-3.6035,-3.6035,0.0,-3.6113,-3.6387,-3.6562,-3.6601,-3.6445,-3.6562,-3.6523,-3.6094,-3.6035,-3.6035,-3.6035,-3.6035,-3.6035,-3.6035,-3.6035,-3.6035,-3.6035,-3.6035,-3.6035,-3.6035,-3.6035,-3.6035,-3.6035,-3.6035,-3.6035,-3.2577,-3.5655,-3.4089,-3.4452,-3.5947,-3.6035,-3.6035,-3.6035,-3.6035,-3.5996,-3.5976,-3.5976,-3.5742,-3.5312,-3.4902,0.0,-3.4687,-3.4258,-3.4062,-3.4062,-3.4107,-3.3809,-3.3457,-3.3828,-3.3809,-3.3418,-3.3418,-3.3418,-3.3418,-3.3418,-3.3418,-3.3418,-3.3418,-3.3418,-3.3418,-3.3418,-3.3418,-3.3418,-3.3418,-3.3418,-3.3418,-3.3418,-3.3418,-3.3418,-3.3418,-3.3418,-3.3418,-3.3418,-3.3418,-3.3418,-3.3418,-3.3418,-3.3418,0.0,0.0,0.0,0.0,0.0,0.0,0.0,0.0,0.0,0.0,0.0,0.0,0.0,0.0,0.0,-4.3539,0.0,-4.3815,-4.3022,0.0,0.0,0.0,-3.7061,-3.6749,-3.5362,-3.4314,-3.4185,0.0,0.0,-3.5449,0.0,-3.6035,-3.6035,-3.6035,-3.6035,-3.6035,-3.6035,-3.6035,-3.6113,-3.6426,-3.6523,-3.623,-3.6406,-3.6445,-3.6094,-3.6035,-3.6035,-3.6035,-3.6035,-3.6035,-3.6035,-3.6035,-3.6035,-3.6035,-3.6035,-3.6035,-3.6035,-3.6035,-3.6035,-3.6035,-3.6035,-3.6035,-3.3013,-3.3951,-3.4952,-3.5587,-3.6035,-3.6035,-3.6035,-3.6035,-3.6035,-3.584,-3.5547,-3.5547,-3.5293,-3.4863,-3.4746,-3.4687,-3.4668,-3.4258,-3.4062,-3.4043,-3.373,-3.3516,-3.3437,-3.3535,-3.3516,-3.3418,-3.3418,-3.3418,-3.3418,-3.3418,-3.3418,-3.3418,-3.3418,-3.3418,-3.3418,-3.3418,-3.3418,-3.3418,-3.3418,-3.3418,-3.3418,-3.3418,-3.3418,-3.3418,-3.3418,-3.3418,-3.3418,-3.3418,-3.3418,-3.3418,-3.3418,-3.3418,-3.3418,-3.3125,0.0,0.0,0.0,0.0,0.0,0.0,0.0,0.0,0.0,-3.9024,-3.9911,0.0,-4.1842,0.0,-4.4116,-4.4267,-4.384,-4.3946,0.0,0.0,-4.1616,-3.9808,-3.7466,-3.6663,-3.5936,-3.4681,-3.5059,-3.5527,-3.584,-3.5957,-3.6035,-3.6035,-3.6035,-3.6035,-3.6035,-3.6035,-3.6133,-3.6426,-3.6582,-3.6641,-3.6504,-3.6309,-3.6152,-3.6035,-3.6035,-3.6035,-3.6035,-3.6035,-3.6035,-3.6035,-3.6035,-3.6035,-3.6035,-3.6035,-3.6035,-3.6035,-3.6035,-3.6035,-3.6035,-3.6035,-3.6035,-3.2438,-3.3378,-3.5226,-3.6035,-3.6035,-3.6035,-3.6035,-3.6035,-3.6035,-3.5898,-3.5664,-3.5684,-3.5527,-3.5273,-3.5098,-3.5019,-3.4961,-3.4355,-3.4062,-3.4043,-3.3613,-3.3418,-3.3418,-3.3418,-3.3418,-3.3418,-3.3418,-3.3418,-3.3418,-3.3418,-3.3418,-3.3418,-3.3418,-3.3418,-3.3418,-3.3418,-3.3418,-3.3418,-3.3418,-3.3418,-3.3418,-3.3418,-3.3418,-3.3418,-3.3418,-3.3418,-3.3418,-3.3418,-3.3418,-3.3418,-3.3418,-3.3418,-3.3418,-3.3203,-3.344,0.0,0.0,0.0,0.0,0.0,0.0,0.0,0.0,0.0,0.0,0.0,-4.0457,0.0,-4.2528,-4.2699,-4.336,-4.3228,-4.2848,-4.2179,-4.0995,-3.9516,-3.7762,-3.6838,-3.6032,-3.5132,-3.5391,-3.5762,-3.5996,-3.6035,-3.6035,-3.6035,-3.6035,-3.6035,-3.6035,-3.6035,-3.6113,-3.6328,-3.6387,-3.6387,-3.6387,-3.6191,-3.6035,-3.6035,-3.6035,-3.6035,-3.6035,-3.6035,-3.6035,-3.6035,-3.6035,-3.6035,-3.6035,-3.6035,-3.6035,-3.6035,-3.6035,-3.6035,-3.6035,-3.6035,-3.6035,-3.1456,-3.3378,-3.5226,-3.6035,-3.6035,-3.6035,-3.6035,-3.6035,-3.6035,-3.6035,-3.6035,-3.6035,-3.5996,-3.5918,-3.5547,-3.5332,-3.5176,-3.4434,-3.4043,-3.3965,-3.3594,-3.3418,-3.3418,-3.3418,-3.3418,-3.3418,-3.3418,-3.3418,-3.3418,-3.3418,-3.3418,-3.3418,-3.3418,-3.3418,-3.3418,-3.3418,-3.3418,-3.3418,-3.3418,-3.3418,-3.3418,-3.3418,-3.3418,-3.3418,-3.3418,-3.3418,-3.3418,-3.3418,-3.3418,-3.3418,-3.3418,-3.3418,-3.3418,-3.3379,-3.3203,0.0,-3.3184,0.0,0.0,0.0,0.0,0.0,0.0,0.0,0.0,-3.7238,-3.9189,-4.1011,-4.0365,-4.0598,-4.2409,-4.1714,-4.1117,-4.0837,-3.9131,-3.7924,-3.7535,-3.6323,-3.5449,-3.541,-3.5762,-3.6035,-3.6035,-3.6035,-3.6035,-3.6035,-3.6035,-3.6035,-3.6035,-3.6035,-3.6035,-3.6035,-3.6035,-3.6074,-3.6055,-3.6035,-3.6035,-3.6035,-3.6035,-3.6035,-3.6035,-3.6035,-3.6035,-3.6035,-3.6035,-3.6035,-3.6035,-3.6035,-3.6035,-3.6035,-3.6035,-3.6035,-3.6035,-3.6035,-3.6035,-3.1439,-3.3378,-3.5245,-3.6035,-3.6035,-3.6035,-3.6035,-3.6035,-3.6035,-3.6035,-3.6035,-3.6035,-3.584,-3.5527,-3.543,-3.5,-3.4316,-3.416,-3.3887,-3.3535,-3.3457,-3.3418,-3.3418,-3.3418,-3.3418,-3.3418,-3.3418,-3.3418,-3.3418,-3.3418,-3.3418,-3.3418,-3.3418,-3.3418,-3.3418,0.0,0.0,0.0,-3.3418,-3.3418,-3.3418,-3.3418,-3.3418,-3.3418,-3.3418,0.0,-3.3418,-3.3418,-3.3418,-3.3418,-3.3418,0.0,0.0,0.0,0.0,0.0,0.0,0.0,0.0,0.0,0.0,0.0,-3.3532,-3.4324,-3.564,-3.827,-3.9881,-3.992,-4.05,-4.0905,-4.0841,-4.1058,-4.0602,-3.9235,-3.8711,-3.7819,-3.6163,-3.5886,-3.5781,-3.5449,-3.5762,-3.6035,-3.6035,-3.6035,-3.6035,-3.6035,-3.6035,-3.6035,-3.6035,-3.6035,-3.6035,-3.6035,-3.6035,-3.6035,-3.6035,-3.6035,-3.6035,-3.6035,-3.6035,-3.6035,-3.6035,-3.6035,-3.6035,-3.6035,-3.6035,-3.6035,-3.6035,-3.6035,-3.6035,-3.6035,-3.6035,-3.6035,-3.6035,-3.6035,-3.6035,-3.1456,0.0,-3.5226,-3.6035,0.0,-3.6035,-3.6035,-3.6035,-3.6035,-3.6035,-3.6035,-3.6035,-3.5781,-3.5391,-3.5156,-3.4687,-3.4062,-3.3848,-3.3633,-3.3418,-3.3418,-3.3418,-3.3418,-3.3418,-3.3418,-3.3418,-3.3418,-3.3418,-3.3418,-3.3418,-3.3418,-3.3418,-3.3418,-3.3418,-3.3418,-3.3418,-3.3418,-3.3418,-3.3418,-3.3418,-3.3418,-3.3418,-3.3418,-3.3418,0.0,0.0,0.0,0.0,0.0,0.0,0.0,0.0,0.0,0.0,0.0,-3.3398,-3.3223,-3.3203,-3.3398,-3.3418,-3.3418,-3.3418,-3.3809,-3.4329,-3.4914,-3.6515,-3.7869,-3.8613,-3.8508,-3.8654,-3.9347,-3.8976,-3.8287,-3.7441,-3.7307,-3.6824,-3.5964,-3.5879,-3.5937,-3.5762,-3.5898,-3.6035,-3.6035,-3.6035,-3.6035,-3.6035,-3.6035,-3.6035,-3.6035,-3.6035,-3.6035,-3.6035,-3.6035,-3.6035,-3.6035,-3.6035,-3.6035,-3.6035,-3.6035,-3.6035,-3.6035,-3.6035,-3.6035,-3.6035,-3.6035,-3.6035,-3.6035,-3.6035,-3.6035,-3.6035,-3.6035,-3.6035,-3.6035,-3.6035,-3.6035,-3.1948,-3.3812,-3.5382,-3.6035,-3.6035,-3.6035,-3.6035,-3.6035,0.0,0.0,0.0,-3.5937,-3.5664,-3.5254,-3.4785,-3.4355,-3.3945,-3.3574,-3.3418,-3.3418,-3.3418,-3.3418,-3.3418,-3.3418,-3.3418,-3.3418,-3.3418,-3.3418,-3.3418,-3.3418,-3.3418,-3.3418,-3.3418,-3.3418,-3.3418,-3.3418,-3.3418,-3.3418,-3.3418,-3.3418,-3.3418,-3.3418,-3.3418,-3.3418,-3.3418,-3.3418,-3.3418,-3.3418,-3.3418,-3.3418,-3.3418,-3.3418,-3.3418,-3.3418,-3.3418,-3.3418,-3.3418,-3.3418,-3.3418,-3.3418,-3.3418,-3.3418,-3.4141,-3.4473,-3.4199,-3.4648,-3.5653,-3.7422,-3.6316,-3.6229,-3.7914,-3.6856,-3.6035,-3.6035,-3.6035,-3.6016,-3.6016,-3.6035,-3.6016,-3.6035,-3.6016,-3.6152,-3.6471,-3.6219,-3.6152,-3.6336,-3.6287,-3.6035,-3.6035,-3.6035,-3.6035,-3.6035,-3.6035,-3.6035,-3.6035,-3.6035,-3.6035,-3.6035,-3.6035,-3.6035,-3.6035,-3.6035,-3.6035,-3.6035,-3.6035,-3.6035,-3.6035,-3.6035,-3.6035,-3.6035,-3.6035,-3.6035,-3.6035,-3.6035,-3.6035,-3.3882,-3.5587,-3.5879,-3.6035,-3.6035,-3.6035,-3.6035,-3.6035,-3.6016,-3.6016,-3.5996,-3.5644,-3.5234,-3.4785,-3.4355,-3.3926,-3.3516,-3.3457,-3.3418,-3.3418,-3.3418,-3.3418,-3.3418,-3.3418,-3.3418,-3.3418,-3.3418,-3.3418,-3.3418,-3.3418,-3.3418,-3.3418,-3.3418,-3.3418,-3.3418,-3.3418,-3.3418,-3.3418,-3.3418,-3.3418,-3.3418,-3.3418,-3.3418,-3.3418,-3.3418,-3.3418,-3.3418,-3.3418,-3.3418,-3.3418,-3.3418,-3.3418,-3.3418,-3.3418,-3.3418,-3.3418,-3.3418,-3.3418,-3.3418,-3.3418,-3.3418,-3.3437,-3.3887,-3.4277,-3.4609,-3.5351,-3.5927,-3.6257,-3.6054,-3.6005,-3.6336,-3.6152,-3.6016,-3.6084,-3.6016,-3.6016,-3.6064,-3.5976,-3.5957,-3.5957,-3.6035,-3.6567,-3.7493,-3.6816,-3.6499,-3.7488,-3.6769,-3.6035,-3.6035,-3.6035,-3.6035,-3.6035,-3.6035,-3.6035,-3.6035,-3.6035,-3.6035,-3.6035,-3.6035,-3.6035,-3.6035,-3.6035,-3.6035,-3.6035,-3.6035,-3.6035,-3.6035,-3.6035,-3.6035,-3.6035,-3.6035,-3.6035,-3.6035,-3.6035,-3.6035,-3.4296,-3.5947,-3.6035,-3.6035,-3.6035,-3.6035,-3.6035,-3.5996,-3.5781,-3.582,-3.5976,-3.5586,-3.5137,-3.4687,-3.4258,-3.3828,-3.3418,-3.3418,-3.3418,-3.3418,-3.3418,-3.3418,-3.3418,-3.3418,-3.3418,-3.3418,-3.3418,-3.3418,-3.3418,-3.3418,-3.3418,-3.3418,-3.3418,-3.3418,-3.3418,-3.3418,-3.3418,-3.3418,-3.3418,-3.3418,-3.3418,-3.3418,-3.3418,-3.3418,-3.3418,-3.3418,-3.3418,-3.3418,-3.3418,-3.3418,-3.3418,-3.3418,-3.3418,-3.3418,-3.332,-3.3105,-3.3086,-3.3086,-3.3086,-3.3281,-3.3418,-3.3437,-3.3828,-3.4141,-3.4336,-3.5176,-3.5762,-3.5996,-3.6035,-3.6035,-3.6035,-3.6035,-3.6336,-3.7307,-3.6408,-3.6068,-3.6723,-3.5877,-3.5312,-3.5312,-3.5312,-3.5626,-3.638,-3.6023,-3.5866,-3.6716,-3.6226,-3.6016,-3.6035,-3.6035,-3.6035,-3.6035,-3.6035,-3.6035,-3.6035,-3.6035,-3.6035,-3.6035,-3.6035,-3.6035,-3.6035,-3.6035,-3.6035,-3.6035,-3.6035,-3.6035,-3.6035,-3.6035,-3.6035,-3.6035,-3.6035,-3.6035,-3.6035,-3.6035,-3.6035,-3.4659,-3.6035,-3.6035,-3.6035,-3.6035,-3.6035,-3.5976,-3.5859,-3.5527,-3.5527,-3.5644,-3.5273,-3.4902,-3.4531,-3.4121,-3.375,-3.3437,-3.3418,-3.3418,-3.3418,-3.3516,-3.3574,-3.3594,-3.3652,-3.3672,-3.3574,-3.3574,-3.3516,-3.3437,-3.3418,-3.3418,-3.3418,-3.3418,-3.3418,-3.3418,-3.3418,-3.3418,-3.3418,-3.3418,-3.3418,-3.3418,-3.3418,-3.3418,-3.3418,-3.3418,-3.3418,-3.3418,-3.3418,-3.3418,-3.3418,-3.3418,-3.3379,-3.3281,-3.3281,-3.3086,-3.2715,-3.2656,-3.288,-3.3329,-3.3979,-3.4344,-3.4507,-3.4831,-3.5073,-3.5214,-3.582,-3.5984,-3.5846,-3.6383,-3.6716,-3.645,-3.665,-3.7335,-3.8523,-3.7357,-3.702,-3.7824,-3.6779,-3.5755,-3.5755,-3.5775,-3.6034,-3.6204,-3.6113,-3.5877,-3.5807,-3.582,-3.6016,-3.6035,-3.6035,-3.6035,-3.6035,-3.6035,-3.6035,-3.6035,-3.6035,-3.6035,-3.6035,-3.6035,-3.6035,-3.6035,-3.6035,-3.6035,-3.6035,-3.6035,-3.6035,-3.6035,-3.6035,-3.6035,-3.6035,-3.6035,-3.6035,-3.6035,-3.6035,-3.6035,-3.5811,-3.6016,-3.6035,-3.6035,-3.6016,-3.6016,-3.5801,-3.5469,-3.5391,-3.5156,-3.4824,-3.4375,-3.418,-3.4082,-3.3691,-3.3476,-3.3418,-3.3418,-3.3437,-3.3476,-3.3828,-3.4004,-3.4043,-3.4375,-3.4375,-3.4043,-3.3984,-3.375,-3.3437,-3.3418,-3.3418,-3.3418,-3.3418,-3.3418,-3.3418,-3.3418,-3.3418,-3.3418,-3.3418,-3.3418,-3.3418,-3.3418,-3.3418,-3.3418,-3.3418,-3.3418,-3.3418,-3.3418,-3.3418,-3.3418,-3.3418,-3.3242,-3.293,-3.2871,-3.2676,-3.2346,-3.2307,-3.3033,-3.4852,-3.6291,-3.7103,-3.7679,-3.761,-3.783,-3.8226,-3.8442,-3.7463,-3.6034,-3.7509,-3.8335,-3.7274,-3.8187,-3.9114,-3.9471,-3.9088,-3.9188,-3.925,-3.9206,-3.9059,-3.9059,-3.8575,-3.9556,-3.9988,-3.8529,-3.6978,-3.5995,-3.5957,-3.6035,-3.6035,-3.6035,-3.6035,-3.6035,-3.6035,-3.6035,-3.6035,-3.6035,-3.6035,-3.6035,-3.6035,-3.6035,-3.6035,-3.6035,-3.6035,-3.6035,-3.6035,-3.6035,-3.6035,-3.6035,-3.6035,-3.6035,-3.6035,-3.6035,-3.6035,-3.6035,-3.6035,-3.6035,-3.6035,-3.6035,-3.6035,-3.5996,-3.5762,-3.5547,-3.5371,-3.4824,-3.4492,-3.4277,-3.3887,-3.3828,-3.4043,-3.3613,-3.3418,-3.3437,-3.3691,-3.3809,-3.3848,-3.4238,-3.4453,-3.4453,-3.4336,-3.4219,-3.4043,-3.3828,-3.3594,-3.3457,-3.3418,-3.3418,-3.3418,-3.3418,-3.3418,-3.3418,-3.3418,-3.3418,-3.3418,-3.3418,-3.3418,-3.3418,-3.3418,-3.3418,-3.3418,-3.3418,-3.3418,-3.3418,-3.3418,-3.3418,-3.3418,-3.3418,-3.334,-3.3184,-3.4059,-3.4391,-3.4023,-3.455,-3.5232,-3.6049,-3.6919,-3.7515,-3.7716,-3.8067,-3.8313,-3.8492,-3.9373,-3.8987,-3.7425,-3.8481,-3.9184,-3.8685,-3.9122,-3.9865,-4.0579,-3.9923,-3.9498,-4.0528,-3.947,-3.8768,-3.8768,-3.8768,-3.872,-3.8561,-3.74,-3.6356,-3.5986,-3.6035,-3.6035,-3.6035,-3.6035,-3.6035,-3.6035,-3.6035,-3.6035,-3.6035,-3.6035,-3.6035,-3.6035,-3.6035,-3.6035,-3.6035,-3.6035,-3.6035,-3.6035,-3.6035,-3.6035,-3.6035,-3.6035,-3.6035,-3.6035,-3.6035,-3.6035,-3.6035,-3.6035,-3.6035,-3.6035,-3.6035,-3.6035,-3.5957,-3.582,-3.5527,-3.5254,-3.4961,-3.4336,-3.4004,-3.3867,-3.3555,-3.3594,-3.3828,-3.3555,-3.3476,-3.3633,-3.3926,-3.4141,-3.4277,-3.4687,-3.4902,-3.4863,-3.4726,-3.4473,-3.4219,-3.3945,-3.3672,-3.3457,-3.3418,-3.3418,-3.3418,-3.3418,-3.3418,-3.3418,-3.3418,-3.3418,-3.3418,-3.3418,-3.3418,-3.3418,-3.3418,-3.3418,-3.3418,-3.3418,-3.3418,-3.3418,-3.3418,-3.3418,-3.3418,-3.3418,-3.3548,-3.3911,-3.5026,-3.5649,-3.58,-3.6716,-3.744,-3.7554,-3.8263,-3.877,-3.8932,-3.9337,-3.9522,-3.9698,-4.0592,-4.0707,-3.9849,-4.0075,-4.0407,-3.9825,-4.0189,-4.1054,-4.2088,-4.0822,-4.0457,-4.0963,-3.9966,-3.9275,-3.8461,-3.9262,-3.9126,-3.816,-3.7122,-3.6376,-3.6756,-3.6336,-3.6035,-3.6035,-3.6035,-3.6035,-3.6035,-3.6035,-3.6035,-3.6035,-3.6035,-3.6035,-3.6035,-3.6035,-3.6035,-3.6035,-3.6035,-3.6035,-3.6035,-3.6035,-3.6035,-3.6035,-3.6035,-3.6035,-3.6035,-3.6035,-3.6035,-3.6035,-3.6035,-3.6035,-3.6035,-3.6035,-3.6035,-3.5801,-3.543,-3.5371,-3.4902,-3.4219,-3.4082,-3.3828,-3.3496,-3.3437,-3.3437,-3.3476,-3.3476,-3.3652,-3.4004,-3.4082,-3.4316,-3.4687,-3.5156,-3.5371,-3.5391,-3.5742,-3.5449,-3.4648,-3.4453,-3.4101,-3.3437,-3.3418,-3.3418,-3.3418,-3.3418,-3.3418,-3.3418,-3.3418,-3.3418,-3.3418,-3.3418,-3.3418,-3.3418,-3.3418,-3.3418,-3.3418,-3.3418,-3.3418,-3.3418,-3.3418,-3.3418,-3.3418,-3.3418,-3.3911,-3.4897,-3.5197,-3.5822,-3.6959,-3.8265,-3.926,-3.9857,-4.0954,-4.1922,-4.2451,-4.2326,-4.2625,-4.2319,-4.2488,-4.2569,-4.2681,-4.2443,-4.2038,-4.1014,-4.1743,-4.2542,-4.2824,-4.2806,-4.2029,-4.0894,-4.1859,-4.1191,-3.9604,-4.0745,-4.1721,-4.1576,-3.9415,-3.8245,-3.803,-3.7126,-3.6152,-3.6219,-3.6152,-3.6035,-3.6035,-3.6035,-3.6035,-3.6035,-3.6035,-3.6035,-3.6035,-3.6035,-3.6035,-3.6035,-3.6035,-3.6035,-3.6035,-3.6035,-3.6035,-3.6035,-3.6035,-3.6035,-3.6035,-3.6035,-3.6035,-3.6035,-3.6035,-3.6035,-3.6035,-3.6035,-3.6035,-3.5781,-3.5371,-3.5078,-3.4609,-3.4062,-3.3769,-3.3574,-3.3437,-3.3418,-3.3418,-3.3437,-3.3711,-3.3926,-3.4082,-3.4355,-3.4707,-3.5156,-3.5605,-3.5801,-3.5762,-3.541,-3.5039,-3.4668,-3.416,-3.373,-3.3476,-3.3418,-3.3418,-3.3418,-3.3418,-3.3418,-3.3418,-3.3418,-3.3418,-3.3418,-3.3418,-3.3418,-3.3418,-3.3418,-3.3418,-3.3418,-3.3418,-3.3418,-3.3418,-3.3418,-3.3418,-3.3418,-3.3418,-3.3591,-3.4161,-3.6,-3.8299,-4.0475,-4.0992,-4.1194,-4.1422,-4.1858,-4.2288,-4.2489,-4.2785,-4.2986,-4.2986,-4.2986,-4.2986,-4.2986,-4.2986,-4.2625,-4.2432,-4.2681,-4.2986,-4.2986,-4.2986,-4.2737,-4.2375,-4.2625,-4.2513,-4.1655,-4.215,-4.2279,-4.2065,-4.0836,-4.0059,-4.004,-3.8729,-3.7709,-3.7441,-3.6789,-3.6035,-3.6035,-3.6035,-3.6035,-3.6035,-3.6035,-3.6035,-3.6035,-3.6035,-3.6035,-3.6035,-3.6035,-3.6035,-3.6035,-3.6035,-3.6035,-3.6035,-3.6035,-3.6035,-3.6035,-3.6035,-3.6035,-3.6035,-3.6035,-3.6035,-3.6035,-3.5996,-3.5879,-3.5566,-3.5137,-3.4687,-3.4258,-3.3848,-3.3555,-3.3418,-3.3418,-3.3418,-3.3496,-3.3652,-3.3945,-3.4258,-3.4512,-3.4805,-3.5176,-3.5586,-3.5898,-3.6035,-3.5898,-3.5273,-3.4922,-3.4785,-3.4043,-3.3574,-3.3437,-3.3418,-3.3418,-3.3418,-3.3418,-3.3418,-3.3418,-3.3418,-3.3418,-3.3418,-3.3418,-3.3418,-3.3418,-3.3418,-3.3418,-3.3418,-3.3418,-3.3418,-3.3418,-3.3902,-3.4195,-3.4258,-3.4674,-3.517,-3.5928,-3.826,-4.0707,-4.2631,-4.2635,-4.2464,-4.2464,-4.2464,-4.2489,-4.2489,-4.2735,-4.2986,-4.2986,-4.2986,-4.2986,-4.2986,-4.2986,-4.2986,-4.2986,-4.2986,-4.2986,-4.2986,-4.2986,-4.2737,-4.2319,-4.2681,-4.3031,-4.2917,-4.1886,-4.1898,-4.2675,-4.1319,-4.0748,-4.1052,-3.9322,-3.7842,-3.7575,-3.6856,-3.6035,-3.6035,-3.6035,-3.6035,-3.6035,-3.6035,-3.6035,-3.6035,-3.6035,-3.6035,-3.6035,-3.6035,-3.6035,-3.6035,-3.6035,-3.6035,-3.6035,-3.6035,-3.6035,-3.6035,-3.6035,-3.6035,-3.6035,-3.6035,-3.6035,-3.6016,-3.5937,-3.5566,-3.5156,-3.4687,-3.4297,-3.3848,-3.3496,-3.3437,-3.3418,-3.3418,-3.3437,-3.3691,-3.4004,-3.416,-3.459,-3.5176,-3.5351,-3.5586,-3.5957,-3.6016,-3.6035,-3.5996,-3.5488,-3.5176,-3.5078,-3.4414,-3.3809,-3.3437,-3.3418,-3.3418,-3.3418,-3.3418,-3.3418,-3.3418,-3.3418,-3.3418,-3.3418,-3.3418,-3.3418,-3.3418,-3.3418,-3.3418,-3.3418,-3.3418,-3.3481,-3.3544,-3.4902,-3.5539,-3.5764,-3.7079,-3.8794,-3.9884,-4.1533,-4.2793,-4.2874,-4.2961,-4.2961,-4.2936,-4.2911,-4.2886,-4.2886,-4.2961,-4.2986,-4.2986,-4.2986,-4.2986,-4.2986,-4.2986,-4.2986,-4.2986,-4.2986,-4.2986,-4.2986,-4.2986,-4.2432,-4.159,-4.2125,-4.3187,-4.3323,-4.1888,-4.1686,-4.3385,-4.2381,-4.0708,-4.0795,-3.8993,-3.6924,-3.6856,-3.6403,-3.6016,-3.6035,-3.6035,-3.6035,-3.6035,-3.6035,-3.6035,-3.6035,-3.6035,-3.6035,-3.6035,-3.6035,-3.6035,-3.6035,-3.6035,-3.6035,-3.6035,-3.6035,-3.6035,-3.6035,-3.6035,-3.6035,-3.6035,-3.6035,-3.6035,-3.5859,-3.5586,-3.5449,-3.4941,-3.4297,-3.4121,-3.3828,-3.3437,-3.3418,-3.3418,-3.3476,-3.375,-3.3945,-3.4199,-3.4687,-3.5137,-3.541,-3.5664,-3.5898,-3.6016,-3.6035,-3.6016,-3.5879,-3.5273,-3.4609,-3.4082,-3.3769,-3.3574,-3.3476,-3.3437,-3.3418,-3.3418,-3.3418,-3.3418,-3.3418,-3.3418,-3.3418,-3.3418,-3.3418,-3.3418,-3.3418,-3.3418,-3.3418,-3.3418,-3.3418,-3.3902,-3.4964,-3.5581,-3.5598,-3.5407,-3.6784,-3.8374,-3.9888,-4.0884,-4.1842,-4.2849,-4.2986,-4.2986,-4.2986,-4.2986,-4.2986,-4.2986,-4.2986,-4.2986,-4.2986,-4.2986,-4.2986,-4.2986,-4.2986,-4.2986,-4.2986,-4.2986,-4.2986,-4.2986,-4.2986,-4.2849,-4.2319,-4.2681,-4.3181,-4.3683,-4.3373,-4.3915,-4.4923,-4.3754,-4.3208,-4.2454,-4.0666,-3.8993,-3.7822,-3.6539,-3.6016,-3.6035,-3.6035,-3.6035,-3.6035,-3.6035,-3.6035,-3.6035,-3.6035,-3.6035,-3.6035,-3.6035,-3.6035,-3.6035,-3.6035,-3.6035,-3.6035,-3.6035,-3.6035,-3.6035,-3.6035,-3.6035,-3.6035,-3.6035,-3.6035,-3.5781,-3.5391,-3.5215,-3.4726,-3.4062,-3.3906,-3.3691,-3.3437,-3.3418,-3.3516,-3.3691,-3.3945,-3.4277,-3.4629,-3.5156,-3.5469,-3.5644,-3.5918,-3.6035,-3.6035,-3.6035,-3.5957,-3.5762,-3.5254,-3.4512,-3.3887,-3.4004,-3.4062,-3.3887,-3.375,-3.3672,-3.3652,-3.3496,-3.3418,-3.3418,-3.3418,-3.3418,-3.3418,-3.3418,-3.3418,-3.3418,-3.3418,-3.3418,-3.3418,-3.3418,-3.4258,-3.5683,-3.6335,-3.6811,-3.7244,-3.8412,-3.9694,-4.0668,-4.1071,-4.1759,-4.2656,-4.2986,-4.2986,-4.2986,-4.2986,-4.2986,-4.2986,-4.2986,-4.2986,-4.2986,-4.2986,-4.2986,-4.2986,-4.2986,-4.2986,-4.2986,-4.2986,-4.2986,-4.2986,-4.2986,-4.2986,-4.2986,-4.2986,-4.3363,-4.3883,-4.4302,-4.497,-4.5648,-4.5253,-4.4682,-4.2958,-4.1309,-3.9627,-3.8021,-3.6654,-3.6287,-3.6035,-3.6035,-3.6035,-3.6035,-3.6035,-3.6035,-3.6035,-3.6035,-3.6035,-3.6035,-3.6035,-3.6035,-3.6035,-3.6035,-3.6035,-3.6035,-3.6035,-3.6035,-3.6035,-3.6035,-3.6035,-3.6035,-3.6035,-3.5967,-3.5781,-3.5351,-3.4941,-3.4512,-3.4062,-3.3691,-3.3496,-3.3418,-3.3418,-3.3613,-3.3926,-3.4101,-3.4551,-3.5176,-3.5391,-3.5664,-3.5957,-3.5996,-3.6035,-3.6035,-3.5996,-3.584,-3.5469,-3.5351,-3.4863,-3.4316,-3.4824,-3.498,-3.4551,-3.4258,-3.4101,-3.4062,-3.3711,-3.3476,-3.3516,-3.3457,-3.3418,-3.3418,-3.3544,-3.365,-3.3544,-3.3839,-3.3776,-3.3713,-3.3965,-3.4798,-3.6478,-3.7963,-3.9265,-4.0531,-4.1335,-4.1803,-4.2103,-4.2183,-4.2479,-4.2961,-4.2986,-4.2986,-4.2986,-4.2986,-4.2986,-4.2986,-4.2986,-4.2986,-4.2986,-4.2986,-4.2986,-4.2986,-4.2986,-4.2986,-4.2986,-4.2986,-4.2986,-4.2986,-4.2986,-4.2986,-4.2986,-4.2986,-4.3438,-4.4267,-4.4669,-4.5045,-4.5965,-4.5049,-4.3669,-4.2011,-4.0537,-3.9235,-3.7374,-3.6722,-3.6287,-3.6084,-3.6035,-3.6035,-3.6035,-3.6035,-3.6035,-3.6035,-3.6035,-3.6035,-3.6035,-3.6035,-3.6035,-3.6035,-3.6035,-3.6035,-3.6035,-3.6035,-3.6035,-3.6035,-3.6035,-3.6035,-3.6035,-3.6035,-3.5947,-3.5781,-3.5391,-3.5254,-3.4766,-3.4121,-3.3926,-3.3711,-3.3437,-3.3418,-3.3535,-3.373,-3.4258,-3.4648,-3.4941,-3.5586,-3.5937,-3.5996,-3.6035,-3.6035,-3.6035,-3.6035,-3.5781,-3.5469,-3.5391,-3.5117,-3.4648,-3.4844,-3.4805,-3.4707,-3.4609,-3.4531,-3.4531,-3.4121,-3.3887,-3.3867,-3.3594,-3.3437,-3.3587,-3.4612,-3.4487,-3.3965,-3.5766,-3.6295,-3.5335,-3.6234,-3.7566,-3.9288,-4.088,-4.1622,-4.175,-4.2013,-4.2213,-4.2238,-4.2539,-4.276,-4.2936,-4.2986,-4.2986,-4.2986,-4.2986,-4.2986,-4.2986,-4.2986,-4.2986,-4.2986,-4.2986,-4.2986,-4.2986,-4.2986,-4.2986,-4.2986,-4.2986,-4.2986,-4.2986,-4.2986,-4.2986,-4.2986,-4.3011,-4.3413,-4.4392,-4.4618,-4.5221,-4.583,-4.5793,-4.4767,-4.3294,-4.2264,-4.0902,-3.8531,-3.7575,-3.7307,-3.6287,-3.6035,-3.6035,-3.6035,-3.6035,-3.6035,-3.6035,-3.6035,-3.6035,-3.6035,-3.6035,-3.6035,-3.6035,-3.6035,-3.6035,-3.6035,-3.6035,-3.6035,-3.6035,-3.6035,-3.6035,-3.6035,-3.6035,-3.6035,-3.5781,-3.541,-3.5391,-3.498,-3.4375,-3.4336,-3.4082,-3.375,-3.3691,-3.3809,-3.4043,-3.4453,-3.4902,-3.5293,-3.5801,-3.6016,-3.6035,-3.6035,-3.6035,-3.6035,-3.6035,-3.5781,-3.5488,-3.5391,-3.5254,-3.5059,-3.5176,-3.5254,-3.5234,-3.5078,-3.5,-3.4922,-3.4551,-3.4258,-3.4107,-3.3848,-3.3594,-3.3709,-3.4902,-3.5273,-3.4736,-3.6842,-3.7566,-3.7062,-3.7805,-3.8935,-4.0534,-4.215,-4.271,-4.2363,-4.2213,-4.2213,-4.2238,-4.2514,-4.2735,-4.2936,-4.2986,-4.2986,-4.2986,-4.2986,-4.2986,-4.2986,-4.2986,-4.2986,-4.2986,-4.2986,-4.2986,-4.2986,-4.2986,-4.2986,-4.2986,-4.2986,-4.2986,-4.2986,-4.2986,-4.2986,-4.2986,-4.3212,-4.3714,-4.4392,-4.4869,-4.5296,-4.62,-4.6301,-4.5403,-4.4189,-4.3544,-4.1478,-3.93,-3.8927,-3.8154,-3.6924,-3.6084,-3.6035,-3.6035,-3.6035,-3.6035,-3.6035,-3.6035,-3.6035,-3.6035,-3.6035,-3.6035,-3.6035,-3.6035,-3.6035,-3.6035,-3.6035,-3.6035,-3.6035,-3.6035,-3.6035,-3.6035,-3.6035,-3.6035,-3.5801,-3.5469,-3.5469,-3.5195,-3.4805,-3.4766,-3.4492,-3.4101,-3.4023,-3.4219,-3.4492,-3.4648,-3.5098,-3.5937,-3.5918,-3.6035,-3.6035,-3.6035,-3.6035,-3.6035,-3.5996,-3.582,-3.5566,-3.5547,-3.5508,-3.5488,-3.5859,-3.5918,-3.5801,-3.5566,-3.5469,-3.5351,-3.5,-3.4609,-3.4355,-3.4205,-3.3848,-3.3954,-3.5438,-3.599,-3.6112,-3.7843,-3.8994,-3.8639,-3.8994,-3.9756,-4.1019,-4.2238,-4.2816,-4.2313,-4.2288,-4.2363,-4.2338,-4.2338,-4.2539,-4.2886,-4.2986,-4.2986,-4.2986,-4.2986,-4.2986,-4.2986,-4.2986,-4.2986,-4.2986,-4.2986,-4.2986,-4.2986,-4.2986,-4.2986,-4.2986,-4.2986,-4.2986,-4.2986,-4.2986,-4.2986,-4.3062,-4.3463,-4.4016,-4.4568,-4.5121,-4.5698,-4.61,-4.618,-4.5793,-4.5013,-4.4436,-4.3146,-4.1117,-4.0018,-3.8729,-3.7106,-3.6471,-3.6035,-3.6035,-3.6035,-3.6035,-3.6035,-3.6035,-3.6035,-3.6035,-3.6035,-3.6035,-3.6035,-3.6035,-3.6035,-3.6035,-3.6035,-3.6035,-3.6035,-3.6035,-3.6035,-3.6035,-3.6035,-3.6035,-3.5957,-3.5879,-3.5879,-3.5644,-3.5293,-3.5234,-3.4805,-3.4121,-3.4082,-3.4219,-3.4297,-3.457,-3.5039,-3.5586,-3.5879,-3.6035,-3.6035,-3.6035,-3.6035,-3.6035,-3.6035,-3.5996,-3.5879,-3.5859,-3.5879,-3.5898,-3.5957,-3.6016,-3.5976,-3.5918,-3.5879,-3.5801,-3.5449,-3.5195,-3.5019,-3.4434,-3.4062,-3.4378,-3.6324,-3.6803,-3.676,-3.9558,-4.1019,-4.0303,-4.1133,-4.1955,-4.2375,-4.2793,-4.2911,-4.2836,-4.276,-4.2791,-4.2791,-4.276,-4.2836,-4.2911,-4.2986,-4.2986,-4.2986,-4.2986,-4.2986,-4.2986,-4.2986,-4.2986,-4.2986,-4.2986,-4.2986,-4.2986,-4.2986,-4.2986,-4.2986,-4.2986,-4.2986,-4.2986,-4.2986,-4.2986,-4.3087,-4.3489,-4.4066,-4.4568,-4.5171,-4.5698,-4.6225,-4.6301,-4.5999,-4.5707,-4.5196,-4.462,-4.302,-4.1245,-3.9497,-3.7688,-3.6539,-3.6016,-3.6035,-3.6035,-3.6035,-3.6035,-3.6035,-3.6035,-3.6035,-3.6035,-3.6035,-3.6035,-3.6035,-3.6035,-3.6035,-3.6035,-3.6035,-3.6035,-3.6035,-3.6035,-3.6035,-3.6035,-3.5947,-3.6035,-3.6035,-3.6035,-3.5898,-3.5703,-3.5664,-3.5312,-3.4785,-3.4707,-3.4687,-3.4726,-3.4941,-3.5273,-3.5684,-3.5918,-3.6035,-3.6035,-3.6035,-3.6035,-3.6035,-3.6035,-3.6035,-3.6035,-3.6035,-3.6035,-3.6035,-3.6035,-3.6035,-3.6035,-3.6035,-3.5996,-3.6016,-3.5781,-3.5547,-3.541,-3.4902,-3.4492,-3.4532,-3.6185,-3.6857,-3.6682,-3.9639,-4.215,-4.1785,-4.2569,-4.2986,-4.2986,-4.2986,-4.2986,-4.2986,-4.2986,-4.2986,-4.2986,-4.2986,-4.2986,-4.2986,-4.2986,-4.2986,-4.2986,-4.2986,-4.2986,-4.2986,-4.2986,-4.2986,-4.2986,-4.2986,-4.2986,-4.2986,-4.2986,-4.2986,-4.2986,-4.2986,-4.2986,-4.2986,-4.2986,-4.3087,-4.3363,-4.384,-4.4267,-4.4719,-4.5372,-4.5874,-4.6225,-4.6301,-4.624,-4.5974,-4.5914,-4.5281,-4.3606,-4.182,-4.0213,-3.8531,-3.6924,-3.6084,-3.6035,-3.6035,-3.6035,-3.6035,-3.6035,-3.6035,-3.6035,-3.6035,-3.6035,-3.6035,-3.6035,-3.6035,-3.6035,-3.6035,-3.6035,-3.6035,-3.6035,-3.6035,-3.6035,-3.6035,-3.6035,-3.6035,-3.6035,-3.6035,-3.6035,-3.6035,-3.6016,-3.5742,-3.5391,-3.5391,-3.5293,-3.5391,-3.5391,-3.5566,-3.5937,-3.5996,-3.6035,-3.6035,-3.6035,-3.6035,-3.6035,-3.6035,-3.6035,-3.6035,-3.6035,-3.6035,-3.6035,-3.6035,-3.6035,-3.6035,-3.6035,-3.6035,-3.6016,-3.6016,-3.584,-3.5566,-3.5371,-3.5264,-3.534,-3.6666,-3.7508,-3.7544,-4.0036,-4.1932,-4.2625,-4.2849,-4.2986,-4.2986,-4.2986,-4.2986,-4.2986,-4.2986,-4.2986,-4.2986,-4.2986,-4.2986,-4.2986,-4.2986,-4.2986,-4.2986,-4.2986,-4.2986,-4.2986,-4.2986,-4.2986,-4.2986,-4.2986,-4.2986,-4.2986,-4.2986,-4.2986,-4.2986,-4.2986,-4.2986,-4.2986,-4.2986,-4.3237,-4.374,-4.4292,-4.4568,-4.492,-4.5573,-4.615,-4.6276,-4.6326,-4.6326,-4.6301,-4.624,-4.5853,-4.4189,-4.258,-4.1117,-3.9627,-3.8088,-3.6403,-3.6152,-3.6035,-3.6035,-3.6035,-3.6035,-3.6035,-3.6035,-3.6035,-3.6035,-3.6035,-3.6035,-3.6035,-3.6035,-3.6035,-3.6035,-3.6035,-3.6035,-3.6035,-3.6035,-3.6035,-3.6035,-3.6035,-3.6035,-3.6035,-3.6035,-3.6035,-3.6035,-3.5801,-3.5449,-3.543,-3.5391,-3.541,-3.541,-3.5664,-3.5937,-3.6035,-3.6035,-3.6035,-3.6035,-3.6035,-3.6035,-3.6035,-3.6035,-3.6035,-3.6035,-3.6035,-3.6035,-3.6035,-3.6035,-3.6035,-3.6035,-3.6035,-3.6035,-3.6152,-3.6054,-3.5868,-3.572,-3.6374,-3.6882,-3.8184,-3.9137,-4.0015,-4.1441,-4.2722,-4.2981,-4.2986,-4.2986,-4.2986,-4.2986,-4.2986,-4.2986,-4.2986,-4.2986,-4.2986,-4.2986,-4.2986,-4.2986,-4.2986,-4.2986,-4.2986,-4.2986,-4.2986,-4.2986,-4.2986,-4.2986,-4.2986,-4.2986,-4.2986,-4.2986,-4.2986,-4.2986,-4.2986,-4.2986,-4.2986,-4.2986,-4.3062,-4.3263,-4.379,-4.4342,-4.4895,-4.5321,-4.5899,-4.6326,-4.6326,-4.6326,-4.6326,-4.6326,-4.6301,-4.624,-4.5464,-4.3855,-4.2264,-4.086,-3.9387,-3.7709,-3.6287,-3.6084,-3.6035,-3.6035,-3.6035,-3.6035,-3.6035,-3.6035,-3.6035,-3.6035,-3.6035,-3.6035,-3.6035,-3.6035,-3.6035,-3.6035,-3.6035,-3.6035,-3.6035,-3.6035,-3.6035,-3.6035,-3.6035,-3.6035,-3.6035,-3.6035,-3.6035,-3.5918,-3.5742,-3.5723,-3.5723,-3.5723,-3.5723,-3.582,-3.5996,-3.6035,-3.6035,-3.6035,-3.6035,-3.6035,-3.6035,-3.6035,-3.6035,-3.6035,-3.6035,-3.6035,-3.6035,-3.6035,-3.6035,-3.6035,-3.6035,-3.6084,-3.6219,-3.6789,-3.6924,-3.6702,-3.7769,-3.7939,-3.8616,-3.9355,-4.0134,-4.0333,-4.1653,-4.2258,-4.2893,-4.2986,-4.2986,-4.2986,-4.2986,-4.2986,-4.2986,-4.2986,-4.2986,-4.2986,-4.2986,-4.2986,-4.2986,-4.2986,-4.2986,-4.2986,-4.2986,-4.2986,-4.2986,-4.2986,-4.2986,-4.2986,-4.2986,-4.2986,-4.2986,-4.2986,-4.2986,-4.2986,-4.2986,-4.2986,-4.3037,-4.3212,-4.3664,-4.4166,-4.4719,-4.5246,-4.5748,-4.61,-4.6326,-4.6326,-4.6326,-4.6326,-4.6326,-4.6326,-4.6326,-4.6326,-4.4767,-4.2958,-4.103,-3.9387,-3.7508,-3.6219,-3.6152,-3.6035,-3.6035,-3.6035,-3.6035,-3.6035,-3.6035,-3.6035,-3.6035,-3.6035,-3.6035,-3.6035,-3.6035,-3.6035,-3.6035,-3.6035,-3.6035,-3.6035,-3.6035,-3.6035,-3.6035,-3.6035,-3.6035,-3.6035,-3.6035,-3.6035,-3.6016,-3.6035,-3.6016,-3.5996,-3.6035,-3.6016,-3.5996,-3.6035,-3.6035,-3.6035,-3.6035,-3.6035,-3.6035,-3.6035,-3.6035,-3.6035,-3.6035,-3.6035,-3.6035,-3.6035,-3.6035,-3.6035,-3.6152,-3.6539,-3.6606,-3.7193,-3.8287,-3.8531,-3.8067,-3.9584,-3.9735,-4.0096,-4.0237,-4.0643,-4.0644,-4.1011,-4.1834,-4.2969,-4.3137,-4.3137,-4.2986,-4.2986,-4.2986,-4.2986,-4.2986,-4.2986,-4.2986,-4.2986,-4.2986,-4.2986,-4.2986,-4.2986,-4.2986,-4.2986,-4.2986,-4.2986,-4.2986,-4.2986,-4.2986,-4.2986,-4.2986,-4.2986,-4.2986,-4.2986,-4.3011,-4.3112,-4.3162,-4.3288,-4.3664,-4.4166,-4.4694,-4.5171,-4.5573,-4.5974,-4.6225,-4.6326,-4.6326,-4.6326,-4.6326,-4.6326,-4.6326,-4.6326,-4.612,-4.489,-4.3169,-4.0924,-3.8993,-3.7059,-3.6084,-3.6084,-3.6035,-3.6035,-3.6035,-3.6035,-3.6035,-3.6035,-3.6035,-3.6035,-3.6035,-3.6035,-3.6035,-3.6035,-3.6035,-3.6035,-3.6035,-3.6035,-3.6035,-3.6035,-3.6035,-3.6035,-3.6035,-3.6035,-3.6035,-3.6035,-3.6035,-3.6035,-3.6035,-3.6035,-3.6035,-3.6035,-3.6035,-3.6035,-3.6035,-3.6035,-3.6035,-3.6035,-3.6035,-3.6035,-3.6035,-3.6035,-3.6035,-3.6035,-3.6035,-3.6035,-3.6035,-3.6035,-3.6035,-3.6287,-3.7374,-3.8154,-3.8486,-3.9758,-4.0602,-4.0083,-4.1309,-4.1797,-4.2716,-4.3153,-4.3671,-4.42,-4.4011,-4.3829,-4.3701,-4.3639,-4.3463,-4.3112,-4.3037,-4.2986,-4.2986,-4.2986,-4.2986,-4.2986,-4.2986,-4.2986,-4.2986,-4.2986,-4.2986,-4.2986,-4.2986,-4.2986,-4.2986,-4.2986,-4.2986,-4.2986,-4.2986,-4.2986,-4.2986,-4.2986,-4.3037,-4.3137,-4.3413,-4.3614,-4.389,-4.4192,-4.4719,-4.5221,-4.5497,-4.5899,-4.6075,-4.6301,-4.6326,-4.6326,-4.6326,-4.6326,-4.6326,-4.6326,-4.6326,-4.5732,-4.446,-4.2769,-4.0472,-3.8531,-3.6606,-3.6035,-3.6035,-3.6035,-3.6035,-3.6035,-3.6035,-3.6035,-3.6035,-3.6035,-3.6035,-3.6035,-3.6035,-3.6035,-3.6035,-3.6035,-3.6035,-3.6035,-3.6035,-3.6035,-3.6035,-3.6035,-3.6035,-3.6035,-3.6035,-3.6035,-3.6035,-3.6035,-3.6035,-3.6035,-3.6035,-3.6035,-3.6035,-3.6035,-3.6035,-3.6035,-3.6035,-3.6035,-3.6035,-3.6035,-3.6035,-3.6035,-3.6035,-3.6035,-3.6035,-3.6035,-3.6035,-3.6035,-3.6035,-3.6035,-3.6539,-3.7642,-3.8618,-3.9059,-4.1117,-4.1947,-4.1947,-4.3232,-4.3669,-4.4007,-4.4268,-4.4957,-4.5219,-4.4945,-4.4518,-4.4267,-4.3991,-4.3714,-4.3463,-4.3087,-4.3011,-4.2986,-4.2986,-4.2986,-4.2986,-4.2986,-4.2986,-4.2986,-4.2986,-4.2986,-4.2986,-4.2986,-4.2986,-4.2986,-4.2986,-4.2986,-4.2986,-4.2986,-4.2986,-4.2986,-4.2986,-4.3112,-4.3388,-4.3639,-4.394,-4.4292,-4.4769,-4.5095,-4.5522,-4.5849,-4.61,-4.6225,-4.6326,-4.6326,-4.6326,-4.6326,-4.6326,-4.6326,-4.6326,-4.6326,-4.522,-4.363,-4.182,-3.9779,-3.7909,-3.6152,-3.6035,-3.6035,-3.6035,-3.6035,-3.6035,-3.6035,-3.6035,-3.6035,-3.6035,-3.6035,-3.6035,-3.6035,-3.6035,-3.6035,-3.6035,-3.6035,-3.6035,-3.6035,-3.6035,-3.6035,-3.5519,-3.6035,-3.6035,-3.6035,-3.6035,-3.6035,-3.6035,-3.6035,-3.6035,-3.6035,-3.6035,-3.6035,-3.6035,-3.6035,-3.6035,-3.6035,-3.6035,-3.6035,-3.6035,-3.6035,-3.6035,-3.6035,-3.6035,-3.6035,-3.6035,-3.6035,-3.6035,-3.6035,-3.6035,-3.6674,-3.8021,-3.9453,-3.9453,-4.2769,-4.3544,-4.3544,-4.4497,-4.5464,-4.4743,-4.5289,-4.5679,-4.5673,-4.5347,-4.5045,-4.4769,-4.4468,-4.4166,-4.394,-4.3489,-4.3237,-4.3212,-4.3037,-4.2986,-4.2986,-4.2986,-4.2986,-4.2986,-4.2986,-4.2986,-4.2986,-4.2986,-4.2986,-4.2986,-4.2986,-4.2986,-4.2986,-4.2986,-4.3112,-4.3212,-4.3237,-4.3514,-4.389,-4.4141,-4.4493,-4.492,-4.5347,-4.5547,-4.5723,-4.5999,-4.62,-4.625,-4.6326,-4.6326,-4.6326,-4.6326,-4.6326,-4.6326,-4.6326,-4.6326,-4.5037,-4.3357,-4.1756,-3.9888,-3.7642,-3.6152,-3.6084,-3.6084,-3.6016,-3.6035,-3.6035,-3.6035,-3.6035,-3.6035,-3.6035,-3.6035,-3.6035,-3.6035,-3.6035,-3.6035,-3.6035,-3.6035,-3.6035,-3.6035,-3.6035,-3.6035,-3.4883,-3.6035,-3.6035,-3.6035,-3.6035,-3.6035,-3.6035,-3.6035,-3.6035,-3.6035,-3.6035,-3.6035,-3.6035,-3.6035,-3.6035,-3.6035,-3.6035,-3.6035,-3.6035,-3.6035,-3.6035,-3.6035,-3.6035,-3.6035,-3.6035,-3.6035,-3.6035,-3.6016,-3.6016,-3.6876,-3.9322,-4.0472,-4.1501,-4.4189,-4.5464,-4.5732,-4.5793,-4.618,-4.5732,-4.603,-4.6115,-4.6175,-4.6024,-4.5849,-4.5497,-4.5347,-4.5121,-4.4593,-4.4041,-4.3664,-4.3639,-4.3313,-4.3011,-4.3011,-4.2986,-4.2986,-4.2986,-4.2986,-4.2986,-4.2986,-4.2986,-4.2986,-4.2986,-4.3037,-4.3112,-4.3137,-4.3062,-4.3237,-4.3689,-4.374,-4.4016,-4.4518,-4.4995,-4.5146,-4.5472,-4.5773,-4.5924,-4.605,-4.6125,-4.6276,-4.6301,-4.6326,-4.6326,-4.6326,-4.6326,-4.6326,-4.6326,-4.6326,-4.6301,-4.522,-4.3692,-4.2264,-4.0408,-3.7755,-3.6403,-3.6219,-3.6152,-3.6016,-3.6035,-3.6035,-3.6035,-3.6035,-3.6035,-3.6035,-3.6035,-3.6035,-3.6035,-3.6035,-3.6035,-3.6035,-3.6035,-3.6035,-3.6035,-3.6035,-3.6035,-3.4296,-3.6035,-3.6035,-3.6035,-3.6035,-3.6035,-3.6035,-3.6035,-3.6035,-3.6035,-3.6035,-3.6035,-3.6035,-3.6035,-3.6035,-3.6035,-3.6035,-3.6035,-3.6035,-3.6035,-3.6035,-3.6035,-3.6035,-3.6035,-3.6035,-3.6035,-3.6084,-3.6084,-3.6722,-3.7955,-4.0278,-4.1693,-4.3232,-4.5159,-4.5914,-4.624,-4.6326,-4.6326,-4.6326,-4.6326,-4.6326,-4.6326,-4.6326,-4.6225,-4.605,-4.5573,-4.5422,-4.5095,-4.4593,-4.4192,-4.3815,-4.3564,-4.3288,-4.3037,-4.2986,-4.2986,-4.2986,-4.2986,-4.3011,-4.3037,-4.3011,-4.2986,-4.3062,-4.3263,-4.3489,-4.3514,-4.374,-4.4016,-4.4267,-4.4317,-4.4568,-4.5095,-4.5372,-4.5522,-4.5899,-4.6125,-4.6276,-4.6326,-4.6326,-4.6326,-4.6326,-4.6326,-4.6326,-4.6326,-4.6326,-4.6326,-4.6326,-4.6326,-4.612,-4.5159,-4.4065,-4.2706,-4.1158,-3.8663,-3.7374,-3.7126,-3.6674,-3.6084,-3.6035,-3.6035,-3.6035,-3.6035,-3.6035,-3.6035,-3.6035,-3.6035,-3.6035,-3.6035,-3.6035,-3.6035,-3.6035,-3.6035,-3.6035,-3.6035,-3.6035,-3.4227,-3.6035,-3.6035,-3.6035,-3.6035,-3.6035,-3.6035,-3.6035,-3.6035,-3.6035,-3.6035,-3.6035,-3.6035,-3.6035,-3.6035,-3.6035,-3.6035,-3.6035,-3.6035,-3.6035,-3.6035,-3.6035,-3.6035,-3.6035,-3.6084,-3.6355,-3.6539,-3.6924,-3.7709,-3.9366,-4.1117,-4.2391,-4.3793,-4.5342,-4.612,-4.6326,-4.6301,-4.6301,-4.6326,-4.6326,-4.6326,-4.6326,-4.6326,-4.6326,-4.62,-4.5773,-4.5497,-4.5196,-4.4694,-4.4141,-4.384,-4.3564,-4.3338,-4.3112,-4.2986,-4.2986,-4.2986,-4.2986,-4.3037,-4.3187,-4.3212,-4.3313,-4.3614,-4.384,-4.4016,-4.4141,-4.4418,-4.4543,-4.4869,-4.4895,-4.5095,-4.5623,-4.5824,-4.5874,-4.6175,-4.62,-4.6326,-4.6326,-4.6326,-4.6326,-4.6326,-4.6326,-4.6326,-4.6326,-4.6326,-4.6326,-4.6326,-4.6326,-4.618,-4.5793,-4.4583,-4.3208,-4.1606,-3.9693,-3.8795,-3.8287,-3.7059,-3.6016,-3.6035,-3.6035,-3.6035,-3.6035,-3.6035,-3.6035,-3.6035,-3.6035,-3.6035,-3.6035,-3.6035,-3.6035,-3.6035,-3.6035,-3.6035,-3.6035,-3.5879,-3.4952,-3.6035,-3.6035,-3.6035,-3.6035,-3.6035,-3.6035,-3.6035,-3.6035,-3.6035,-3.6035,-3.6035,-3.6035,-3.6035,-3.6035,-3.6035,-3.6035,-3.6035,-3.6035,-3.6035,-3.6035,-3.6035,-3.6035,-3.6084,-3.6268,-3.7059,-3.8221,-3.8663,-3.9431,-4.1181,-4.2454,-4.3458,-4.4202,-4.5451,-4.62,-4.6276,-4.6276,-4.6276,-4.6301,-4.625,-4.615,-4.62,-4.6175,-4.6175,-4.5899,-4.5723,-4.5497,-4.5146,-4.4593,-4.4091,-4.3815,-4.3463,-4.3212,-4.3011,-4.2986,-4.2986,-4.2986,-4.3037,-4.3288,-4.374,-4.379,-4.4041,-4.4317,-4.4443,-4.4593,-4.4618,-4.4744,-4.4995,-4.5422,-4.5472,-4.5698,-4.605,-4.625,-4.625,-4.6276,-4.6301,-4.6326,-4.6326,-4.6326,-4.6326,-4.6326,-4.6326,-4.6326,-4.6326,-4.6326,-4.6326,-4.6326,-4.6326,-4.612,-4.5793,-4.4436,-4.2832,-4.1415,-3.9693,-3.8861,-3.7955,-3.6856,-3.6084,-3.6016,-3.6035,-3.6035,-3.6035,-3.6035,-3.6035,-3.6035,-3.6035,-3.6035,-3.6035,-3.6035,-3.6035,-3.6035,-3.6035,-3.6035,-3.6035,-3.5811,-3.5108,-3.6035,-3.6035,-3.6035,-3.6035,-3.6035,-3.6035,-3.6035,-3.6035,-3.6035,-3.6035,-3.6035,-3.6035,-3.6035,-3.6035,-3.6035,-3.6035,-3.6035,-3.6035,-3.6035,-3.6035,-3.6035,-3.6035,-3.6219,-3.7059,-3.7955,-3.8795,-3.9627,-4.1158,-4.2895,-4.3731,-4.4559,-4.5354,-4.5505,-4.5714,-4.5648,-4.5522,-4.5321,-4.5598,-4.5472,-4.5347,-4.5698,-4.5748,-4.5598,-4.5296,-4.5347,-4.5246,-4.492,-4.4317,-4.4041,-4.3765,-4.3413,-4.3288,-4.3062,-4.2986,-4.2986,-4.3112,-4.3263,-4.3991,-4.4618,-4.492,-4.4794,-4.4869,-4.4995,-4.5171,-4.5196,-4.5573,-4.5824,-4.5924,-4.5949,-4.6125,-4.6276,-4.6301,-4.6301,-4.6301,-4.6326,-4.6326,-4.6326,-4.6326,-4.6326,-4.6326,-4.6326,-4.6326,-4.6326,-4.6326,-4.6326,-4.6326,-4.6326,-4.5525,-4.5013,-4.3357,-4.1693,-4.0602,-3.9322,-3.8465,-3.7621,-3.6722,-3.6152,-3.6016,-3.6035,-3.6035,-3.6035,-3.6035,-3.6035,-3.6035,-3.6035,-3.6035,-3.6035,-3.6035,-3.6035,-3.6035,-3.6035,-3.6035,-3.6035,-3.6035,-3.5811,-3.6035,-3.6035,-3.6035,-3.6035,-3.6035,-3.6035,-3.6035,-3.6035,-3.6035,-3.6035,-3.6035,-3.6035,-3.6035,-3.6035,-3.6035,-3.6035,-3.6035,-3.6035,-3.6035,-3.6035,-3.6035,-3.6035,-3.6539,-3.7775,-3.8861,-3.9693,-4.1245,-4.2958,-4.4559,-4.462,-4.5196,-4.5739,-4.5573,-4.5422,-4.5271,-4.5121,-4.497,-4.5246,-4.5146,-4.4895,-4.5121,-4.5146,-4.502,-4.4819,-4.4744,-4.4694,-4.4392,-4.4141,-4.3915,-4.3614,-4.3463,-4.3363,-4.3087,-4.2986,-4.3087,-4.3338,-4.4041,-4.4694,-4.5246,-4.5673,-4.5522,-4.5372,-4.5623,-4.5748,-4.5799,-4.6024,-4.615,-4.6276,-4.6326,-4.6326,-4.6326,-4.6326,-4.6326,-4.6326,-4.6326,-4.6326,-4.6326,-4.6326,-4.6326,-4.6326,-4.6326,-4.6326,-4.6326,-4.6326,-4.6326,-4.6326,-4.624,-4.5403,-4.4497,-4.2895,-4.1309,-4.0213,-3.919,-3.842,-3.7642,-3.6856,-3.6336,-3.6084,-3.6035,-3.6035,-3.6035,-3.6035,-3.6035,-3.6035,-3.6035,-3.6035,-3.6035,-3.6035,-3.6035,-3.6035,-3.6035,-3.6035,-3.6035,-3.6035,-3.6035,-3.6035,-3.6035,-3.6035,-3.6035,-3.6035,-3.6035,-3.6035,-3.6035,-3.6035,-3.6035,-3.6035,-3.6035,-3.6035,-3.6035,-3.6035,-3.6035,-3.6035,-3.6035,-3.6035,-3.6035,-3.6035,-3.6035,-3.6674,-3.8021,-3.9497,-4.1245,-4.2855,-4.4497,-4.612,-4.5853,-4.5999,-4.5864,-4.5171,-4.507,-4.5045,-4.4869,-4.4895,-4.5121,-4.4669,-4.4543,-4.4719,-4.4644,-4.4493,-4.4317,-4.4166,-4.3991,-4.3714,-4.3438,-4.3212,-4.3062,-4.3037,-4.3011,-4.2986,-4.3011,-4.3338,-4.3966,-4.492,-4.5271,-4.5648,-4.6024,-4.615,-4.5999,-4.615,-4.6276,-4.6276,-4.625,-4.6301,-4.6326,-4.6326,-4.6326,-4.6326,-4.6326,-4.6326,-4.6326,-4.6326,-4.6326,-4.6326,-4.6326,-4.6326,-4.6326,-4.6326,-4.6326,-4.6326,-4.6326,-4.6326,-4.6326,-4.6326,-4.618,-4.5074,-4.3482,-4.1947,-4.0537,-3.9497,-3.842,-3.7642,-3.6674,-3.6403,-3.6035,-3.6035,-3.6035,-3.6035,-3.6035,-3.6035,-3.6035,-3.6035,-3.6035,-3.6035,-3.6035,-3.6035,-3.6035,-3.6035,-3.6035,-3.6035,-3.6035,-3.5947,-3.6035,-3.6035,-3.6035,-3.6035,-3.6035,-3.6035,-3.6035,-3.6035,-3.6035,-3.6035,-3.6035,-3.6035,-3.6035,-3.6035,-3.6035,-3.6035,-3.6035,-3.6035,-3.6035,-3.6016,-3.6219,-3.6084,-3.7126,-3.8927,-4.0472,-4.2011,-4.3817,-4.5586,-4.607,-4.6276,-4.5723,-4.5012,-4.4794,-4.4769,-4.4694,-4.4342,-4.4819,-4.4945,-4.4317,-4.4217,-4.4317,-4.4292,-4.4041,-4.3765,-4.384,-4.3639,-4.3338,-4.3137,-4.2986,-4.3011,-4.2986,-4.2986,-4.2986,-4.3363,-4.389,-4.4895,-4.5372,-4.5623,-4.5999,-4.6225,-4.6326,-4.6326,-4.6326,-4.6326,-4.6301,-4.6326,-4.6326,-4.6326,-4.6326,-4.6326,-4.6326,-4.6326,-4.6326,-4.6326,-4.6326,-4.6326,-4.6326,-4.6326,-4.6326,-4.6326,-4.6326,-4.6326,-4.6326,-4.6326,-4.6326,-4.6326,-4.624,-4.618,-4.5342,-4.3606,-4.2201,-4.0708,-3.8861,-3.7508,-3.6991,-3.6219,-3.6084,-3.6035,-3.6035,-3.6035,-3.6035,-3.6035,-3.6035,-3.6035,-3.6035,-3.6035,-3.6035,-3.6035,-3.6035,-3.6035,-3.6035,-3.6035,-3.6035,-3.6035,-3.6035,-3.6035,-3.6035,-3.6035,-3.6035,-3.6035,-3.6035,-3.6035,-3.6035,-3.6035,-3.6035,-3.6035,-3.6035,-3.6035,-3.6035,-3.6035,-3.6035,-3.6035,-3.6035,-3.6035,-3.6152,-3.6722,-3.7059,-3.8221,-4.0256,-4.1947,-4.3232,-4.4473,-4.6055,-4.605,-4.5698,-4.5196,-4.5095,-4.4644,-4.4644,-4.4644,-4.4443,-4.4694,-4.4794,-4.4568,-4.4116,-4.4091,-4.4141,-4.374,-4.3664,-4.3865,-4.3564,-4.3338,-4.3187,-4.3087,-4.3263,-4.3288,-4.3438,-4.3639,-4.4192,-4.4568,-4.5422,-4.5723,-4.5949,-4.62,-4.6276,-4.6326,-4.6326,-4.6326,-4.6326,-4.6326,-4.6326,-4.6326,-4.6326,-4.6326,-4.6326,-4.6326,-4.6326,-4.6326,-4.6326,-4.6326,-4.6326,-4.6326,-4.6326,-4.6326,-4.6326,-4.6326,-4.6326,-4.6326,-4.6326,-4.6326,-4.6326,-4.6059,-4.5671,-4.4645,-4.2855,-4.1693,-4.0537,-3.8287,-3.6287,-3.6035,-3.6035,-3.6035,-3.6035,-3.6035,-3.6035,-3.6035,-3.6035,-3.6035,-3.6035,-3.6035,-3.6035,-3.6035,-3.6035,-3.6035,-3.6035,-3.6035,-3.6035,-3.6035,-3.6035,-3.6035,-3.6035,-3.6035,-3.6035,-3.6035,-3.6035,-3.6035,-3.6035,-3.6035,-3.6035,-3.6035,-3.6035,-3.6035,-3.6035,-3.6035,-3.6035,-3.6035,-3.6219,-3.6355,-3.6674,-3.6403,-3.8154,-3.8795,-3.9758,-4.1861,-4.2958,-4.4103,-4.5147,-4.6075,-4.5497,-4.5171,-4.5095,-4.5347,-4.4518,-4.4468,-4.5095,-4.4593,-4.4895,-4.5598,-4.4995,-4.4342,-4.4443,-4.4317,-4.4066,-4.4367,-4.4192,-4.3865,-4.374,-4.3564,-4.3338,-4.3689,-4.394,-4.4116,-4.4618,-4.502,-4.5347,-4.5648,-4.5999,-4.615,-4.6276,-4.6301,-4.6326,-4.6326,-4.6326,-4.6326,-4.6326,-4.6326,-4.6326,-4.6326,-4.6326,-4.6326,-4.6326,-4.6326,-4.6326,-4.6326,-4.6326,-4.6326,-4.6326,-4.6326,-4.6326,-4.6326,-4.6326,-4.6326,-4.6326,-4.6326,-4.6326,-4.6326,-4.612,-4.5611,-4.4583,-4.2832,-4.1309,-4.0278,-3.7955,-3.6084,-3.6035,-3.6035,-3.6035,-3.6035,-3.6035,-3.6035,-3.6035,-3.6035,-3.6035,-3.6035,-3.6035,-3.6035,-3.6035,-3.6035,-3.6035,-3.6035,-3.6035,-3.6035,-3.6035,-3.6035,-3.6035,-3.6035,-3.6035,-3.6035,-3.6035,-3.6035,-3.6035,-3.6035,-3.6035,-3.6035,-3.6035,-3.6035,-3.6035,-3.6035,-3.6035,-3.6035,-3.6016,-3.6336,-3.7193,-3.7822,-3.8531,-3.9758,-4.0537,-4.0924,-4.2832,-4.3731,-4.4251,-4.5122,-4.5999,-4.5547,-4.5045,-4.4644,-4.4819,-4.4367,-4.4694,-4.5422,-4.4945,-4.5397,-4.6175,-4.5623,-4.5045,-4.5146,-4.4794,-4.4518,-4.4618,-4.4443,-4.4418,-4.4367,-4.4317,-4.4267,-4.4443,-4.4418,-4.4719,-4.5246,-4.5422,-4.5698,-4.605,-4.62,-4.6276,-4.6326,-4.6326,-4.6326,-4.6326,-4.6326,-4.6326,-4.6326,-4.6326,-4.6326,-4.6326,-4.6326,-4.6326,-4.6326,-4.6326,-4.6326,-4.6326,-4.6326,-4.6326,-4.6326,-4.6326,-4.6326,-4.6326,-4.6326,-4.6326,-4.6326,-4.6326,-4.6326,-4.6326,-4.6326,-4.5939,-4.5342,-4.3917,-4.1437,-4.0018,-3.7709,-3.6219,-3.6084,-3.6035,-3.6035,-3.6035,-3.6035,-3.6035,-3.6035,-3.6035,-3.6035,-3.6035,-3.6035,-3.6035,-3.6035,-3.6035,-3.6035,-3.6035,-3.6035,-3.6035,-3.6035,-3.6035,-3.6035,-3.6035,-3.6035,-3.6035,-3.6035,-3.6035,-3.6035,-3.6035,-3.6035,-3.6035,-3.6035,-3.6035,-3.6035,-3.6035,-3.6035,-3.6035,-3.6674,-3.7059,-3.8088,-3.8993,-4.0018,-4.1309,-4.2074,-4.302,-4.3917,-4.4706,-4.5257,-4.5459,-4.5773,-4.5623,-4.4794,-4.4342,-4.4769,-4.4744,-4.4719,-4.5347,-4.5547,-4.5773,-4.625,-4.5949,-4.5849,-4.5773,-4.5347,-4.5196,-4.5221,-4.5171,-4.507,-4.4895,-4.4844,-4.4819,-4.5045,-4.5246,-4.5472,-4.5799,-4.5899,-4.6024,-4.62,-4.6301,-4.6326,-4.6326,-4.6326,-4.6326,-4.6326,-4.6326,-4.6326,-4.6326,-4.6326,-4.6326,-4.6326,-4.6326,-4.6326,-4.6326,-4.6326,-4.6326,-4.6326,-4.6326,-4.6326,-4.6326,-4.6326,-4.6326,-4.6326,-4.6326,-4.6326,-4.6326,-4.6326,-4.6326,-4.6326,-4.6326,-4.6326,-4.5732,-4.4829,-4.2391,-4.0213,-3.8221,-3.6606,-3.6084,-3.6035,-3.6035,-3.6035,-3.6035,-3.6035,-3.6035,-3.6035,-3.6035,-3.6035,-3.6035,-3.6035,-3.6035,-3.6035,-3.6035,-3.6035,-3.6035,-3.6035,-3.6035,-3.6035,-3.6035,-3.6035,-3.6035,-3.6035,-3.6035,-3.6035,-3.6035,-3.6035,-3.6035,-3.6035,-3.6035,-3.6035,-3.6035,-3.6035,-3.6035,-3.6423,-3.7441,-3.8552,-3.9693,-4.0537,-4.1606,-4.3271,-4.3855,-4.4497,-4.5403,-4.5732,-4.5799,-4.5764,-4.5899,-4.5949,-4.4945,-4.4518,-4.507,-4.4945,-4.4568,-4.5271,-4.5648,-4.5899,-4.62,-4.62,-4.625,-4.61,-4.5874,-4.5899,-4.5924,-4.5899,-4.5623,-4.5422,-4.5296,-4.5221,-4.5472,-4.5924,-4.605,-4.615,-4.6175,-4.6225,-4.6326,-4.6326,-4.6326,-4.6326,-4.6326,-4.6326,-4.6326,-4.6326,-4.6326,-4.6326,-4.6326,-4.6326,-4.6326,-4.6326,-4.6326,-4.6326,-4.6326,-4.6326,-4.6326,-4.6326,-4.6326,-4.6326,-4.6326,-4.6326,-4.6326,-4.6326,-4.6326,-4.6326,-4.6326,-4.6326,-4.6326,-4.6326,-4.6326,-4.5999,-4.489,-4.3232,-4.1437,-3.9714,-3.8154,-3.6471,-3.6035,-3.6035,-3.6035,-3.6035,-3.6035,-3.6035,-3.6035,-3.6035,-3.6035,-3.6035,-3.6035,-3.6035,-3.6035,-3.6035,-3.6035,-3.6035,-3.6035,-3.6035,-3.6035,-3.6035,-3.6035,-3.6035,-3.6035,-3.6035,-3.6035,-3.6035,-3.6035,-3.6035,-3.6035,-3.6035,-3.6035,-3.6035,-3.6016,-3.6084,-3.7575,-3.8618,-3.919,-4.0924,-4.2391,-4.3482,-4.4767,-4.5464,-4.5793,-4.5914,-4.618,-4.6125,-4.5849,-4.5648,-4.5874,-4.507,-4.4794,-4.5422,-4.5422,-4.5422,-4.5949,-4.615,-4.615,-4.6326,-4.6326,-4.6326,-4.6326,-4.62,-4.6225,-4.6225,-4.6225,-4.615,-4.61,-4.605,-4.6075,-4.6175,-4.6225,-4.6301,-4.6326,-4.6326,-4.6326,-4.6326,-4.6326,-4.6326,-4.6326,-4.6326,-4.6326,-4.6326,-4.6326,-4.6326,-4.6326,-4.6326,-4.6326,-4.6326,-4.6326,-4.6326,-4.6326,-4.6326,-4.6326,-4.6326,-4.6326,-4.6326,-4.6326,-4.6326,-4.6326,-4.6326,-4.6326,-4.6326,-4.6326,-4.6326,-4.6326,-4.6326,-4.6326,-4.6301,-4.624,-4.5159,-4.3941,-4.2264,-4.0666,-3.8729,-3.6674,-3.6152,-3.6035,-3.6035,-3.6035,-3.6035,-3.6035,-3.6035,-3.6035,-3.6035,-3.6035,-3.6035,-3.6035,-3.6035,-3.6035,-3.6035,-3.6035,-3.6035,-3.6035,-3.6035,-3.6035]}]]